<?xml version="1.0" encoding="UTF-8" standalone="no" ?>
<gpx xmlns="http://www.topografix.com/GPX/1/1" xmlns:xsi="http://www.w3.org/2001/XMLSchema-instance" xsi:schemaLocation="http://www.topografix.com/GPX/1/1 http://www.topografix.com/GPX/1/1/gpx.xsd" version="1.1" creator="VisuGPX - https://www.visugpx.com">
  <metadata>
    <name>Boucle Artix-64-Gravel</name>
    <desc><![CDATA[Boucle Gravel autour du Gave de Pau ]]></desc>
  </metadata>
  <wpt lat="43.3781" lon="-0.55075">
    <ele>114</ele>
    <desc><![CDATA[<p><br /><h3>Nom: Segment: 1</h3><br />Heure de départ: 08:58 22 mai 2022<br/>Heure d'arrivée: 10:41 22 mai 2022<br/>Distance: 33,7km (01:42)<br/>Temps déplacement: 01:37<br/>Vitesse moyenne: 19,7 km/h<br/>Vitesse moyenne mouv.: 20,63 km/h<br/>Vitesse Max.: 30,81 km/h<br/>Altitude minimale: 104 m<br/>Altitude maximale: 217 m<br/>Vitesse de montée: 1003,7 m/h<br/>Vitesse de descente: 678,3 m/h<br/>Gain d'altitude: 129 m<br/>Perte d'altitude: 235 m<br/>Temps de montée: 00:07<br/>Temps de descente: 00:20<br/></p>]]></desc>
    <type><![CDATA[Point d'arrivée]]></type>
  </wpt>
  <trk>
    <name><![CDATA[Boucle Artix-64-Gravel]]></name>
    <trkseg>
      <trkpt lat="43.31598" lon="-0.36064">
        <ele>210.32</ele>
        <time>2022-05-22T07:04:50.000Z</time>
      </trkpt>
      <trkpt lat="43.31605" lon="-0.36088">
        <ele>210.81</ele>
        <time>2022-05-22T07:04:55.000Z</time>
      </trkpt>
      <trkpt lat="43.31614" lon="-0.3611">
        <ele>212.79</ele>
        <time>2022-05-22T07:05:01.000Z</time>
      </trkpt>
      <trkpt lat="43.31619" lon="-0.36137">
        <ele>212.56</ele>
        <time>2022-05-22T07:05:08.000Z</time>
      </trkpt>
      <trkpt lat="43.31626" lon="-0.3616">
        <ele>211.88</ele>
        <time>2022-05-22T07:05:22.000Z</time>
      </trkpt>
      <trkpt lat="43.31621" lon="-0.36186">
        <ele>210.69</ele>
        <time>2022-05-22T07:05:30.000Z</time>
      </trkpt>
      <trkpt lat="43.31602" lon="-0.36194">
        <ele>210.67</ele>
        <time>2022-05-22T07:05:45.000Z</time>
      </trkpt>
      <trkpt lat="43.31582" lon="-0.36196">
        <ele>210.23</ele>
        <time>2022-05-22T07:05:50.000Z</time>
      </trkpt>
      <trkpt lat="43.31562" lon="-0.36199">
        <ele>209.75</ele>
        <time>2022-05-22T07:05:55.000Z</time>
      </trkpt>
      <trkpt lat="43.3154" lon="-0.36206">
        <ele>207.84</ele>
        <time>2022-05-22T07:06:00.000Z</time>
      </trkpt>
      <trkpt lat="43.31521" lon="-0.3622">
        <ele>206.95</ele>
        <time>2022-05-22T07:06:05.000Z</time>
      </trkpt>
      <trkpt lat="43.31504" lon="-0.36228">
        <ele>207.35</ele>
        <time>2022-05-22T07:06:09.000Z</time>
      </trkpt>
      <trkpt lat="43.31482" lon="-0.36233">
        <ele>207.63</ele>
        <time>2022-05-22T07:06:14.000Z</time>
      </trkpt>
      <trkpt lat="43.31463" lon="-0.36231">
        <ele>207.47</ele>
        <time>2022-05-22T07:06:18.000Z</time>
      </trkpt>
      <trkpt lat="43.31443" lon="-0.36232">
        <ele>206.37</ele>
        <time>2022-05-22T07:06:22.000Z</time>
      </trkpt>
      <trkpt lat="43.31422" lon="-0.36236">
        <ele>206.11</ele>
        <time>2022-05-22T07:06:26.000Z</time>
      </trkpt>
      <trkpt lat="43.31401" lon="-0.36241">
        <ele>207.89</ele>
        <time>2022-05-22T07:06:30.000Z</time>
      </trkpt>
      <trkpt lat="43.31381" lon="-0.36247">
        <ele>210.12</ele>
        <time>2022-05-22T07:06:34.000Z</time>
      </trkpt>
      <trkpt lat="43.31361" lon="-0.36252">
        <ele>210.54</ele>
        <time>2022-05-22T07:06:38.000Z</time>
      </trkpt>
      <trkpt lat="43.31343" lon="-0.36257">
        <ele>210.48</ele>
        <time>2022-05-22T07:06:42.000Z</time>
      </trkpt>
      <trkpt lat="43.31324" lon="-0.36263">
        <ele>209.57</ele>
        <time>2022-05-22T07:06:46.000Z</time>
      </trkpt>
      <trkpt lat="43.31306" lon="-0.36267">
        <ele>210.27</ele>
        <time>2022-05-22T07:06:50.000Z</time>
      </trkpt>
      <trkpt lat="43.31286" lon="-0.36275">
        <ele>210.34</ele>
        <time>2022-05-22T07:06:55.000Z</time>
      </trkpt>
      <trkpt lat="43.31266" lon="-0.36282">
        <ele>210.93</ele>
        <time>2022-05-22T07:06:59.000Z</time>
      </trkpt>
      <trkpt lat="43.31245" lon="-0.36287">
        <ele>210.45</ele>
        <time>2022-05-22T07:07:03.000Z</time>
      </trkpt>
      <trkpt lat="43.31226" lon="-0.36293">
        <ele>211.3</ele>
        <time>2022-05-22T07:07:07.000Z</time>
      </trkpt>
      <trkpt lat="43.31209" lon="-0.36304">
        <ele>211.31</ele>
        <time>2022-05-22T07:07:11.000Z</time>
      </trkpt>
      <trkpt lat="43.31192" lon="-0.36322">
        <ele>211.51</ele>
        <time>2022-05-22T07:07:16.000Z</time>
      </trkpt>
      <trkpt lat="43.31174" lon="-0.36334">
        <ele>211.78</ele>
        <time>2022-05-22T07:07:20.000Z</time>
      </trkpt>
      <trkpt lat="43.31169" lon="-0.36359">
        <ele>212.14</ele>
        <time>2022-05-22T07:07:24.000Z</time>
      </trkpt>
      <trkpt lat="43.31169" lon="-0.36385">
        <ele>211.71</ele>
        <time>2022-05-22T07:07:28.000Z</time>
      </trkpt>
      <trkpt lat="43.31166" lon="-0.36411">
        <ele>211.83</ele>
        <time>2022-05-22T07:07:32.000Z</time>
      </trkpt>
      <trkpt lat="43.31155" lon="-0.36436">
        <ele>211.94</ele>
        <time>2022-05-22T07:07:38.000Z</time>
      </trkpt>
      <trkpt lat="43.31157" lon="-0.36462">
        <ele>211.76</ele>
        <time>2022-05-22T07:07:42.000Z</time>
      </trkpt>
      <trkpt lat="43.31157" lon="-0.36489">
        <ele>211.77</ele>
        <time>2022-05-22T07:07:46.000Z</time>
      </trkpt>
      <trkpt lat="43.31158" lon="-0.36519">
        <ele>212.79</ele>
        <time>2022-05-22T07:07:50.000Z</time>
      </trkpt>
      <trkpt lat="43.31162" lon="-0.36551">
        <ele>211.01</ele>
        <time>2022-05-22T07:07:54.000Z</time>
      </trkpt>
      <trkpt lat="43.31166" lon="-0.36583">
        <ele>209.93</ele>
        <time>2022-05-22T07:07:58.000Z</time>
      </trkpt>
      <trkpt lat="43.31176" lon="-0.36612">
        <ele>210.83</ele>
        <time>2022-05-22T07:08:02.000Z</time>
      </trkpt>
      <trkpt lat="43.31185" lon="-0.36634">
        <ele>210.8</ele>
        <time>2022-05-22T07:08:05.000Z</time>
      </trkpt>
      <trkpt lat="43.31195" lon="-0.36655">
        <ele>210.61</ele>
        <time>2022-05-22T07:08:08.000Z</time>
      </trkpt>
      <trkpt lat="43.31204" lon="-0.36676">
        <ele>210.72</ele>
        <time>2022-05-22T07:08:11.000Z</time>
      </trkpt>
      <trkpt lat="43.31217" lon="-0.36704">
        <ele>210.92</ele>
        <time>2022-05-22T07:08:15.000Z</time>
      </trkpt>
      <trkpt lat="43.31227" lon="-0.36725">
        <ele>210.01</ele>
        <time>2022-05-22T07:08:18.000Z</time>
      </trkpt>
      <trkpt lat="43.3124" lon="-0.36753">
        <ele>209.27</ele>
        <time>2022-05-22T07:08:22.000Z</time>
      </trkpt>
      <trkpt lat="43.3125" lon="-0.36773">
        <ele>209.42</ele>
        <time>2022-05-22T07:08:25.000Z</time>
      </trkpt>
      <trkpt lat="43.31259" lon="-0.36794">
        <ele>208.54</ele>
        <time>2022-05-22T07:08:28.000Z</time>
      </trkpt>
      <trkpt lat="43.31271" lon="-0.36814">
        <ele>206.71</ele>
        <time>2022-05-22T07:08:31.000Z</time>
      </trkpt>
      <trkpt lat="43.31287" lon="-0.36834">
        <ele>207.7</ele>
        <time>2022-05-22T07:08:35.000Z</time>
      </trkpt>
      <trkpt lat="43.31308" lon="-0.36844">
        <ele>208.77</ele>
        <time>2022-05-22T07:08:39.000Z</time>
      </trkpt>
      <trkpt lat="43.31319" lon="-0.36869">
        <ele>207.18</ele>
        <time>2022-05-22T07:08:43.000Z</time>
      </trkpt>
      <trkpt lat="43.31324" lon="-0.36898">
        <ele>207.13</ele>
        <time>2022-05-22T07:08:47.000Z</time>
      </trkpt>
      <trkpt lat="43.31337" lon="-0.36922">
        <ele>207.67</ele>
        <time>2022-05-22T07:08:51.000Z</time>
      </trkpt>
      <trkpt lat="43.31352" lon="-0.36946">
        <ele>207.5</ele>
        <time>2022-05-22T07:08:55.000Z</time>
      </trkpt>
      <trkpt lat="43.31367" lon="-0.36969">
        <ele>208.31</ele>
        <time>2022-05-22T07:08:59.000Z</time>
      </trkpt>
      <trkpt lat="43.31381" lon="-0.3699">
        <ele>210.36</ele>
        <time>2022-05-22T07:09:03.000Z</time>
      </trkpt>
      <trkpt lat="43.31396" lon="-0.37012">
        <ele>210.13</ele>
        <time>2022-05-22T07:09:07.000Z</time>
      </trkpt>
      <trkpt lat="43.31414" lon="-0.37035">
        <ele>209.8</ele>
        <time>2022-05-22T07:09:11.000Z</time>
      </trkpt>
      <trkpt lat="43.31428" lon="-0.37051">
        <ele>209.39</ele>
        <time>2022-05-22T07:09:14.000Z</time>
      </trkpt>
      <trkpt lat="43.31442" lon="-0.37069">
        <ele>208.54</ele>
        <time>2022-05-22T07:09:17.000Z</time>
      </trkpt>
      <trkpt lat="43.31455" lon="-0.37086">
        <ele>208.71</ele>
        <time>2022-05-22T07:09:20.000Z</time>
      </trkpt>
      <trkpt lat="43.31468" lon="-0.37105">
        <ele>209.33</ele>
        <time>2022-05-22T07:09:23.000Z</time>
      </trkpt>
      <trkpt lat="43.31481" lon="-0.37124">
        <ele>209.7</ele>
        <time>2022-05-22T07:09:26.000Z</time>
      </trkpt>
      <trkpt lat="43.31494" lon="-0.37143">
        <ele>209.64</ele>
        <time>2022-05-22T07:09:29.000Z</time>
      </trkpt>
      <trkpt lat="43.31507" lon="-0.37165">
        <ele>208.9</ele>
        <time>2022-05-22T07:09:32.000Z</time>
      </trkpt>
      <trkpt lat="43.31518" lon="-0.37187">
        <ele>209.28</ele>
        <time>2022-05-22T07:09:35.000Z</time>
      </trkpt>
      <trkpt lat="43.31528" lon="-0.37209">
        <ele>208.7</ele>
        <time>2022-05-22T07:09:38.000Z</time>
      </trkpt>
      <trkpt lat="43.31538" lon="-0.37231">
        <ele>207.8</ele>
        <time>2022-05-22T07:09:41.000Z</time>
      </trkpt>
      <trkpt lat="43.31548" lon="-0.37253">
        <ele>207.42</ele>
        <time>2022-05-22T07:09:44.000Z</time>
      </trkpt>
      <trkpt lat="43.31558" lon="-0.37276">
        <ele>206.58</ele>
        <time>2022-05-22T07:09:47.000Z</time>
      </trkpt>
      <trkpt lat="43.31568" lon="-0.37298">
        <ele>206.42</ele>
        <time>2022-05-22T07:09:50.000Z</time>
      </trkpt>
      <trkpt lat="43.31577" lon="-0.37319">
        <ele>206.43</ele>
        <time>2022-05-22T07:09:53.000Z</time>
      </trkpt>
      <trkpt lat="43.31587" lon="-0.37342">
        <ele>206.02</ele>
        <time>2022-05-22T07:09:56.000Z</time>
      </trkpt>
      <trkpt lat="43.31598" lon="-0.37365">
        <ele>204.92</ele>
        <time>2022-05-22T07:09:59.000Z</time>
      </trkpt>
      <trkpt lat="43.31607" lon="-0.37388">
        <ele>204.61</ele>
        <time>2022-05-22T07:10:02.000Z</time>
      </trkpt>
      <trkpt lat="43.31617" lon="-0.3741">
        <ele>205.8</ele>
        <time>2022-05-22T07:10:05.000Z</time>
      </trkpt>
      <trkpt lat="43.31627" lon="-0.37435">
        <ele>205.12</ele>
        <time>2022-05-22T07:10:08.000Z</time>
      </trkpt>
      <trkpt lat="43.31637" lon="-0.37457">
        <ele>203.05</ele>
        <time>2022-05-22T07:10:11.000Z</time>
      </trkpt>
      <trkpt lat="43.31652" lon="-0.37481">
        <ele>204.91</ele>
        <time>2022-05-22T07:10:15.000Z</time>
      </trkpt>
      <trkpt lat="43.3166" lon="-0.37506">
        <ele>205.11</ele>
        <time>2022-05-22T07:10:18.000Z</time>
      </trkpt>
      <trkpt lat="43.3167" lon="-0.37527">
        <ele>205.6</ele>
        <time>2022-05-22T07:10:21.000Z</time>
      </trkpt>
      <trkpt lat="43.31679" lon="-0.3755">
        <ele>205.54</ele>
        <time>2022-05-22T07:10:24.000Z</time>
      </trkpt>
      <trkpt lat="43.31688" lon="-0.37572">
        <ele>206.01</ele>
        <time>2022-05-22T07:10:27.000Z</time>
      </trkpt>
      <trkpt lat="43.31697" lon="-0.37595">
        <ele>206.03</ele>
        <time>2022-05-22T07:10:30.000Z</time>
      </trkpt>
      <trkpt lat="43.31707" lon="-0.37617">
        <ele>204.85</ele>
        <time>2022-05-22T07:10:33.000Z</time>
      </trkpt>
      <trkpt lat="43.31716" lon="-0.37638">
        <ele>204.54</ele>
        <time>2022-05-22T07:10:36.000Z</time>
      </trkpt>
      <trkpt lat="43.31727" lon="-0.37659">
        <ele>203.41</ele>
        <time>2022-05-22T07:10:39.000Z</time>
      </trkpt>
      <trkpt lat="43.31739" lon="-0.37684">
        <ele>201.75</ele>
        <time>2022-05-22T07:10:42.000Z</time>
      </trkpt>
      <trkpt lat="43.31749" lon="-0.37706">
        <ele>203.08</ele>
        <time>2022-05-22T07:10:45.000Z</time>
      </trkpt>
      <trkpt lat="43.31762" lon="-0.37734">
        <ele>203.05</ele>
        <time>2022-05-22T07:10:49.000Z</time>
      </trkpt>
      <trkpt lat="43.31774" lon="-0.37763">
        <ele>204.43</ele>
        <time>2022-05-22T07:10:53.000Z</time>
      </trkpt>
      <trkpt lat="43.31783" lon="-0.37785">
        <ele>203.7</ele>
        <time>2022-05-22T07:10:56.000Z</time>
      </trkpt>
      <trkpt lat="43.31795" lon="-0.37804">
        <ele>202.83</ele>
        <time>2022-05-22T07:10:59.000Z</time>
      </trkpt>
      <trkpt lat="43.31809" lon="-0.37826">
        <ele>204.7</ele>
        <time>2022-05-22T07:11:06.000Z</time>
      </trkpt>
      <trkpt lat="43.31823" lon="-0.37848">
        <ele>203.46</ele>
        <time>2022-05-22T07:11:11.000Z</time>
      </trkpt>
      <trkpt lat="43.31813" lon="-0.37869">
        <ele>202.93</ele>
        <time>2022-05-22T07:11:15.000Z</time>
      </trkpt>
      <trkpt lat="43.31794" lon="-0.37867">
        <ele>203.4</ele>
        <time>2022-05-22T07:11:19.000Z</time>
      </trkpt>
      <trkpt lat="43.31776" lon="-0.37855">
        <ele>204.27</ele>
        <time>2022-05-22T07:11:24.000Z</time>
      </trkpt>
      <trkpt lat="43.31773" lon="-0.37881">
        <ele>205.1</ele>
        <time>2022-05-22T07:11:32.000Z</time>
      </trkpt>
      <trkpt lat="43.31757" lon="-0.37896">
        <ele>204.42</ele>
        <time>2022-05-22T07:11:37.000Z</time>
      </trkpt>
      <trkpt lat="43.31741" lon="-0.37908">
        <ele>204.44</ele>
        <time>2022-05-22T07:11:41.000Z</time>
      </trkpt>
      <trkpt lat="43.31725" lon="-0.37921">
        <ele>204.43</ele>
        <time>2022-05-22T07:11:45.000Z</time>
      </trkpt>
      <trkpt lat="43.31706" lon="-0.37935">
        <ele>203.78</ele>
        <time>2022-05-22T07:11:50.000Z</time>
      </trkpt>
      <trkpt lat="43.31686" lon="-0.3795">
        <ele>204.86</ele>
        <time>2022-05-22T07:11:55.000Z</time>
      </trkpt>
      <trkpt lat="43.3167" lon="-0.37968">
        <ele>205.16</ele>
        <time>2022-05-22T07:12:00.000Z</time>
      </trkpt>
      <trkpt lat="43.31652" lon="-0.37978">
        <ele>204.06</ele>
        <time>2022-05-22T07:12:04.000Z</time>
      </trkpt>
      <trkpt lat="43.31634" lon="-0.3799">
        <ele>204.41</ele>
        <time>2022-05-22T07:12:08.000Z</time>
      </trkpt>
      <trkpt lat="43.31615" lon="-0.38003">
        <ele>203.61</ele>
        <time>2022-05-22T07:12:12.000Z</time>
      </trkpt>
      <trkpt lat="43.31597" lon="-0.38015">
        <ele>203.08</ele>
        <time>2022-05-22T07:12:16.000Z</time>
      </trkpt>
      <trkpt lat="43.31579" lon="-0.38028">
        <ele>202.67</ele>
        <time>2022-05-22T07:12:20.000Z</time>
      </trkpt>
      <trkpt lat="43.31562" lon="-0.38042">
        <ele>203.1</ele>
        <time>2022-05-22T07:12:24.000Z</time>
      </trkpt>
      <trkpt lat="43.31571" lon="-0.38069">
        <ele>203.83</ele>
        <time>2022-05-22T07:12:29.000Z</time>
      </trkpt>
      <trkpt lat="43.31581" lon="-0.38093">
        <ele>203.97</ele>
        <time>2022-05-22T07:12:33.000Z</time>
      </trkpt>
      <trkpt lat="43.3159" lon="-0.38118">
        <ele>203.34</ele>
        <time>2022-05-22T07:12:37.000Z</time>
      </trkpt>
      <trkpt lat="43.31598" lon="-0.38141">
        <ele>203.07</ele>
        <time>2022-05-22T07:12:41.000Z</time>
      </trkpt>
      <trkpt lat="43.31607" lon="-0.38165">
        <ele>203.01</ele>
        <time>2022-05-22T07:12:45.000Z</time>
      </trkpt>
      <trkpt lat="43.31618" lon="-0.38191">
        <ele>202.53</ele>
        <time>2022-05-22T07:12:49.000Z</time>
      </trkpt>
      <trkpt lat="43.31627" lon="-0.38214">
        <ele>202.87</ele>
        <time>2022-05-22T07:12:53.000Z</time>
      </trkpt>
      <trkpt lat="43.31633" lon="-0.38239">
        <ele>203.32</ele>
        <time>2022-05-22T07:12:57.000Z</time>
      </trkpt>
      <trkpt lat="43.31635" lon="-0.38265">
        <ele>204.92</ele>
        <time>2022-05-22T07:13:01.000Z</time>
      </trkpt>
      <trkpt lat="43.31643" lon="-0.38288">
        <ele>205.57</ele>
        <time>2022-05-22T07:13:05.000Z</time>
      </trkpt>
      <trkpt lat="43.31653" lon="-0.38312">
        <ele>204.8</ele>
        <time>2022-05-22T07:13:09.000Z</time>
      </trkpt>
      <trkpt lat="43.31662" lon="-0.38337">
        <ele>205</ele>
        <time>2022-05-22T07:13:13.000Z</time>
      </trkpt>
      <trkpt lat="43.31671" lon="-0.38365">
        <ele>205.1</ele>
        <time>2022-05-22T07:13:17.000Z</time>
      </trkpt>
      <trkpt lat="43.31678" lon="-0.38391">
        <ele>205.76</ele>
        <time>2022-05-22T07:13:21.000Z</time>
      </trkpt>
      <trkpt lat="43.31687" lon="-0.38417">
        <ele>205.37</ele>
        <time>2022-05-22T07:13:25.000Z</time>
      </trkpt>
      <trkpt lat="43.31696" lon="-0.38442">
        <ele>206.11</ele>
        <time>2022-05-22T07:13:29.000Z</time>
      </trkpt>
      <trkpt lat="43.31703" lon="-0.3847">
        <ele>204.9</ele>
        <time>2022-05-22T07:13:33.000Z</time>
      </trkpt>
      <trkpt lat="43.31709" lon="-0.38497">
        <ele>204.5</ele>
        <time>2022-05-22T07:13:37.000Z</time>
      </trkpt>
      <trkpt lat="43.3171" lon="-0.38526">
        <ele>203.43</ele>
        <time>2022-05-22T07:13:41.000Z</time>
      </trkpt>
      <trkpt lat="43.317" lon="-0.3855">
        <ele>203</ele>
        <time>2022-05-22T07:13:45.000Z</time>
      </trkpt>
      <trkpt lat="43.31686" lon="-0.38569">
        <ele>203.14</ele>
        <time>2022-05-22T07:13:49.000Z</time>
      </trkpt>
      <trkpt lat="43.3167" lon="-0.38586">
        <ele>203.19</ele>
        <time>2022-05-22T07:13:53.000Z</time>
      </trkpt>
      <trkpt lat="43.31654" lon="-0.38602">
        <ele>201.95</ele>
        <time>2022-05-22T07:13:57.000Z</time>
      </trkpt>
      <trkpt lat="43.31639" lon="-0.38618">
        <ele>201.58</ele>
        <time>2022-05-22T07:14:01.000Z</time>
      </trkpt>
      <trkpt lat="43.3162" lon="-0.38633">
        <ele>201.82</ele>
        <time>2022-05-22T07:14:05.000Z</time>
      </trkpt>
      <trkpt lat="43.316" lon="-0.38642">
        <ele>201.71</ele>
        <time>2022-05-22T07:14:09.000Z</time>
      </trkpt>
      <trkpt lat="43.31581" lon="-0.3865">
        <ele>201.34</ele>
        <time>2022-05-22T07:14:13.000Z</time>
      </trkpt>
      <trkpt lat="43.31565" lon="-0.38668">
        <ele>200.44</ele>
        <time>2022-05-22T07:14:17.000Z</time>
      </trkpt>
      <trkpt lat="43.31555" lon="-0.3869">
        <ele>201.09</ele>
        <time>2022-05-22T07:14:21.000Z</time>
      </trkpt>
      <trkpt lat="43.31537" lon="-0.38695">
        <ele>200.66</ele>
        <time>2022-05-22T07:14:25.000Z</time>
      </trkpt>
      <trkpt lat="43.31518" lon="-0.38699">
        <ele>200.88</ele>
        <time>2022-05-22T07:14:29.000Z</time>
      </trkpt>
      <trkpt lat="43.31496" lon="-0.38706">
        <ele>201.4</ele>
        <time>2022-05-22T07:14:34.000Z</time>
      </trkpt>
      <trkpt lat="43.31475" lon="-0.38713">
        <ele>201.45</ele>
        <time>2022-05-22T07:14:38.000Z</time>
      </trkpt>
      <trkpt lat="43.31454" lon="-0.3872">
        <ele>201.56</ele>
        <time>2022-05-22T07:14:42.000Z</time>
      </trkpt>
      <trkpt lat="43.31435" lon="-0.3873">
        <ele>200.87</ele>
        <time>2022-05-22T07:14:46.000Z</time>
      </trkpt>
      <trkpt lat="43.31415" lon="-0.38737">
        <ele>201.22</ele>
        <time>2022-05-22T07:14:50.000Z</time>
      </trkpt>
      <trkpt lat="43.31395" lon="-0.38746">
        <ele>202.06</ele>
        <time>2022-05-22T07:14:54.000Z</time>
      </trkpt>
      <trkpt lat="43.31377" lon="-0.38749">
        <ele>202.61</ele>
        <time>2022-05-22T07:14:57.000Z</time>
      </trkpt>
      <trkpt lat="43.31356" lon="-0.38755">
        <ele>204.16</ele>
        <time>2022-05-22T07:15:01.000Z</time>
      </trkpt>
      <trkpt lat="43.31334" lon="-0.38762">
        <ele>203.87</ele>
        <time>2022-05-22T07:15:05.000Z</time>
      </trkpt>
      <trkpt lat="43.31314" lon="-0.38771">
        <ele>202.69</ele>
        <time>2022-05-22T07:15:09.000Z</time>
      </trkpt>
      <trkpt lat="43.31294" lon="-0.38779">
        <ele>201.67</ele>
        <time>2022-05-22T07:15:13.000Z</time>
      </trkpt>
      <trkpt lat="43.31274" lon="-0.3879">
        <ele>201.44</ele>
        <time>2022-05-22T07:15:17.000Z</time>
      </trkpt>
      <trkpt lat="43.31255" lon="-0.38804">
        <ele>200.55</ele>
        <time>2022-05-22T07:15:21.000Z</time>
      </trkpt>
      <trkpt lat="43.31237" lon="-0.3882">
        <ele>199.95</ele>
        <time>2022-05-22T07:15:25.000Z</time>
      </trkpt>
      <trkpt lat="43.31217" lon="-0.38835">
        <ele>198.06</ele>
        <time>2022-05-22T07:15:29.000Z</time>
      </trkpt>
      <trkpt lat="43.31198" lon="-0.38854">
        <ele>197.41</ele>
        <time>2022-05-22T07:15:33.000Z</time>
      </trkpt>
      <trkpt lat="43.31182" lon="-0.38868">
        <ele>197.25</ele>
        <time>2022-05-22T07:15:36.000Z</time>
      </trkpt>
      <trkpt lat="43.31165" lon="-0.3889">
        <ele>197.58</ele>
        <time>2022-05-22T07:15:40.000Z</time>
      </trkpt>
      <trkpt lat="43.31151" lon="-0.38907">
        <ele>197.07</ele>
        <time>2022-05-22T07:15:44.000Z</time>
      </trkpt>
      <trkpt lat="43.31143" lon="-0.38933">
        <ele>198.54</ele>
        <time>2022-05-22T07:15:50.000Z</time>
      </trkpt>
      <trkpt lat="43.31135" lon="-0.38957">
        <ele>198.26</ele>
        <time>2022-05-22T07:15:55.000Z</time>
      </trkpt>
      <trkpt lat="43.31125" lon="-0.38978">
        <ele>197.43</ele>
        <time>2022-05-22T07:15:59.000Z</time>
      </trkpt>
      <trkpt lat="43.31114" lon="-0.39002">
        <ele>195.07</ele>
        <time>2022-05-22T07:16:03.000Z</time>
      </trkpt>
      <trkpt lat="43.31101" lon="-0.39024">
        <ele>192.71</ele>
        <time>2022-05-22T07:16:07.000Z</time>
      </trkpt>
      <trkpt lat="43.31089" lon="-0.39044">
        <ele>189.56</ele>
        <time>2022-05-22T07:16:10.000Z</time>
      </trkpt>
      <trkpt lat="43.31077" lon="-0.39066">
        <ele>189.04</ele>
        <time>2022-05-22T07:16:13.000Z</time>
      </trkpt>
      <trkpt lat="43.31066" lon="-0.39085">
        <ele>188.15</ele>
        <time>2022-05-22T07:16:16.000Z</time>
      </trkpt>
      <trkpt lat="43.31049" lon="-0.39108">
        <ele>186.83</ele>
        <time>2022-05-22T07:16:20.000Z</time>
      </trkpt>
      <trkpt lat="43.31035" lon="-0.39132">
        <ele>185.67</ele>
        <time>2022-05-22T07:16:24.000Z</time>
      </trkpt>
      <trkpt lat="43.31018" lon="-0.39157">
        <ele>184.71</ele>
        <time>2022-05-22T07:16:28.000Z</time>
      </trkpt>
      <trkpt lat="43.31005" lon="-0.39176">
        <ele>182.66</ele>
        <time>2022-05-22T07:16:31.000Z</time>
      </trkpt>
      <trkpt lat="43.30994" lon="-0.39198">
        <ele>183.82</ele>
        <time>2022-05-22T07:16:34.000Z</time>
      </trkpt>
      <trkpt lat="43.30983" lon="-0.39222">
        <ele>183.89</ele>
        <time>2022-05-22T07:16:37.000Z</time>
      </trkpt>
      <trkpt lat="43.30972" lon="-0.39247">
        <ele>183.05</ele>
        <time>2022-05-22T07:16:40.000Z</time>
      </trkpt>
      <trkpt lat="43.30958" lon="-0.3927">
        <ele>180.72</ele>
        <time>2022-05-22T07:16:43.000Z</time>
      </trkpt>
      <trkpt lat="43.30947" lon="-0.39295">
        <ele>181.39</ele>
        <time>2022-05-22T07:16:46.000Z</time>
      </trkpt>
      <trkpt lat="43.30938" lon="-0.39321">
        <ele>182.24</ele>
        <time>2022-05-22T07:16:49.000Z</time>
      </trkpt>
      <trkpt lat="43.30926" lon="-0.39346">
        <ele>184.54</ele>
        <time>2022-05-22T07:16:52.000Z</time>
      </trkpt>
      <trkpt lat="43.30912" lon="-0.39365">
        <ele>182.14</ele>
        <time>2022-05-22T07:16:55.000Z</time>
      </trkpt>
      <trkpt lat="43.30896" lon="-0.39382">
        <ele>181.09</ele>
        <time>2022-05-22T07:16:58.000Z</time>
      </trkpt>
      <trkpt lat="43.30883" lon="-0.39403">
        <ele>180.87</ele>
        <time>2022-05-22T07:17:01.000Z</time>
      </trkpt>
      <trkpt lat="43.30874" lon="-0.39429">
        <ele>181.4</ele>
        <time>2022-05-22T07:17:04.000Z</time>
      </trkpt>
      <trkpt lat="43.30869" lon="-0.39457">
        <ele>180.65</ele>
        <time>2022-05-22T07:17:07.000Z</time>
      </trkpt>
      <trkpt lat="43.30859" lon="-0.39484">
        <ele>180.48</ele>
        <time>2022-05-22T07:17:10.000Z</time>
      </trkpt>
      <trkpt lat="43.30851" lon="-0.39512">
        <ele>177.9</ele>
        <time>2022-05-22T07:17:13.000Z</time>
      </trkpt>
      <trkpt lat="43.30841" lon="-0.39535">
        <ele>178.24</ele>
        <time>2022-05-22T07:17:16.000Z</time>
      </trkpt>
      <trkpt lat="43.3083" lon="-0.39558">
        <ele>177.31</ele>
        <time>2022-05-22T07:17:19.000Z</time>
      </trkpt>
      <trkpt lat="43.30821" lon="-0.39583">
        <ele>177.01</ele>
        <time>2022-05-22T07:17:22.000Z</time>
      </trkpt>
      <trkpt lat="43.30813" lon="-0.39607">
        <ele>176.05</ele>
        <time>2022-05-22T07:17:25.000Z</time>
      </trkpt>
      <trkpt lat="43.30802" lon="-0.39631">
        <ele>175.22</ele>
        <time>2022-05-22T07:17:28.000Z</time>
      </trkpt>
      <trkpt lat="43.30786" lon="-0.39656">
        <ele>173.23</ele>
        <time>2022-05-22T07:17:31.000Z</time>
      </trkpt>
      <trkpt lat="43.30772" lon="-0.39682">
        <ele>172.23</ele>
        <time>2022-05-22T07:17:34.000Z</time>
      </trkpt>
      <trkpt lat="43.30756" lon="-0.39705">
        <ele>172.38</ele>
        <time>2022-05-22T07:17:37.000Z</time>
      </trkpt>
      <trkpt lat="43.30741" lon="-0.39729">
        <ele>171.87</ele>
        <time>2022-05-22T07:17:40.000Z</time>
      </trkpt>
      <trkpt lat="43.30725" lon="-0.39752">
        <ele>172.55</ele>
        <time>2022-05-22T07:17:43.000Z</time>
      </trkpt>
      <trkpt lat="43.30716" lon="-0.39779">
        <ele>170.28</ele>
        <time>2022-05-22T07:17:46.000Z</time>
      </trkpt>
      <trkpt lat="43.30704" lon="-0.39803">
        <ele>170.18</ele>
        <time>2022-05-22T07:17:49.000Z</time>
      </trkpt>
      <trkpt lat="43.30691" lon="-0.39823">
        <ele>170.75</ele>
        <time>2022-05-22T07:17:52.000Z</time>
      </trkpt>
      <trkpt lat="43.307" lon="-0.39844">
        <ele>170.71</ele>
        <time>2022-05-22T07:18:00.000Z</time>
      </trkpt>
      <trkpt lat="43.30712" lon="-0.39864">
        <ele>170.48</ele>
        <time>2022-05-22T07:18:04.000Z</time>
      </trkpt>
      <trkpt lat="43.3071" lon="-0.39895">
        <ele>169.35</ele>
        <time>2022-05-22T07:18:08.000Z</time>
      </trkpt>
      <trkpt lat="43.30692" lon="-0.39915">
        <ele>169.15</ele>
        <time>2022-05-22T07:18:12.000Z</time>
      </trkpt>
      <trkpt lat="43.30677" lon="-0.39928">
        <ele>169.02</ele>
        <time>2022-05-22T07:18:15.000Z</time>
      </trkpt>
      <trkpt lat="43.30666" lon="-0.39949">
        <ele>168.95</ele>
        <time>2022-05-22T07:18:18.000Z</time>
      </trkpt>
      <trkpt lat="43.30655" lon="-0.39969">
        <ele>168.58</ele>
        <time>2022-05-22T07:18:21.000Z</time>
      </trkpt>
      <trkpt lat="43.30643" lon="-0.3999">
        <ele>168.61</ele>
        <time>2022-05-22T07:18:24.000Z</time>
      </trkpt>
      <trkpt lat="43.30628" lon="-0.40016">
        <ele>167.5</ele>
        <time>2022-05-22T07:18:28.000Z</time>
      </trkpt>
      <trkpt lat="43.30616" lon="-0.40035">
        <ele>167.24</ele>
        <time>2022-05-22T07:18:31.000Z</time>
      </trkpt>
      <trkpt lat="43.30603" lon="-0.40055">
        <ele>167.4</ele>
        <time>2022-05-22T07:18:34.000Z</time>
      </trkpt>
      <trkpt lat="43.30591" lon="-0.40074">
        <ele>167.42</ele>
        <time>2022-05-22T07:18:37.000Z</time>
      </trkpt>
      <trkpt lat="43.30579" lon="-0.40093">
        <ele>168.21</ele>
        <time>2022-05-22T07:18:40.000Z</time>
      </trkpt>
      <trkpt lat="43.30562" lon="-0.40117">
        <ele>168.77</ele>
        <time>2022-05-22T07:18:44.000Z</time>
      </trkpt>
      <trkpt lat="43.30545" lon="-0.40137">
        <ele>168.28</ele>
        <time>2022-05-22T07:18:48.000Z</time>
      </trkpt>
      <trkpt lat="43.30528" lon="-0.40156">
        <ele>167.24</ele>
        <time>2022-05-22T07:18:52.000Z</time>
      </trkpt>
      <trkpt lat="43.30518" lon="-0.40178">
        <ele>165.43</ele>
        <time>2022-05-22T07:18:55.000Z</time>
      </trkpt>
      <trkpt lat="43.30501" lon="-0.40189">
        <ele>165.06</ele>
        <time>2022-05-22T07:18:58.000Z</time>
      </trkpt>
      <trkpt lat="43.30478" lon="-0.40185">
        <ele>165.29</ele>
        <time>2022-05-22T07:19:02.000Z</time>
      </trkpt>
      <trkpt lat="43.30456" lon="-0.40186">
        <ele>164.46</ele>
        <time>2022-05-22T07:19:06.000Z</time>
      </trkpt>
      <trkpt lat="43.30435" lon="-0.40201">
        <ele>163.97</ele>
        <time>2022-05-22T07:19:10.000Z</time>
      </trkpt>
      <trkpt lat="43.3042" lon="-0.40223">
        <ele>164.81</ele>
        <time>2022-05-22T07:19:14.000Z</time>
      </trkpt>
      <trkpt lat="43.30407" lon="-0.40243">
        <ele>167.01</ele>
        <time>2022-05-22T07:19:18.000Z</time>
      </trkpt>
      <trkpt lat="43.30397" lon="-0.40263">
        <ele>168.43</ele>
        <time>2022-05-22T07:19:22.000Z</time>
      </trkpt>
      <trkpt lat="43.30385" lon="-0.40287">
        <ele>169.38</ele>
        <time>2022-05-22T07:19:27.000Z</time>
      </trkpt>
      <trkpt lat="43.30374" lon="-0.40312">
        <ele>169.33</ele>
        <time>2022-05-22T07:19:32.000Z</time>
      </trkpt>
      <trkpt lat="43.30363" lon="-0.40337">
        <ele>170.38</ele>
        <time>2022-05-22T07:19:37.000Z</time>
      </trkpt>
      <trkpt lat="43.30352" lon="-0.40361">
        <ele>171.88</ele>
        <time>2022-05-22T07:19:41.000Z</time>
      </trkpt>
      <trkpt lat="43.3034" lon="-0.40381">
        <ele>171.29</ele>
        <time>2022-05-22T07:19:45.000Z</time>
      </trkpt>
      <trkpt lat="43.30329" lon="-0.40405">
        <ele>171.75</ele>
        <time>2022-05-22T07:19:49.000Z</time>
      </trkpt>
      <trkpt lat="43.30318" lon="-0.40429">
        <ele>170.95</ele>
        <time>2022-05-22T07:19:53.000Z</time>
      </trkpt>
      <trkpt lat="43.30306" lon="-0.40453">
        <ele>171.06</ele>
        <time>2022-05-22T07:19:57.000Z</time>
      </trkpt>
      <trkpt lat="43.30294" lon="-0.40478">
        <ele>168.49</ele>
        <time>2022-05-22T07:20:01.000Z</time>
      </trkpt>
      <trkpt lat="43.30283" lon="-0.40506">
        <ele>168.15</ele>
        <time>2022-05-22T07:20:05.000Z</time>
      </trkpt>
      <trkpt lat="43.30274" lon="-0.4053">
        <ele>168.32</ele>
        <time>2022-05-22T07:20:08.000Z</time>
      </trkpt>
      <trkpt lat="43.30263" lon="-0.40559">
        <ele>166.12</ele>
        <time>2022-05-22T07:20:12.000Z</time>
      </trkpt>
      <trkpt lat="43.30255" lon="-0.40584">
        <ele>166.04</ele>
        <time>2022-05-22T07:20:15.000Z</time>
      </trkpt>
      <trkpt lat="43.30246" lon="-0.40607">
        <ele>166.33</ele>
        <time>2022-05-22T07:20:18.000Z</time>
      </trkpt>
      <trkpt lat="43.30237" lon="-0.40634">
        <ele>165.69</ele>
        <time>2022-05-22T07:20:21.000Z</time>
      </trkpt>
      <trkpt lat="43.30228" lon="-0.4066">
        <ele>165.35</ele>
        <time>2022-05-22T07:20:24.000Z</time>
      </trkpt>
      <trkpt lat="43.30219" lon="-0.40688">
        <ele>165.33</ele>
        <time>2022-05-22T07:20:27.000Z</time>
      </trkpt>
      <trkpt lat="43.3021" lon="-0.40716">
        <ele>165.48</ele>
        <time>2022-05-22T07:20:30.000Z</time>
      </trkpt>
      <trkpt lat="43.302" lon="-0.40744">
        <ele>164.87</ele>
        <time>2022-05-22T07:20:33.000Z</time>
      </trkpt>
      <trkpt lat="43.3019" lon="-0.40772">
        <ele>165.12</ele>
        <time>2022-05-22T07:20:36.000Z</time>
      </trkpt>
      <trkpt lat="43.30179" lon="-0.40799">
        <ele>165.11</ele>
        <time>2022-05-22T07:20:39.000Z</time>
      </trkpt>
      <trkpt lat="43.30169" lon="-0.40825">
        <ele>165.53</ele>
        <time>2022-05-22T07:20:42.000Z</time>
      </trkpt>
      <trkpt lat="43.30158" lon="-0.4085">
        <ele>165.67</ele>
        <time>2022-05-22T07:20:45.000Z</time>
      </trkpt>
      <trkpt lat="43.30149" lon="-0.40875">
        <ele>165.6</ele>
        <time>2022-05-22T07:20:48.000Z</time>
      </trkpt>
      <trkpt lat="43.30138" lon="-0.40899">
        <ele>164.45</ele>
        <time>2022-05-22T07:20:51.000Z</time>
      </trkpt>
      <trkpt lat="43.3013" lon="-0.40924">
        <ele>164.77</ele>
        <time>2022-05-22T07:20:54.000Z</time>
      </trkpt>
      <trkpt lat="43.30126" lon="-0.4095">
        <ele>164.85</ele>
        <time>2022-05-22T07:20:57.000Z</time>
      </trkpt>
      <trkpt lat="43.30129" lon="-0.40975">
        <ele>165.38</ele>
        <time>2022-05-22T07:21:00.000Z</time>
      </trkpt>
      <trkpt lat="43.30128" lon="-0.41001">
        <ele>165.31</ele>
        <time>2022-05-22T07:21:03.000Z</time>
      </trkpt>
      <trkpt lat="43.30116" lon="-0.41022">
        <ele>165.42</ele>
        <time>2022-05-22T07:21:06.000Z</time>
      </trkpt>
      <trkpt lat="43.30098" lon="-0.41031">
        <ele>164.55</ele>
        <time>2022-05-22T07:21:09.000Z</time>
      </trkpt>
      <trkpt lat="43.3008" lon="-0.41031">
        <ele>164.58</ele>
        <time>2022-05-22T07:21:12.000Z</time>
      </trkpt>
      <trkpt lat="43.30062" lon="-0.41038">
        <ele>164.28</ele>
        <time>2022-05-22T07:21:15.000Z</time>
      </trkpt>
      <trkpt lat="43.30046" lon="-0.4105">
        <ele>164.1</ele>
        <time>2022-05-22T07:21:18.000Z</time>
      </trkpt>
      <trkpt lat="43.30028" lon="-0.41061">
        <ele>164.18</ele>
        <time>2022-05-22T07:21:21.000Z</time>
      </trkpt>
      <trkpt lat="43.30011" lon="-0.41071">
        <ele>165.07</ele>
        <time>2022-05-22T07:21:24.000Z</time>
      </trkpt>
      <trkpt lat="43.29993" lon="-0.4108">
        <ele>165.62</ele>
        <time>2022-05-22T07:21:27.000Z</time>
      </trkpt>
      <trkpt lat="43.29974" lon="-0.41087">
        <ele>164.79</ele>
        <time>2022-05-22T07:21:30.000Z</time>
      </trkpt>
      <trkpt lat="43.29955" lon="-0.41092">
        <ele>164.2</ele>
        <time>2022-05-22T07:21:33.000Z</time>
      </trkpt>
      <trkpt lat="43.29937" lon="-0.41097">
        <ele>163.79</ele>
        <time>2022-05-22T07:21:36.000Z</time>
      </trkpt>
      <trkpt lat="43.29919" lon="-0.41103">
        <ele>163.51</ele>
        <time>2022-05-22T07:21:39.000Z</time>
      </trkpt>
      <trkpt lat="43.29901" lon="-0.41111">
        <ele>163.7</ele>
        <time>2022-05-22T07:21:42.000Z</time>
      </trkpt>
      <trkpt lat="43.29879" lon="-0.41126">
        <ele>166.31</ele>
        <time>2022-05-22T07:21:46.000Z</time>
      </trkpt>
      <trkpt lat="43.29859" lon="-0.41141">
        <ele>164.38</ele>
        <time>2022-05-22T07:21:50.000Z</time>
      </trkpt>
      <trkpt lat="43.29841" lon="-0.41159">
        <ele>164.19</ele>
        <time>2022-05-22T07:21:54.000Z</time>
      </trkpt>
      <trkpt lat="43.29822" lon="-0.41177">
        <ele>164.61</ele>
        <time>2022-05-22T07:21:58.000Z</time>
      </trkpt>
      <trkpt lat="43.29805" lon="-0.41197">
        <ele>165.33</ele>
        <time>2022-05-22T07:22:02.000Z</time>
      </trkpt>
      <trkpt lat="43.29788" lon="-0.41218">
        <ele>164.91</ele>
        <time>2022-05-22T07:22:06.000Z</time>
      </trkpt>
      <trkpt lat="43.29772" lon="-0.41241">
        <ele>165.4</ele>
        <time>2022-05-22T07:22:10.000Z</time>
      </trkpt>
      <trkpt lat="43.29757" lon="-0.41264">
        <ele>165.89</ele>
        <time>2022-05-22T07:22:14.000Z</time>
      </trkpt>
      <trkpt lat="43.29743" lon="-0.41285">
        <ele>166.5</ele>
        <time>2022-05-22T07:22:18.000Z</time>
      </trkpt>
      <trkpt lat="43.29729" lon="-0.41307">
        <ele>167.12</ele>
        <time>2022-05-22T07:22:22.000Z</time>
      </trkpt>
      <trkpt lat="43.29714" lon="-0.41329">
        <ele>166.29</ele>
        <time>2022-05-22T07:22:26.000Z</time>
      </trkpt>
      <trkpt lat="43.29699" lon="-0.41351">
        <ele>166.13</ele>
        <time>2022-05-22T07:22:30.000Z</time>
      </trkpt>
      <trkpt lat="43.29686" lon="-0.41373">
        <ele>165.69</ele>
        <time>2022-05-22T07:22:34.000Z</time>
      </trkpt>
      <trkpt lat="43.29671" lon="-0.41393">
        <ele>165.16</ele>
        <time>2022-05-22T07:22:38.000Z</time>
      </trkpt>
      <trkpt lat="43.29659" lon="-0.41413">
        <ele>163.74</ele>
        <time>2022-05-22T07:22:42.000Z</time>
      </trkpt>
      <trkpt lat="43.29646" lon="-0.41433">
        <ele>164.18</ele>
        <time>2022-05-22T07:22:46.000Z</time>
      </trkpt>
      <trkpt lat="43.29633" lon="-0.41455">
        <ele>164.57</ele>
        <time>2022-05-22T07:22:51.000Z</time>
      </trkpt>
      <trkpt lat="43.29652" lon="-0.41466">
        <ele>162.99</ele>
        <time>2022-05-22T07:22:58.000Z</time>
      </trkpt>
      <trkpt lat="43.29671" lon="-0.41452">
        <ele>160.07</ele>
        <time>2022-05-22T07:23:01.000Z</time>
      </trkpt>
      <trkpt lat="43.2969" lon="-0.41445">
        <ele>161.49</ele>
        <time>2022-05-22T07:23:04.000Z</time>
      </trkpt>
      <trkpt lat="43.29711" lon="-0.41458">
        <ele>162.96</ele>
        <time>2022-05-22T07:23:09.000Z</time>
      </trkpt>
      <trkpt lat="43.29724" lon="-0.41482">
        <ele>160.54</ele>
        <time>2022-05-22T07:23:13.000Z</time>
      </trkpt>
      <trkpt lat="43.29739" lon="-0.415">
        <ele>160.24</ele>
        <time>2022-05-22T07:23:17.000Z</time>
      </trkpt>
      <trkpt lat="43.29754" lon="-0.41521">
        <ele>162.02</ele>
        <time>2022-05-22T07:23:21.000Z</time>
      </trkpt>
      <trkpt lat="43.29763" lon="-0.41545">
        <ele>164.8</ele>
        <time>2022-05-22T07:23:25.000Z</time>
      </trkpt>
      <trkpt lat="43.2977" lon="-0.41573">
        <ele>163.93</ele>
        <time>2022-05-22T07:23:29.000Z</time>
      </trkpt>
      <trkpt lat="43.2978" lon="-0.41598">
        <ele>166.32</ele>
        <time>2022-05-22T07:23:33.000Z</time>
      </trkpt>
      <trkpt lat="43.29789" lon="-0.41619">
        <ele>165.75</ele>
        <time>2022-05-22T07:23:37.000Z</time>
      </trkpt>
      <trkpt lat="43.29796" lon="-0.41645">
        <ele>165.61</ele>
        <time>2022-05-22T07:23:41.000Z</time>
      </trkpt>
      <trkpt lat="43.29795" lon="-0.41674">
        <ele>166.52</ele>
        <time>2022-05-22T07:23:45.000Z</time>
      </trkpt>
      <trkpt lat="43.29798" lon="-0.41699">
        <ele>163.44</ele>
        <time>2022-05-22T07:23:48.000Z</time>
      </trkpt>
      <trkpt lat="43.29806" lon="-0.41726">
        <ele>164.34</ele>
        <time>2022-05-22T07:23:52.000Z</time>
      </trkpt>
      <trkpt lat="43.29813" lon="-0.41751">
        <ele>161.68</ele>
        <time>2022-05-22T07:23:55.000Z</time>
      </trkpt>
      <trkpt lat="43.29815" lon="-0.41781">
        <ele>161.75</ele>
        <time>2022-05-22T07:23:59.000Z</time>
      </trkpt>
      <trkpt lat="43.2982" lon="-0.41805">
        <ele>159.98</ele>
        <time>2022-05-22T07:24:03.000Z</time>
      </trkpt>
      <trkpt lat="43.29837" lon="-0.41821">
        <ele>163.98</ele>
        <time>2022-05-22T07:24:07.000Z</time>
      </trkpt>
      <trkpt lat="43.29849" lon="-0.41849">
        <ele>161.21</ele>
        <time>2022-05-22T07:24:10.000Z</time>
      </trkpt>
      <trkpt lat="43.29856" lon="-0.41877">
        <ele>162.13</ele>
        <time>2022-05-22T07:24:14.000Z</time>
      </trkpt>
      <trkpt lat="43.29862" lon="-0.41901">
        <ele>161.5</ele>
        <time>2022-05-22T07:24:17.000Z</time>
      </trkpt>
      <trkpt lat="43.29876" lon="-0.41928">
        <ele>164.1</ele>
        <time>2022-05-22T07:24:21.000Z</time>
      </trkpt>
      <trkpt lat="43.29895" lon="-0.41952">
        <ele>164.57</ele>
        <time>2022-05-22T07:24:25.000Z</time>
      </trkpt>
      <trkpt lat="43.2991" lon="-0.41973">
        <ele>165.02</ele>
        <time>2022-05-22T07:24:29.000Z</time>
      </trkpt>
      <trkpt lat="43.29921" lon="-0.41993">
        <ele>165.54</ele>
        <time>2022-05-22T07:24:32.000Z</time>
      </trkpt>
      <trkpt lat="43.29932" lon="-0.42015">
        <ele>164.24</ele>
        <time>2022-05-22T07:24:35.000Z</time>
      </trkpt>
      <trkpt lat="43.29942" lon="-0.42038">
        <ele>162.19</ele>
        <time>2022-05-22T07:24:38.000Z</time>
      </trkpt>
      <trkpt lat="43.29954" lon="-0.4206">
        <ele>161.43</ele>
        <time>2022-05-22T07:24:41.000Z</time>
      </trkpt>
      <trkpt lat="43.29959" lon="-0.42084">
        <ele>162.49</ele>
        <time>2022-05-22T07:24:44.000Z</time>
      </trkpt>
      <trkpt lat="43.29967" lon="-0.42107">
        <ele>163.1</ele>
        <time>2022-05-22T07:24:47.000Z</time>
      </trkpt>
      <trkpt lat="43.29975" lon="-0.42131">
        <ele>162.55</ele>
        <time>2022-05-22T07:24:50.000Z</time>
      </trkpt>
      <trkpt lat="43.29983" lon="-0.42155">
        <ele>161.47</ele>
        <time>2022-05-22T07:24:53.000Z</time>
      </trkpt>
      <trkpt lat="43.2999" lon="-0.4218">
        <ele>160.96</ele>
        <time>2022-05-22T07:24:56.000Z</time>
      </trkpt>
      <trkpt lat="43.29994" lon="-0.42213">
        <ele>160.76</ele>
        <time>2022-05-22T07:25:00.000Z</time>
      </trkpt>
      <trkpt lat="43.29993" lon="-0.42239">
        <ele>159.17</ele>
        <time>2022-05-22T07:25:03.000Z</time>
      </trkpt>
      <trkpt lat="43.29997" lon="-0.42266">
        <ele>157.82</ele>
        <time>2022-05-22T07:25:06.000Z</time>
      </trkpt>
      <trkpt lat="43.30002" lon="-0.42296">
        <ele>159.84</ele>
        <time>2022-05-22T07:25:10.000Z</time>
      </trkpt>
      <trkpt lat="43.3001" lon="-0.42319">
        <ele>160.86</ele>
        <time>2022-05-22T07:25:13.000Z</time>
      </trkpt>
      <trkpt lat="43.30016" lon="-0.42343">
        <ele>160.49</ele>
        <time>2022-05-22T07:25:16.000Z</time>
      </trkpt>
      <trkpt lat="43.30022" lon="-0.42373">
        <ele>160.13</ele>
        <time>2022-05-22T07:25:20.000Z</time>
      </trkpt>
      <trkpt lat="43.30032" lon="-0.42398">
        <ele>162.14</ele>
        <time>2022-05-22T07:25:24.000Z</time>
      </trkpt>
      <trkpt lat="43.3004" lon="-0.42427">
        <ele>164.18</ele>
        <time>2022-05-22T07:25:28.000Z</time>
      </trkpt>
      <trkpt lat="43.30049" lon="-0.42451">
        <ele>160</ele>
        <time>2022-05-22T07:25:31.000Z</time>
      </trkpt>
      <trkpt lat="43.30058" lon="-0.42478">
        <ele>160.81</ele>
        <time>2022-05-22T07:25:35.000Z</time>
      </trkpt>
      <trkpt lat="43.30069" lon="-0.42504">
        <ele>161.31</ele>
        <time>2022-05-22T07:25:39.000Z</time>
      </trkpt>
      <trkpt lat="43.30081" lon="-0.42523">
        <ele>160.44</ele>
        <time>2022-05-22T07:25:42.000Z</time>
      </trkpt>
      <trkpt lat="43.30092" lon="-0.42545">
        <ele>159.92</ele>
        <time>2022-05-22T07:25:45.000Z</time>
      </trkpt>
      <trkpt lat="43.30101" lon="-0.42567">
        <ele>159.96</ele>
        <time>2022-05-22T07:25:48.000Z</time>
      </trkpt>
      <trkpt lat="43.30111" lon="-0.42596">
        <ele>160.15</ele>
        <time>2022-05-22T07:25:52.000Z</time>
      </trkpt>
      <trkpt lat="43.30121" lon="-0.42622">
        <ele>161.6</ele>
        <time>2022-05-22T07:25:56.000Z</time>
      </trkpt>
      <trkpt lat="43.30128" lon="-0.42646">
        <ele>162.31</ele>
        <time>2022-05-22T07:25:59.000Z</time>
      </trkpt>
      <trkpt lat="43.30133" lon="-0.4267">
        <ele>159.84</ele>
        <time>2022-05-22T07:26:02.000Z</time>
      </trkpt>
      <trkpt lat="43.30141" lon="-0.42695">
        <ele>158.56</ele>
        <time>2022-05-22T07:26:05.000Z</time>
      </trkpt>
      <trkpt lat="43.30148" lon="-0.42723">
        <ele>160.49</ele>
        <time>2022-05-22T07:26:09.000Z</time>
      </trkpt>
      <trkpt lat="43.30152" lon="-0.4275">
        <ele>159.6</ele>
        <time>2022-05-22T07:26:12.000Z</time>
      </trkpt>
      <trkpt lat="43.30158" lon="-0.42773">
        <ele>158.85</ele>
        <time>2022-05-22T07:26:15.000Z</time>
      </trkpt>
      <trkpt lat="43.30164" lon="-0.42803">
        <ele>160.58</ele>
        <time>2022-05-22T07:26:19.000Z</time>
      </trkpt>
      <trkpt lat="43.30174" lon="-0.42826">
        <ele>161.07</ele>
        <time>2022-05-22T07:26:22.000Z</time>
      </trkpt>
      <trkpt lat="43.30177" lon="-0.42853">
        <ele>159.26</ele>
        <time>2022-05-22T07:26:25.000Z</time>
      </trkpt>
      <trkpt lat="43.30182" lon="-0.42885">
        <ele>159.98</ele>
        <time>2022-05-22T07:26:29.000Z</time>
      </trkpt>
      <trkpt lat="43.30192" lon="-0.42914">
        <ele>160.91</ele>
        <time>2022-05-22T07:26:33.000Z</time>
      </trkpt>
      <trkpt lat="43.30203" lon="-0.42943">
        <ele>160.62</ele>
        <time>2022-05-22T07:26:37.000Z</time>
      </trkpt>
      <trkpt lat="43.30213" lon="-0.42968">
        <ele>159.94</ele>
        <time>2022-05-22T07:26:40.000Z</time>
      </trkpt>
      <trkpt lat="43.30222" lon="-0.4299">
        <ele>161.75</ele>
        <time>2022-05-22T07:26:43.000Z</time>
      </trkpt>
      <trkpt lat="43.3023" lon="-0.43015">
        <ele>161.4</ele>
        <time>2022-05-22T07:26:46.000Z</time>
      </trkpt>
      <trkpt lat="43.30233" lon="-0.43042">
        <ele>159.92</ele>
        <time>2022-05-22T07:26:49.000Z</time>
      </trkpt>
      <trkpt lat="43.30237" lon="-0.43074">
        <ele>160.78</ele>
        <time>2022-05-22T07:26:53.000Z</time>
      </trkpt>
      <trkpt lat="43.30243" lon="-0.431">
        <ele>159.66</ele>
        <time>2022-05-22T07:26:56.000Z</time>
      </trkpt>
      <trkpt lat="43.30251" lon="-0.43126">
        <ele>161.4</ele>
        <time>2022-05-22T07:27:00.000Z</time>
      </trkpt>
      <trkpt lat="43.30259" lon="-0.43155">
        <ele>162.28</ele>
        <time>2022-05-22T07:27:04.000Z</time>
      </trkpt>
      <trkpt lat="43.30265" lon="-0.43186">
        <ele>163.1</ele>
        <time>2022-05-22T07:27:08.000Z</time>
      </trkpt>
      <trkpt lat="43.30273" lon="-0.43217">
        <ele>161.92</ele>
        <time>2022-05-22T07:27:12.000Z</time>
      </trkpt>
      <trkpt lat="43.3028" lon="-0.43246">
        <ele>160.3</ele>
        <time>2022-05-22T07:27:16.000Z</time>
      </trkpt>
      <trkpt lat="43.30292" lon="-0.43272">
        <ele>160.17</ele>
        <time>2022-05-22T07:27:20.000Z</time>
      </trkpt>
      <trkpt lat="43.30305" lon="-0.433">
        <ele>159.37</ele>
        <time>2022-05-22T07:27:24.000Z</time>
      </trkpt>
      <trkpt lat="43.30319" lon="-0.43326">
        <ele>158.39</ele>
        <time>2022-05-22T07:27:28.000Z</time>
      </trkpt>
      <trkpt lat="43.30329" lon="-0.43349">
        <ele>158.44</ele>
        <time>2022-05-22T07:27:31.000Z</time>
      </trkpt>
      <trkpt lat="43.30341" lon="-0.43375">
        <ele>159.64</ele>
        <time>2022-05-22T07:27:35.000Z</time>
      </trkpt>
      <trkpt lat="43.30352" lon="-0.43398">
        <ele>158.13</ele>
        <time>2022-05-22T07:27:38.000Z</time>
      </trkpt>
      <trkpt lat="43.30362" lon="-0.43421">
        <ele>157.57</ele>
        <time>2022-05-22T07:27:41.000Z</time>
      </trkpt>
      <trkpt lat="43.30373" lon="-0.4345">
        <ele>155.73</ele>
        <time>2022-05-22T07:27:45.000Z</time>
      </trkpt>
      <trkpt lat="43.30381" lon="-0.43482">
        <ele>153.96</ele>
        <time>2022-05-22T07:27:49.000Z</time>
      </trkpt>
      <trkpt lat="43.30373" lon="-0.43509">
        <ele>153.17</ele>
        <time>2022-05-22T07:27:53.000Z</time>
      </trkpt>
      <trkpt lat="43.30372" lon="-0.43534">
        <ele>154.58</ele>
        <time>2022-05-22T07:27:57.000Z</time>
      </trkpt>
      <trkpt lat="43.30384" lon="-0.43558">
        <ele>154.78</ele>
        <time>2022-05-22T07:28:02.000Z</time>
      </trkpt>
      <trkpt lat="43.30396" lon="-0.43578">
        <ele>156.9</ele>
        <time>2022-05-22T07:28:07.000Z</time>
      </trkpt>
      <trkpt lat="43.3041" lon="-0.43599">
        <ele>158.16</ele>
        <time>2022-05-22T07:28:11.000Z</time>
      </trkpt>
      <trkpt lat="43.30419" lon="-0.43624">
        <ele>158.05</ele>
        <time>2022-05-22T07:28:15.000Z</time>
      </trkpt>
      <trkpt lat="43.30428" lon="-0.4365">
        <ele>156.93</ele>
        <time>2022-05-22T07:28:19.000Z</time>
      </trkpt>
      <trkpt lat="43.30435" lon="-0.43676">
        <ele>156.12</ele>
        <time>2022-05-22T07:28:23.000Z</time>
      </trkpt>
      <trkpt lat="43.30443" lon="-0.43702">
        <ele>156.45</ele>
        <time>2022-05-22T07:28:27.000Z</time>
      </trkpt>
      <trkpt lat="43.30454" lon="-0.43727">
        <ele>156.82</ele>
        <time>2022-05-22T07:28:31.000Z</time>
      </trkpt>
      <trkpt lat="43.30466" lon="-0.43751">
        <ele>157.01</ele>
        <time>2022-05-22T07:28:35.000Z</time>
      </trkpt>
      <trkpt lat="43.30478" lon="-0.43774">
        <ele>156.17</ele>
        <time>2022-05-22T07:28:39.000Z</time>
      </trkpt>
      <trkpt lat="43.30486" lon="-0.43804">
        <ele>155.4</ele>
        <time>2022-05-22T07:28:43.000Z</time>
      </trkpt>
      <trkpt lat="43.3049" lon="-0.43835">
        <ele>154.89</ele>
        <time>2022-05-22T07:28:47.000Z</time>
      </trkpt>
      <trkpt lat="43.30501" lon="-0.43861">
        <ele>155.85</ele>
        <time>2022-05-22T07:28:51.000Z</time>
      </trkpt>
      <trkpt lat="43.30515" lon="-0.43886">
        <ele>156.73</ele>
        <time>2022-05-22T07:28:55.000Z</time>
      </trkpt>
      <trkpt lat="43.3053" lon="-0.43911">
        <ele>156.2</ele>
        <time>2022-05-22T07:28:59.000Z</time>
      </trkpt>
      <trkpt lat="43.30546" lon="-0.43934">
        <ele>158.17</ele>
        <time>2022-05-22T07:29:03.000Z</time>
      </trkpt>
      <trkpt lat="43.30559" lon="-0.43956">
        <ele>155.43</ele>
        <time>2022-05-22T07:29:06.000Z</time>
      </trkpt>
      <trkpt lat="43.30569" lon="-0.43977">
        <ele>155.11</ele>
        <time>2022-05-22T07:29:09.000Z</time>
      </trkpt>
      <trkpt lat="43.30585" lon="-0.43999">
        <ele>153.33</ele>
        <time>2022-05-22T07:29:12.000Z</time>
      </trkpt>
      <trkpt lat="43.30597" lon="-0.44019">
        <ele>152.82</ele>
        <time>2022-05-22T07:29:15.000Z</time>
      </trkpt>
      <trkpt lat="43.3061" lon="-0.44041">
        <ele>152.19</ele>
        <time>2022-05-22T07:29:18.000Z</time>
      </trkpt>
      <trkpt lat="43.30622" lon="-0.44062">
        <ele>152.23</ele>
        <time>2022-05-22T07:29:21.000Z</time>
      </trkpt>
      <trkpt lat="43.30634" lon="-0.44081">
        <ele>152.83</ele>
        <time>2022-05-22T07:29:24.000Z</time>
      </trkpt>
      <trkpt lat="43.30645" lon="-0.44102">
        <ele>153.43</ele>
        <time>2022-05-22T07:29:27.000Z</time>
      </trkpt>
      <trkpt lat="43.30659" lon="-0.44125">
        <ele>155.12</ele>
        <time>2022-05-22T07:29:31.000Z</time>
      </trkpt>
      <trkpt lat="43.30673" lon="-0.44148">
        <ele>156.27</ele>
        <time>2022-05-22T07:29:35.000Z</time>
      </trkpt>
      <trkpt lat="43.30687" lon="-0.4417">
        <ele>158.58</ele>
        <time>2022-05-22T07:29:39.000Z</time>
      </trkpt>
      <trkpt lat="43.30702" lon="-0.44194">
        <ele>158.76</ele>
        <time>2022-05-22T07:29:43.000Z</time>
      </trkpt>
      <trkpt lat="43.30714" lon="-0.44214">
        <ele>158.13</ele>
        <time>2022-05-22T07:29:46.000Z</time>
      </trkpt>
      <trkpt lat="43.30726" lon="-0.44241">
        <ele>157.88</ele>
        <time>2022-05-22T07:29:50.000Z</time>
      </trkpt>
      <trkpt lat="43.30735" lon="-0.44263">
        <ele>156.87</ele>
        <time>2022-05-22T07:29:53.000Z</time>
      </trkpt>
      <trkpt lat="43.30744" lon="-0.44293">
        <ele>156.37</ele>
        <time>2022-05-22T07:29:57.000Z</time>
      </trkpt>
      <trkpt lat="43.30754" lon="-0.44322">
        <ele>156.66</ele>
        <time>2022-05-22T07:30:01.000Z</time>
      </trkpt>
      <trkpt lat="43.30761" lon="-0.44353">
        <ele>157.31</ele>
        <time>2022-05-22T07:30:05.000Z</time>
      </trkpt>
      <trkpt lat="43.30767" lon="-0.44383">
        <ele>159.1</ele>
        <time>2022-05-22T07:30:09.000Z</time>
      </trkpt>
      <trkpt lat="43.30772" lon="-0.44414">
        <ele>159.67</ele>
        <time>2022-05-22T07:30:13.000Z</time>
      </trkpt>
      <trkpt lat="43.30777" lon="-0.44446">
        <ele>159.75</ele>
        <time>2022-05-22T07:30:17.000Z</time>
      </trkpt>
      <trkpt lat="43.30781" lon="-0.44471">
        <ele>158.13</ele>
        <time>2022-05-22T07:30:20.000Z</time>
      </trkpt>
      <trkpt lat="43.3079" lon="-0.44501">
        <ele>156.8</ele>
        <time>2022-05-22T07:30:24.000Z</time>
      </trkpt>
      <trkpt lat="43.30796" lon="-0.44531">
        <ele>156.33</ele>
        <time>2022-05-22T07:30:28.000Z</time>
      </trkpt>
      <trkpt lat="43.30805" lon="-0.4456">
        <ele>153.96</ele>
        <time>2022-05-22T07:30:32.000Z</time>
      </trkpt>
      <trkpt lat="43.30816" lon="-0.44579">
        <ele>154.24</ele>
        <time>2022-05-22T07:30:35.000Z</time>
      </trkpt>
      <trkpt lat="43.30823" lon="-0.44603">
        <ele>152.78</ele>
        <time>2022-05-22T07:30:38.000Z</time>
      </trkpt>
      <trkpt lat="43.30831" lon="-0.44632">
        <ele>153.75</ele>
        <time>2022-05-22T07:30:43.000Z</time>
      </trkpt>
      <trkpt lat="43.30849" lon="-0.44652">
        <ele>152.7</ele>
        <time>2022-05-22T07:30:47.000Z</time>
      </trkpt>
      <trkpt lat="43.30864" lon="-0.44669">
        <ele>153.21</ele>
        <time>2022-05-22T07:30:50.000Z</time>
      </trkpt>
      <trkpt lat="43.30876" lon="-0.44695">
        <ele>153.41</ele>
        <time>2022-05-22T07:30:54.000Z</time>
      </trkpt>
      <trkpt lat="43.3089" lon="-0.44719">
        <ele>152.56</ele>
        <time>2022-05-22T07:30:58.000Z</time>
      </trkpt>
      <trkpt lat="43.30908" lon="-0.44737">
        <ele>152.85</ele>
        <time>2022-05-22T07:31:02.000Z</time>
      </trkpt>
      <trkpt lat="43.30929" lon="-0.44748">
        <ele>153.78</ele>
        <time>2022-05-22T07:31:06.000Z</time>
      </trkpt>
      <trkpt lat="43.30947" lon="-0.44766">
        <ele>155.66</ele>
        <time>2022-05-22T07:31:10.000Z</time>
      </trkpt>
      <trkpt lat="43.3096" lon="-0.44791">
        <ele>154.64</ele>
        <time>2022-05-22T07:31:14.000Z</time>
      </trkpt>
      <trkpt lat="43.30972" lon="-0.44817">
        <ele>154.11</ele>
        <time>2022-05-22T07:31:18.000Z</time>
      </trkpt>
      <trkpt lat="43.30987" lon="-0.44839">
        <ele>153.93</ele>
        <time>2022-05-22T07:31:22.000Z</time>
      </trkpt>
      <trkpt lat="43.31004" lon="-0.44857">
        <ele>154.7</ele>
        <time>2022-05-22T07:31:26.000Z</time>
      </trkpt>
      <trkpt lat="43.3102" lon="-0.44877">
        <ele>155.5</ele>
        <time>2022-05-22T07:31:30.000Z</time>
      </trkpt>
      <trkpt lat="43.31039" lon="-0.44891">
        <ele>152.79</ele>
        <time>2022-05-22T07:31:34.000Z</time>
      </trkpt>
      <trkpt lat="43.31056" lon="-0.44903">
        <ele>154.23</ele>
        <time>2022-05-22T07:31:38.000Z</time>
      </trkpt>
      <trkpt lat="43.31073" lon="-0.44914">
        <ele>155.23</ele>
        <time>2022-05-22T07:31:41.000Z</time>
      </trkpt>
      <trkpt lat="43.31093" lon="-0.44927">
        <ele>155.43</ele>
        <time>2022-05-22T07:31:45.000Z</time>
      </trkpt>
      <trkpt lat="43.31112" lon="-0.4494">
        <ele>156.26</ele>
        <time>2022-05-22T07:31:49.000Z</time>
      </trkpt>
      <trkpt lat="43.3113" lon="-0.44956">
        <ele>154.89</ele>
        <time>2022-05-22T07:31:53.000Z</time>
      </trkpt>
      <trkpt lat="43.3115" lon="-0.4497">
        <ele>156.35</ele>
        <time>2022-05-22T07:31:57.000Z</time>
      </trkpt>
      <trkpt lat="43.31168" lon="-0.44987">
        <ele>153.37</ele>
        <time>2022-05-22T07:32:01.000Z</time>
      </trkpt>
      <trkpt lat="43.31186" lon="-0.45005">
        <ele>150.34</ele>
        <time>2022-05-22T07:32:05.000Z</time>
      </trkpt>
      <trkpt lat="43.31203" lon="-0.45019">
        <ele>148.49</ele>
        <time>2022-05-22T07:32:09.000Z</time>
      </trkpt>
      <trkpt lat="43.3122" lon="-0.45031">
        <ele>150.66</ele>
        <time>2022-05-22T07:32:13.000Z</time>
      </trkpt>
      <trkpt lat="43.31238" lon="-0.45043">
        <ele>149.01</ele>
        <time>2022-05-22T07:32:17.000Z</time>
      </trkpt>
      <trkpt lat="43.31259" lon="-0.45054">
        <ele>151.73</ele>
        <time>2022-05-22T07:32:21.000Z</time>
      </trkpt>
      <trkpt lat="43.31276" lon="-0.45064">
        <ele>151.49</ele>
        <time>2022-05-22T07:32:24.000Z</time>
      </trkpt>
      <trkpt lat="43.31299" lon="-0.45076">
        <ele>151.51</ele>
        <time>2022-05-22T07:32:28.000Z</time>
      </trkpt>
      <trkpt lat="43.31316" lon="-0.45088">
        <ele>151.98</ele>
        <time>2022-05-22T07:32:31.000Z</time>
      </trkpt>
      <trkpt lat="43.31333" lon="-0.45099">
        <ele>154.93</ele>
        <time>2022-05-22T07:32:34.000Z</time>
      </trkpt>
      <trkpt lat="43.31354" lon="-0.45107">
        <ele>157.04</ele>
        <time>2022-05-22T07:32:38.000Z</time>
      </trkpt>
      <trkpt lat="43.31372" lon="-0.45113">
        <ele>157.47</ele>
        <time>2022-05-22T07:32:41.000Z</time>
      </trkpt>
      <trkpt lat="43.31392" lon="-0.45117">
        <ele>158.25</ele>
        <time>2022-05-22T07:32:45.000Z</time>
      </trkpt>
      <trkpt lat="43.31411" lon="-0.4512">
        <ele>158.97</ele>
        <time>2022-05-22T07:32:48.000Z</time>
      </trkpt>
      <trkpt lat="43.31433" lon="-0.45128">
        <ele>156.92</ele>
        <time>2022-05-22T07:32:52.000Z</time>
      </trkpt>
      <trkpt lat="43.31449" lon="-0.45142">
        <ele>158.27</ele>
        <time>2022-05-22T07:32:56.000Z</time>
      </trkpt>
      <trkpt lat="43.31469" lon="-0.45154">
        <ele>158.65</ele>
        <time>2022-05-22T07:33:01.000Z</time>
      </trkpt>
      <trkpt lat="43.31489" lon="-0.45158">
        <ele>157.69</ele>
        <time>2022-05-22T07:33:05.000Z</time>
      </trkpt>
      <trkpt lat="43.31511" lon="-0.45164">
        <ele>156.56</ele>
        <time>2022-05-22T07:33:09.000Z</time>
      </trkpt>
      <trkpt lat="43.31531" lon="-0.45171">
        <ele>159.23</ele>
        <time>2022-05-22T07:33:13.000Z</time>
      </trkpt>
      <trkpt lat="43.3155" lon="-0.45182">
        <ele>160.05</ele>
        <time>2022-05-22T07:33:17.000Z</time>
      </trkpt>
      <trkpt lat="43.31571" lon="-0.4519">
        <ele>163.55</ele>
        <time>2022-05-22T07:33:21.000Z</time>
      </trkpt>
      <trkpt lat="43.31593" lon="-0.45188">
        <ele>163.64</ele>
        <time>2022-05-22T07:33:25.000Z</time>
      </trkpt>
      <trkpt lat="43.31614" lon="-0.45189">
        <ele>162.18</ele>
        <time>2022-05-22T07:33:29.000Z</time>
      </trkpt>
      <trkpt lat="43.31637" lon="-0.45181">
        <ele>161.56</ele>
        <time>2022-05-22T07:33:33.000Z</time>
      </trkpt>
      <trkpt lat="43.31656" lon="-0.45178">
        <ele>159.22</ele>
        <time>2022-05-22T07:33:36.000Z</time>
      </trkpt>
      <trkpt lat="43.31676" lon="-0.45179">
        <ele>158.3</ele>
        <time>2022-05-22T07:33:39.000Z</time>
      </trkpt>
      <trkpt lat="43.31695" lon="-0.45181">
        <ele>157.85</ele>
        <time>2022-05-22T07:33:42.000Z</time>
      </trkpt>
      <trkpt lat="43.31716" lon="-0.45186">
        <ele>156.14</ele>
        <time>2022-05-22T07:33:45.000Z</time>
      </trkpt>
      <trkpt lat="43.31735" lon="-0.45193">
        <ele>156</ele>
        <time>2022-05-22T07:33:48.000Z</time>
      </trkpt>
      <trkpt lat="43.31755" lon="-0.45203">
        <ele>153.99</ele>
        <time>2022-05-22T07:33:51.000Z</time>
      </trkpt>
      <trkpt lat="43.31773" lon="-0.45211">
        <ele>152.67</ele>
        <time>2022-05-22T07:33:54.000Z</time>
      </trkpt>
      <trkpt lat="43.31794" lon="-0.45226">
        <ele>152.7</ele>
        <time>2022-05-22T07:33:58.000Z</time>
      </trkpt>
      <trkpt lat="43.31804" lon="-0.45248">
        <ele>154.93</ele>
        <time>2022-05-22T07:34:02.000Z</time>
      </trkpt>
      <trkpt lat="43.31807" lon="-0.45278">
        <ele>153.49</ele>
        <time>2022-05-22T07:34:06.000Z</time>
      </trkpt>
      <trkpt lat="43.31816" lon="-0.45306">
        <ele>150.34</ele>
        <time>2022-05-22T07:34:09.000Z</time>
      </trkpt>
      <trkpt lat="43.31827" lon="-0.45326">
        <ele>148.78</ele>
        <time>2022-05-22T07:34:12.000Z</time>
      </trkpt>
      <trkpt lat="43.31847" lon="-0.45337">
        <ele>149.66</ele>
        <time>2022-05-22T07:34:16.000Z</time>
      </trkpt>
      <trkpt lat="43.31864" lon="-0.45348">
        <ele>153.22</ele>
        <time>2022-05-22T07:34:20.000Z</time>
      </trkpt>
      <trkpt lat="43.31878" lon="-0.4537">
        <ele>156.31</ele>
        <time>2022-05-22T07:34:24.000Z</time>
      </trkpt>
      <trkpt lat="43.31892" lon="-0.45392">
        <ele>156.22</ele>
        <time>2022-05-22T07:34:28.000Z</time>
      </trkpt>
      <trkpt lat="43.31906" lon="-0.45412">
        <ele>156.42</ele>
        <time>2022-05-22T07:34:32.000Z</time>
      </trkpt>
      <trkpt lat="43.31923" lon="-0.45427">
        <ele>155.81</ele>
        <time>2022-05-22T07:34:36.000Z</time>
      </trkpt>
      <trkpt lat="43.31943" lon="-0.45444">
        <ele>154.93</ele>
        <time>2022-05-22T07:34:40.000Z</time>
      </trkpt>
      <trkpt lat="43.31963" lon="-0.45453">
        <ele>155.54</ele>
        <time>2022-05-22T07:34:44.000Z</time>
      </trkpt>
      <trkpt lat="43.31984" lon="-0.45462">
        <ele>156.36</ele>
        <time>2022-05-22T07:34:48.000Z</time>
      </trkpt>
      <trkpt lat="43.32004" lon="-0.45472">
        <ele>157.12</ele>
        <time>2022-05-22T07:34:52.000Z</time>
      </trkpt>
      <trkpt lat="43.32024" lon="-0.45485">
        <ele>155.09</ele>
        <time>2022-05-22T07:34:56.000Z</time>
      </trkpt>
      <trkpt lat="43.32045" lon="-0.45496">
        <ele>156.83</ele>
        <time>2022-05-22T07:35:00.000Z</time>
      </trkpt>
      <trkpt lat="43.32066" lon="-0.45506">
        <ele>157.38</ele>
        <time>2022-05-22T07:35:04.000Z</time>
      </trkpt>
      <trkpt lat="43.32085" lon="-0.45519">
        <ele>157</ele>
        <time>2022-05-22T07:35:08.000Z</time>
      </trkpt>
      <trkpt lat="43.32107" lon="-0.45531">
        <ele>154.64</ele>
        <time>2022-05-22T07:35:12.000Z</time>
      </trkpt>
      <trkpt lat="43.32129" lon="-0.4554">
        <ele>153.33</ele>
        <time>2022-05-22T07:35:16.000Z</time>
      </trkpt>
      <trkpt lat="43.32146" lon="-0.45548">
        <ele>150.12</ele>
        <time>2022-05-22T07:35:19.000Z</time>
      </trkpt>
      <trkpt lat="43.32166" lon="-0.45558">
        <ele>150.33</ele>
        <time>2022-05-22T07:35:23.000Z</time>
      </trkpt>
      <trkpt lat="43.32187" lon="-0.45571">
        <ele>149.24</ele>
        <time>2022-05-22T07:35:27.000Z</time>
      </trkpt>
      <trkpt lat="43.32207" lon="-0.45585">
        <ele>149.08</ele>
        <time>2022-05-22T07:35:31.000Z</time>
      </trkpt>
      <trkpt lat="43.32225" lon="-0.45599">
        <ele>144.99</ele>
        <time>2022-05-22T07:35:34.000Z</time>
      </trkpt>
      <trkpt lat="43.32242" lon="-0.45611">
        <ele>144.62</ele>
        <time>2022-05-22T07:35:38.000Z</time>
      </trkpt>
      <trkpt lat="43.32262" lon="-0.45623">
        <ele>144.58</ele>
        <time>2022-05-22T07:35:42.000Z</time>
      </trkpt>
      <trkpt lat="43.32282" lon="-0.45636">
        <ele>147.99</ele>
        <time>2022-05-22T07:35:46.000Z</time>
      </trkpt>
      <trkpt lat="43.32302" lon="-0.45654">
        <ele>150.01</ele>
        <time>2022-05-22T07:35:50.000Z</time>
      </trkpt>
      <trkpt lat="43.32322" lon="-0.45666">
        <ele>152.85</ele>
        <time>2022-05-22T07:35:54.000Z</time>
      </trkpt>
      <trkpt lat="43.32342" lon="-0.45681">
        <ele>154.04</ele>
        <time>2022-05-22T07:35:58.000Z</time>
      </trkpt>
      <trkpt lat="43.32359" lon="-0.45693">
        <ele>153.39</ele>
        <time>2022-05-22T07:36:01.000Z</time>
      </trkpt>
      <trkpt lat="43.32376" lon="-0.45703">
        <ele>153.75</ele>
        <time>2022-05-22T07:36:04.000Z</time>
      </trkpt>
      <trkpt lat="43.32393" lon="-0.45714">
        <ele>153.32</ele>
        <time>2022-05-22T07:36:07.000Z</time>
      </trkpt>
      <trkpt lat="43.32409" lon="-0.45725">
        <ele>153.29</ele>
        <time>2022-05-22T07:36:10.000Z</time>
      </trkpt>
      <trkpt lat="43.32431" lon="-0.45738">
        <ele>153.89</ele>
        <time>2022-05-22T07:36:14.000Z</time>
      </trkpt>
      <trkpt lat="43.3245" lon="-0.45756">
        <ele>154.03</ele>
        <time>2022-05-22T07:36:18.000Z</time>
      </trkpt>
      <trkpt lat="43.32466" lon="-0.45778">
        <ele>154.73</ele>
        <time>2022-05-22T07:36:22.000Z</time>
      </trkpt>
      <trkpt lat="43.32481" lon="-0.45799">
        <ele>153.18</ele>
        <time>2022-05-22T07:36:26.000Z</time>
      </trkpt>
      <trkpt lat="43.32498" lon="-0.45813">
        <ele>153.93</ele>
        <time>2022-05-22T07:36:30.000Z</time>
      </trkpt>
      <trkpt lat="43.32514" lon="-0.4583">
        <ele>153.76</ele>
        <time>2022-05-22T07:36:33.000Z</time>
      </trkpt>
      <trkpt lat="43.32528" lon="-0.45847">
        <ele>152.73</ele>
        <time>2022-05-22T07:36:36.000Z</time>
      </trkpt>
      <trkpt lat="43.32543" lon="-0.45866">
        <ele>150.34</ele>
        <time>2022-05-22T07:36:39.000Z</time>
      </trkpt>
      <trkpt lat="43.32561" lon="-0.45885">
        <ele>150.68</ele>
        <time>2022-05-22T07:36:43.000Z</time>
      </trkpt>
      <trkpt lat="43.32579" lon="-0.45902">
        <ele>150.89</ele>
        <time>2022-05-22T07:36:47.000Z</time>
      </trkpt>
      <trkpt lat="43.32597" lon="-0.45922">
        <ele>150.81</ele>
        <time>2022-05-22T07:36:51.000Z</time>
      </trkpt>
      <trkpt lat="43.32616" lon="-0.45938">
        <ele>148.86</ele>
        <time>2022-05-22T07:36:55.000Z</time>
      </trkpt>
      <trkpt lat="43.32635" lon="-0.45956">
        <ele>148.91</ele>
        <time>2022-05-22T07:36:59.000Z</time>
      </trkpt>
      <trkpt lat="43.32652" lon="-0.45973">
        <ele>150.06</ele>
        <time>2022-05-22T07:37:03.000Z</time>
      </trkpt>
      <trkpt lat="43.32667" lon="-0.45988">
        <ele>147.16</ele>
        <time>2022-05-22T07:37:06.000Z</time>
      </trkpt>
      <trkpt lat="43.32683" lon="-0.46009">
        <ele>146.01</ele>
        <time>2022-05-22T07:37:10.000Z</time>
      </trkpt>
      <trkpt lat="43.32698" lon="-0.46032">
        <ele>148.45</ele>
        <time>2022-05-22T07:37:14.000Z</time>
      </trkpt>
      <trkpt lat="43.32711" lon="-0.4605">
        <ele>148.31</ele>
        <time>2022-05-22T07:37:17.000Z</time>
      </trkpt>
      <trkpt lat="43.32726" lon="-0.46072">
        <ele>148.78</ele>
        <time>2022-05-22T07:37:21.000Z</time>
      </trkpt>
      <trkpt lat="43.32742" lon="-0.46096">
        <ele>146.97</ele>
        <time>2022-05-22T07:37:25.000Z</time>
      </trkpt>
      <trkpt lat="43.32754" lon="-0.46116">
        <ele>146.64</ele>
        <time>2022-05-22T07:37:28.000Z</time>
      </trkpt>
      <trkpt lat="43.32767" lon="-0.46144">
        <ele>146.49</ele>
        <time>2022-05-22T07:37:32.000Z</time>
      </trkpt>
      <trkpt lat="43.32779" lon="-0.46168">
        <ele>147.85</ele>
        <time>2022-05-22T07:37:36.000Z</time>
      </trkpt>
      <trkpt lat="43.3279" lon="-0.46189">
        <ele>148.85</ele>
        <time>2022-05-22T07:37:39.000Z</time>
      </trkpt>
      <trkpt lat="43.32806" lon="-0.46211">
        <ele>147.16</ele>
        <time>2022-05-22T07:37:42.000Z</time>
      </trkpt>
      <trkpt lat="43.32822" lon="-0.46228">
        <ele>147.15</ele>
        <time>2022-05-22T07:37:45.000Z</time>
      </trkpt>
      <trkpt lat="43.32839" lon="-0.46251">
        <ele>146.99</ele>
        <time>2022-05-22T07:37:49.000Z</time>
      </trkpt>
      <trkpt lat="43.3285" lon="-0.46271">
        <ele>147.23</ele>
        <time>2022-05-22T07:37:52.000Z</time>
      </trkpt>
      <trkpt lat="43.32853" lon="-0.46305">
        <ele>146.86</ele>
        <time>2022-05-22T07:37:56.000Z</time>
      </trkpt>
      <trkpt lat="43.3286" lon="-0.46329">
        <ele>146.87</ele>
        <time>2022-05-22T07:37:59.000Z</time>
      </trkpt>
      <trkpt lat="43.32875" lon="-0.46345">
        <ele>147.31</ele>
        <time>2022-05-22T07:38:02.000Z</time>
      </trkpt>
      <trkpt lat="43.3289" lon="-0.4636">
        <ele>147.23</ele>
        <time>2022-05-22T07:38:05.000Z</time>
      </trkpt>
      <trkpt lat="43.32904" lon="-0.46376">
        <ele>147.61</ele>
        <time>2022-05-22T07:38:08.000Z</time>
      </trkpt>
      <trkpt lat="43.32918" lon="-0.46392">
        <ele>147.29</ele>
        <time>2022-05-22T07:38:11.000Z</time>
      </trkpt>
      <trkpt lat="43.32937" lon="-0.46412">
        <ele>146.57</ele>
        <time>2022-05-22T07:38:15.000Z</time>
      </trkpt>
      <trkpt lat="43.32955" lon="-0.46439">
        <ele>141.35</ele>
        <time>2022-05-22T07:38:19.000Z</time>
      </trkpt>
      <trkpt lat="43.3297" lon="-0.46464">
        <ele>139.82</ele>
        <time>2022-05-22T07:38:23.000Z</time>
      </trkpt>
      <trkpt lat="43.32985" lon="-0.46487">
        <ele>138.86</ele>
        <time>2022-05-22T07:38:27.000Z</time>
      </trkpt>
      <trkpt lat="43.33006" lon="-0.46495">
        <ele>144</ele>
        <time>2022-05-22T07:38:31.000Z</time>
      </trkpt>
      <trkpt lat="43.33028" lon="-0.46502">
        <ele>142.18</ele>
        <time>2022-05-22T07:38:35.000Z</time>
      </trkpt>
      <trkpt lat="43.33049" lon="-0.46504">
        <ele>145.9</ele>
        <time>2022-05-22T07:38:39.000Z</time>
      </trkpt>
      <trkpt lat="43.33067" lon="-0.46507">
        <ele>145.65</ele>
        <time>2022-05-22T07:38:42.000Z</time>
      </trkpt>
      <trkpt lat="43.33087" lon="-0.46517">
        <ele>143.82</ele>
        <time>2022-05-22T07:38:46.000Z</time>
      </trkpt>
      <trkpt lat="43.33098" lon="-0.4654">
        <ele>140.27</ele>
        <time>2022-05-22T07:38:49.000Z</time>
      </trkpt>
      <trkpt lat="43.3311" lon="-0.4657">
        <ele>140.95</ele>
        <time>2022-05-22T07:38:53.000Z</time>
      </trkpt>
      <trkpt lat="43.33115" lon="-0.466">
        <ele>140.68</ele>
        <time>2022-05-22T07:38:57.000Z</time>
      </trkpt>
      <trkpt lat="43.33104" lon="-0.4662">
        <ele>141.19</ele>
        <time>2022-05-22T07:39:01.000Z</time>
      </trkpt>
      <trkpt lat="43.33086" lon="-0.46636">
        <ele>142.72</ele>
        <time>2022-05-22T07:39:05.000Z</time>
      </trkpt>
      <trkpt lat="43.33072" lon="-0.46658">
        <ele>141.7</ele>
        <time>2022-05-22T07:39:09.000Z</time>
      </trkpt>
      <trkpt lat="43.33062" lon="-0.46686">
        <ele>142.29</ele>
        <time>2022-05-22T07:39:13.000Z</time>
      </trkpt>
      <trkpt lat="43.33052" lon="-0.46707">
        <ele>142.39</ele>
        <time>2022-05-22T07:39:16.000Z</time>
      </trkpt>
      <trkpt lat="43.33032" lon="-0.46724">
        <ele>143.7</ele>
        <time>2022-05-22T07:39:20.000Z</time>
      </trkpt>
      <trkpt lat="43.33013" lon="-0.46737">
        <ele>144.88</ele>
        <time>2022-05-22T07:39:24.000Z</time>
      </trkpt>
      <trkpt lat="43.32997" lon="-0.46754">
        <ele>144.42</ele>
        <time>2022-05-22T07:39:28.000Z</time>
      </trkpt>
      <trkpt lat="43.32982" lon="-0.46773">
        <ele>144.38</ele>
        <time>2022-05-22T07:39:32.000Z</time>
      </trkpt>
      <trkpt lat="43.3297" lon="-0.46792">
        <ele>144.95</ele>
        <time>2022-05-22T07:39:35.000Z</time>
      </trkpt>
      <trkpt lat="43.32955" lon="-0.46817">
        <ele>146.15</ele>
        <time>2022-05-22T07:39:39.000Z</time>
      </trkpt>
      <trkpt lat="43.3294" lon="-0.46834">
        <ele>146.61</ele>
        <time>2022-05-22T07:39:42.000Z</time>
      </trkpt>
      <trkpt lat="43.32925" lon="-0.46847">
        <ele>146.26</ele>
        <time>2022-05-22T07:39:45.000Z</time>
      </trkpt>
      <trkpt lat="43.32909" lon="-0.46859">
        <ele>146.18</ele>
        <time>2022-05-22T07:39:48.000Z</time>
      </trkpt>
      <trkpt lat="43.32891" lon="-0.46877">
        <ele>145.44</ele>
        <time>2022-05-22T07:39:52.000Z</time>
      </trkpt>
      <trkpt lat="43.32875" lon="-0.469">
        <ele>145.34</ele>
        <time>2022-05-22T07:39:56.000Z</time>
      </trkpt>
      <trkpt lat="43.32864" lon="-0.46921">
        <ele>146.14</ele>
        <time>2022-05-22T07:39:59.000Z</time>
      </trkpt>
      <trkpt lat="43.3285" lon="-0.46945">
        <ele>148.17</ele>
        <time>2022-05-22T07:40:03.000Z</time>
      </trkpt>
      <trkpt lat="43.32838" lon="-0.46972">
        <ele>148.24</ele>
        <time>2022-05-22T07:40:07.000Z</time>
      </trkpt>
      <trkpt lat="43.32828" lon="-0.47002">
        <ele>147.33</ele>
        <time>2022-05-22T07:40:11.000Z</time>
      </trkpt>
      <trkpt lat="43.32819" lon="-0.47029">
        <ele>146.02</ele>
        <time>2022-05-22T07:40:15.000Z</time>
      </trkpt>
      <trkpt lat="43.32812" lon="-0.47052">
        <ele>144.9</ele>
        <time>2022-05-22T07:40:18.000Z</time>
      </trkpt>
      <trkpt lat="43.3281" lon="-0.47083">
        <ele>144.48</ele>
        <time>2022-05-22T07:40:22.000Z</time>
      </trkpt>
      <trkpt lat="43.32814" lon="-0.47114">
        <ele>142.53</ele>
        <time>2022-05-22T07:40:26.000Z</time>
      </trkpt>
      <trkpt lat="43.3282" lon="-0.47145">
        <ele>142.67</ele>
        <time>2022-05-22T07:40:30.000Z</time>
      </trkpt>
      <trkpt lat="43.32819" lon="-0.47171">
        <ele>143.27</ele>
        <time>2022-05-22T07:40:33.000Z</time>
      </trkpt>
      <trkpt lat="43.32817" lon="-0.47197">
        <ele>143.9</ele>
        <time>2022-05-22T07:40:36.000Z</time>
      </trkpt>
      <trkpt lat="43.32815" lon="-0.47228">
        <ele>143.88</ele>
        <time>2022-05-22T07:40:40.000Z</time>
      </trkpt>
      <trkpt lat="43.32815" lon="-0.47253">
        <ele>143.47</ele>
        <time>2022-05-22T07:40:43.000Z</time>
      </trkpt>
      <trkpt lat="43.32818" lon="-0.47278">
        <ele>141.54</ele>
        <time>2022-05-22T07:40:46.000Z</time>
      </trkpt>
      <trkpt lat="43.32819" lon="-0.47304">
        <ele>141.33</ele>
        <time>2022-05-22T07:40:49.000Z</time>
      </trkpt>
      <trkpt lat="43.32824" lon="-0.47331">
        <ele>141.91</ele>
        <time>2022-05-22T07:40:52.000Z</time>
      </trkpt>
      <trkpt lat="43.32829" lon="-0.47358">
        <ele>141.57</ele>
        <time>2022-05-22T07:40:55.000Z</time>
      </trkpt>
      <trkpt lat="43.32834" lon="-0.47384">
        <ele>141.45</ele>
        <time>2022-05-22T07:40:58.000Z</time>
      </trkpt>
      <trkpt lat="43.32838" lon="-0.4741">
        <ele>141.79</ele>
        <time>2022-05-22T07:41:01.000Z</time>
      </trkpt>
      <trkpt lat="43.32842" lon="-0.47436">
        <ele>141.78</ele>
        <time>2022-05-22T07:41:04.000Z</time>
      </trkpt>
      <trkpt lat="43.32851" lon="-0.47461">
        <ele>142.85</ele>
        <time>2022-05-22T07:41:07.000Z</time>
      </trkpt>
      <trkpt lat="43.32862" lon="-0.47481">
        <ele>144.28</ele>
        <time>2022-05-22T07:41:10.000Z</time>
      </trkpt>
      <trkpt lat="43.3287" lon="-0.47507">
        <ele>143.05</ele>
        <time>2022-05-22T07:41:14.000Z</time>
      </trkpt>
      <trkpt lat="43.32855" lon="-0.47524">
        <ele>142.83</ele>
        <time>2022-05-22T07:41:19.000Z</time>
      </trkpt>
      <trkpt lat="43.32833" lon="-0.47537">
        <ele>143.49</ele>
        <time>2022-05-22T07:41:24.000Z</time>
      </trkpt>
      <trkpt lat="43.32814" lon="-0.4754">
        <ele>143.22</ele>
        <time>2022-05-22T07:41:28.000Z</time>
      </trkpt>
      <trkpt lat="43.32797" lon="-0.47555">
        <ele>142.52</ele>
        <time>2022-05-22T07:41:35.000Z</time>
      </trkpt>
      <trkpt lat="43.32779" lon="-0.47559">
        <ele>142.03</ele>
        <time>2022-05-22T07:41:52.000Z</time>
      </trkpt>
      <trkpt lat="43.32772" lon="-0.47584">
        <ele>141.87</ele>
        <time>2022-05-22T07:44:35.000Z</time>
      </trkpt>
      <trkpt lat="43.32753" lon="-0.47583">
        <ele>141.87</ele>
        <time>2022-05-22T07:44:42.000Z</time>
      </trkpt>
      <trkpt lat="43.32733" lon="-0.47579">
        <ele>141.68</ele>
        <time>2022-05-22T07:44:50.000Z</time>
      </trkpt>
      <trkpt lat="43.32715" lon="-0.47563">
        <ele>139.74</ele>
        <time>2022-05-22T07:44:57.000Z</time>
      </trkpt>
      <trkpt lat="43.32696" lon="-0.47556">
        <ele>141.83</ele>
        <time>2022-05-22T07:45:03.000Z</time>
      </trkpt>
      <trkpt lat="43.32677" lon="-0.47551">
        <ele>143.64</ele>
        <time>2022-05-22T07:45:09.000Z</time>
      </trkpt>
      <trkpt lat="43.32659" lon="-0.47555">
        <ele>140.74</ele>
        <time>2022-05-22T07:45:20.000Z</time>
      </trkpt>
      <trkpt lat="43.32643" lon="-0.4757">
        <ele>139.95</ele>
        <time>2022-05-22T07:45:25.000Z</time>
      </trkpt>
      <trkpt lat="43.32624" lon="-0.4758">
        <ele>140.81</ele>
        <time>2022-05-22T07:45:30.000Z</time>
      </trkpt>
      <trkpt lat="43.32604" lon="-0.47591">
        <ele>141.11</ele>
        <time>2022-05-22T07:45:35.000Z</time>
      </trkpt>
      <trkpt lat="43.32586" lon="-0.476">
        <ele>141.29</ele>
        <time>2022-05-22T07:45:39.000Z</time>
      </trkpt>
      <trkpt lat="43.32568" lon="-0.47612">
        <ele>140.98</ele>
        <time>2022-05-22T07:45:43.000Z</time>
      </trkpt>
      <trkpt lat="43.32551" lon="-0.4762">
        <ele>140.82</ele>
        <time>2022-05-22T07:45:47.000Z</time>
      </trkpt>
      <trkpt lat="43.32533" lon="-0.47631">
        <ele>140.45</ele>
        <time>2022-05-22T07:45:51.000Z</time>
      </trkpt>
      <trkpt lat="43.32515" lon="-0.47644">
        <ele>140.86</ele>
        <time>2022-05-22T07:45:56.000Z</time>
      </trkpt>
      <trkpt lat="43.32502" lon="-0.47661">
        <ele>139.91</ele>
        <time>2022-05-22T07:46:00.000Z</time>
      </trkpt>
      <trkpt lat="43.32487" lon="-0.47678">
        <ele>139.18</ele>
        <time>2022-05-22T07:46:04.000Z</time>
      </trkpt>
      <trkpt lat="43.32472" lon="-0.47694">
        <ele>139.42</ele>
        <time>2022-05-22T07:46:08.000Z</time>
      </trkpt>
      <trkpt lat="43.32456" lon="-0.47709">
        <ele>139.47</ele>
        <time>2022-05-22T07:46:12.000Z</time>
      </trkpt>
      <trkpt lat="43.32434" lon="-0.4771">
        <ele>141.27</ele>
        <time>2022-05-22T07:46:17.000Z</time>
      </trkpt>
      <trkpt lat="43.32418" lon="-0.47696">
        <ele>141.77</ele>
        <time>2022-05-22T07:46:21.000Z</time>
      </trkpt>
      <trkpt lat="43.32399" lon="-0.47689">
        <ele>142.11</ele>
        <time>2022-05-22T07:46:25.000Z</time>
      </trkpt>
      <trkpt lat="43.32379" lon="-0.47695">
        <ele>141.73</ele>
        <time>2022-05-22T07:46:29.000Z</time>
      </trkpt>
      <trkpt lat="43.32361" lon="-0.47702">
        <ele>141.49</ele>
        <time>2022-05-22T07:46:33.000Z</time>
      </trkpt>
      <trkpt lat="43.32341" lon="-0.47709">
        <ele>140.08</ele>
        <time>2022-05-22T07:46:37.000Z</time>
      </trkpt>
      <trkpt lat="43.32322" lon="-0.47722">
        <ele>140.75</ele>
        <time>2022-05-22T07:46:41.000Z</time>
      </trkpt>
      <trkpt lat="43.32309" lon="-0.4774">
        <ele>140.64</ele>
        <time>2022-05-22T07:46:45.000Z</time>
      </trkpt>
      <trkpt lat="43.32296" lon="-0.4776">
        <ele>140.8</ele>
        <time>2022-05-22T07:46:50.000Z</time>
      </trkpt>
      <trkpt lat="43.32282" lon="-0.4778">
        <ele>140.99</ele>
        <time>2022-05-22T07:46:56.000Z</time>
      </trkpt>
      <trkpt lat="43.3229" lon="-0.47805">
        <ele>142.61</ele>
        <time>2022-05-22T07:47:04.000Z</time>
      </trkpt>
      <trkpt lat="43.32299" lon="-0.4783">
        <ele>143.57</ele>
        <time>2022-05-22T07:47:09.000Z</time>
      </trkpt>
      <trkpt lat="43.32302" lon="-0.47856">
        <ele>144.77</ele>
        <time>2022-05-22T07:47:13.000Z</time>
      </trkpt>
      <trkpt lat="43.32306" lon="-0.47883">
        <ele>145.58</ele>
        <time>2022-05-22T07:47:17.000Z</time>
      </trkpt>
      <trkpt lat="43.3231" lon="-0.47908">
        <ele>147.92</ele>
        <time>2022-05-22T07:47:21.000Z</time>
      </trkpt>
      <trkpt lat="43.32317" lon="-0.47934">
        <ele>148.76</ele>
        <time>2022-05-22T07:47:25.000Z</time>
      </trkpt>
      <trkpt lat="43.32331" lon="-0.47955">
        <ele>148.26</ele>
        <time>2022-05-22T07:47:29.000Z</time>
      </trkpt>
      <trkpt lat="43.32348" lon="-0.47973">
        <ele>148.34</ele>
        <time>2022-05-22T07:47:33.000Z</time>
      </trkpt>
      <trkpt lat="43.32366" lon="-0.47989">
        <ele>147.92</ele>
        <time>2022-05-22T07:47:37.000Z</time>
      </trkpt>
      <trkpt lat="43.32385" lon="-0.48007">
        <ele>146.99</ele>
        <time>2022-05-22T07:47:41.000Z</time>
      </trkpt>
      <trkpt lat="43.324" lon="-0.48023">
        <ele>147.16</ele>
        <time>2022-05-22T07:47:45.000Z</time>
      </trkpt>
      <trkpt lat="43.3241" lon="-0.48046">
        <ele>145.65</ele>
        <time>2022-05-22T07:47:48.000Z</time>
      </trkpt>
      <trkpt lat="43.32419" lon="-0.48073">
        <ele>145.59</ele>
        <time>2022-05-22T07:47:52.000Z</time>
      </trkpt>
      <trkpt lat="43.32429" lon="-0.48102">
        <ele>144.49</ele>
        <time>2022-05-22T07:47:56.000Z</time>
      </trkpt>
      <trkpt lat="43.32439" lon="-0.48132">
        <ele>144.75</ele>
        <time>2022-05-22T07:48:00.000Z</time>
      </trkpt>
      <trkpt lat="43.32444" lon="-0.48157">
        <ele>143.24</ele>
        <time>2022-05-22T07:48:03.000Z</time>
      </trkpt>
      <trkpt lat="43.32446" lon="-0.48187">
        <ele>143.21</ele>
        <time>2022-05-22T07:48:07.000Z</time>
      </trkpt>
      <trkpt lat="43.32444" lon="-0.48215">
        <ele>148.6</ele>
        <time>2022-05-22T07:48:11.000Z</time>
      </trkpt>
      <trkpt lat="43.32437" lon="-0.4824">
        <ele>147.66</ele>
        <time>2022-05-22T07:48:15.000Z</time>
      </trkpt>
      <trkpt lat="43.32427" lon="-0.48268">
        <ele>146.4</ele>
        <time>2022-05-22T07:48:19.000Z</time>
      </trkpt>
      <trkpt lat="43.32417" lon="-0.48297">
        <ele>146.64</ele>
        <time>2022-05-22T07:48:23.000Z</time>
      </trkpt>
      <trkpt lat="43.32407" lon="-0.48318">
        <ele>146.61</ele>
        <time>2022-05-22T07:48:26.000Z</time>
      </trkpt>
      <trkpt lat="43.32396" lon="-0.48338">
        <ele>145.01</ele>
        <time>2022-05-22T07:48:29.000Z</time>
      </trkpt>
      <trkpt lat="43.32383" lon="-0.48359">
        <ele>145.63</ele>
        <time>2022-05-22T07:48:32.000Z</time>
      </trkpt>
      <trkpt lat="43.32367" lon="-0.48382">
        <ele>145.42</ele>
        <time>2022-05-22T07:48:36.000Z</time>
      </trkpt>
      <trkpt lat="43.32352" lon="-0.48404">
        <ele>146.53</ele>
        <time>2022-05-22T07:48:40.000Z</time>
      </trkpt>
      <trkpt lat="43.32337" lon="-0.48428">
        <ele>146.97</ele>
        <time>2022-05-22T07:48:44.000Z</time>
      </trkpt>
      <trkpt lat="43.32327" lon="-0.48448">
        <ele>146.54</ele>
        <time>2022-05-22T07:48:47.000Z</time>
      </trkpt>
      <trkpt lat="43.32311" lon="-0.48473">
        <ele>146.21</ele>
        <time>2022-05-22T07:48:51.000Z</time>
      </trkpt>
      <trkpt lat="43.32296" lon="-0.48495">
        <ele>145.6</ele>
        <time>2022-05-22T07:48:55.000Z</time>
      </trkpt>
      <trkpt lat="43.32282" lon="-0.48512">
        <ele>146.49</ele>
        <time>2022-05-22T07:48:58.000Z</time>
      </trkpt>
      <trkpt lat="43.32267" lon="-0.48537">
        <ele>146.13</ele>
        <time>2022-05-22T07:49:02.000Z</time>
      </trkpt>
      <trkpt lat="43.32258" lon="-0.48559">
        <ele>146.32</ele>
        <time>2022-05-22T07:49:05.000Z</time>
      </trkpt>
      <trkpt lat="43.3226" lon="-0.48584">
        <ele>147.33</ele>
        <time>2022-05-22T07:49:08.000Z</time>
      </trkpt>
      <trkpt lat="43.32259" lon="-0.48609">
        <ele>147.69</ele>
        <time>2022-05-22T07:49:11.000Z</time>
      </trkpt>
      <trkpt lat="43.3226" lon="-0.48635">
        <ele>148.97</ele>
        <time>2022-05-22T07:49:14.000Z</time>
      </trkpt>
      <trkpt lat="43.32259" lon="-0.48667">
        <ele>149.16</ele>
        <time>2022-05-22T07:49:18.000Z</time>
      </trkpt>
      <trkpt lat="43.32257" lon="-0.48699">
        <ele>149.63</ele>
        <time>2022-05-22T07:49:22.000Z</time>
      </trkpt>
      <trkpt lat="43.32259" lon="-0.4873">
        <ele>148.83</ele>
        <time>2022-05-22T07:49:26.000Z</time>
      </trkpt>
      <trkpt lat="43.32268" lon="-0.4876">
        <ele>147.57</ele>
        <time>2022-05-22T07:49:30.000Z</time>
      </trkpt>
      <trkpt lat="43.32286" lon="-0.48778">
        <ele>147.53</ele>
        <time>2022-05-22T07:49:34.000Z</time>
      </trkpt>
      <trkpt lat="43.32308" lon="-0.4879">
        <ele>147.24</ele>
        <time>2022-05-22T07:49:38.000Z</time>
      </trkpt>
      <trkpt lat="43.32325" lon="-0.48802">
        <ele>145.49</ele>
        <time>2022-05-22T07:49:41.000Z</time>
      </trkpt>
      <trkpt lat="43.32341" lon="-0.48814">
        <ele>146.35</ele>
        <time>2022-05-22T07:49:44.000Z</time>
      </trkpt>
      <trkpt lat="43.32356" lon="-0.48836">
        <ele>145.15</ele>
        <time>2022-05-22T07:49:48.000Z</time>
      </trkpt>
      <trkpt lat="43.3237" lon="-0.4886">
        <ele>146.62</ele>
        <time>2022-05-22T07:49:52.000Z</time>
      </trkpt>
      <trkpt lat="43.32382" lon="-0.4888">
        <ele>146.21</ele>
        <time>2022-05-22T07:49:55.000Z</time>
      </trkpt>
      <trkpt lat="43.32393" lon="-0.489">
        <ele>145.68</ele>
        <time>2022-05-22T07:49:58.000Z</time>
      </trkpt>
      <trkpt lat="43.32405" lon="-0.48921">
        <ele>145.28</ele>
        <time>2022-05-22T07:50:01.000Z</time>
      </trkpt>
      <trkpt lat="43.32416" lon="-0.48942">
        <ele>144.71</ele>
        <time>2022-05-22T07:50:04.000Z</time>
      </trkpt>
      <trkpt lat="43.32427" lon="-0.48961">
        <ele>144.97</ele>
        <time>2022-05-22T07:50:07.000Z</time>
      </trkpt>
      <trkpt lat="43.32441" lon="-0.48984">
        <ele>143.87</ele>
        <time>2022-05-22T07:50:10.000Z</time>
      </trkpt>
      <trkpt lat="43.32453" lon="-0.49006">
        <ele>142.73</ele>
        <time>2022-05-22T07:50:13.000Z</time>
      </trkpt>
      <trkpt lat="43.32468" lon="-0.49031">
        <ele>143.33</ele>
        <time>2022-05-22T07:50:17.000Z</time>
      </trkpt>
      <trkpt lat="43.32481" lon="-0.49052">
        <ele>140.56</ele>
        <time>2022-05-22T07:50:20.000Z</time>
      </trkpt>
      <trkpt lat="43.32494" lon="-0.49076">
        <ele>142.54</ele>
        <time>2022-05-22T07:50:24.000Z</time>
      </trkpt>
      <trkpt lat="43.32505" lon="-0.49102">
        <ele>143.57</ele>
        <time>2022-05-22T07:50:28.000Z</time>
      </trkpt>
      <trkpt lat="43.32511" lon="-0.49127">
        <ele>141.96</ele>
        <time>2022-05-22T07:50:31.000Z</time>
      </trkpt>
      <trkpt lat="43.32521" lon="-0.49157">
        <ele>142.73</ele>
        <time>2022-05-22T07:50:35.000Z</time>
      </trkpt>
      <trkpt lat="43.32531" lon="-0.49188">
        <ele>142.72</ele>
        <time>2022-05-22T07:50:39.000Z</time>
      </trkpt>
      <trkpt lat="43.3254" lon="-0.49218">
        <ele>143.39</ele>
        <time>2022-05-22T07:50:43.000Z</time>
      </trkpt>
      <trkpt lat="43.3255" lon="-0.49247">
        <ele>143.65</ele>
        <time>2022-05-22T07:50:47.000Z</time>
      </trkpt>
      <trkpt lat="43.32557" lon="-0.49271">
        <ele>143.01</ele>
        <time>2022-05-22T07:50:50.000Z</time>
      </trkpt>
      <trkpt lat="43.32564" lon="-0.49294">
        <ele>143.54</ele>
        <time>2022-05-22T07:50:53.000Z</time>
      </trkpt>
      <trkpt lat="43.32572" lon="-0.49319">
        <ele>143.01</ele>
        <time>2022-05-22T07:50:56.000Z</time>
      </trkpt>
      <trkpt lat="43.32579" lon="-0.49342">
        <ele>142.84</ele>
        <time>2022-05-22T07:50:59.000Z</time>
      </trkpt>
      <trkpt lat="43.32587" lon="-0.49364">
        <ele>143.51</ele>
        <time>2022-05-22T07:51:02.000Z</time>
      </trkpt>
      <trkpt lat="43.32603" lon="-0.49389">
        <ele>144.06</ele>
        <time>2022-05-22T07:51:06.000Z</time>
      </trkpt>
      <trkpt lat="43.32617" lon="-0.49406">
        <ele>144.35</ele>
        <time>2022-05-22T07:51:09.000Z</time>
      </trkpt>
      <trkpt lat="43.32631" lon="-0.49423">
        <ele>144.93</ele>
        <time>2022-05-22T07:51:12.000Z</time>
      </trkpt>
      <trkpt lat="43.32646" lon="-0.49443">
        <ele>143.82</ele>
        <time>2022-05-22T07:51:15.000Z</time>
      </trkpt>
      <trkpt lat="43.32659" lon="-0.49463">
        <ele>143.89</ele>
        <time>2022-05-22T07:51:18.000Z</time>
      </trkpt>
      <trkpt lat="43.32669" lon="-0.49484">
        <ele>144.69</ele>
        <time>2022-05-22T07:51:21.000Z</time>
      </trkpt>
      <trkpt lat="43.32677" lon="-0.49509">
        <ele>143.17</ele>
        <time>2022-05-22T07:51:24.000Z</time>
      </trkpt>
      <trkpt lat="43.32687" lon="-0.49533">
        <ele>142.59</ele>
        <time>2022-05-22T07:51:27.000Z</time>
      </trkpt>
      <trkpt lat="43.32695" lon="-0.49557">
        <ele>142.61</ele>
        <time>2022-05-22T07:51:30.000Z</time>
      </trkpt>
      <trkpt lat="43.32706" lon="-0.49578">
        <ele>141.56</ele>
        <time>2022-05-22T07:51:33.000Z</time>
      </trkpt>
      <trkpt lat="43.32718" lon="-0.496">
        <ele>141.94</ele>
        <time>2022-05-22T07:51:36.000Z</time>
      </trkpt>
      <trkpt lat="43.3273" lon="-0.49623">
        <ele>141.03</ele>
        <time>2022-05-22T07:51:39.000Z</time>
      </trkpt>
      <trkpt lat="43.32741" lon="-0.49645">
        <ele>141.29</ele>
        <time>2022-05-22T07:51:42.000Z</time>
      </trkpt>
      <trkpt lat="43.32752" lon="-0.49673">
        <ele>140.97</ele>
        <time>2022-05-22T07:51:45.000Z</time>
      </trkpt>
      <trkpt lat="43.3276" lon="-0.49696">
        <ele>139.28</ele>
        <time>2022-05-22T07:51:48.000Z</time>
      </trkpt>
      <trkpt lat="43.32765" lon="-0.4972">
        <ele>141.25</ele>
        <time>2022-05-22T07:51:51.000Z</time>
      </trkpt>
      <trkpt lat="43.32769" lon="-0.49746">
        <ele>141.33</ele>
        <time>2022-05-22T07:51:54.000Z</time>
      </trkpt>
      <trkpt lat="43.32772" lon="-0.49773">
        <ele>141.34</ele>
        <time>2022-05-22T07:51:57.000Z</time>
      </trkpt>
      <trkpt lat="43.32775" lon="-0.49799">
        <ele>140.64</ele>
        <time>2022-05-22T07:52:00.000Z</time>
      </trkpt>
      <trkpt lat="43.32778" lon="-0.49825">
        <ele>141.85</ele>
        <time>2022-05-22T07:52:03.000Z</time>
      </trkpt>
      <trkpt lat="43.32782" lon="-0.49857">
        <ele>142.18</ele>
        <time>2022-05-22T07:52:07.000Z</time>
      </trkpt>
      <trkpt lat="43.32785" lon="-0.49888">
        <ele>142.36</ele>
        <time>2022-05-22T07:52:11.000Z</time>
      </trkpt>
      <trkpt lat="43.32791" lon="-0.49918">
        <ele>141.84</ele>
        <time>2022-05-22T07:52:15.000Z</time>
      </trkpt>
      <trkpt lat="43.328" lon="-0.49945">
        <ele>143.47</ele>
        <time>2022-05-22T07:52:19.000Z</time>
      </trkpt>
      <trkpt lat="43.32808" lon="-0.49974">
        <ele>143.15</ele>
        <time>2022-05-22T07:52:23.000Z</time>
      </trkpt>
      <trkpt lat="43.32818" lon="-0.50003">
        <ele>142.28</ele>
        <time>2022-05-22T07:52:27.000Z</time>
      </trkpt>
      <trkpt lat="43.32827" lon="-0.50029">
        <ele>141.38</ele>
        <time>2022-05-22T07:52:31.000Z</time>
      </trkpt>
      <trkpt lat="43.32835" lon="-0.50056">
        <ele>142.82</ele>
        <time>2022-05-22T07:52:35.000Z</time>
      </trkpt>
      <trkpt lat="43.32842" lon="-0.50081">
        <ele>143.64</ele>
        <time>2022-05-22T07:52:39.000Z</time>
      </trkpt>
      <trkpt lat="43.32851" lon="-0.50108">
        <ele>143.68</ele>
        <time>2022-05-22T07:52:44.000Z</time>
      </trkpt>
      <trkpt lat="43.32859" lon="-0.50131">
        <ele>145.75</ele>
        <time>2022-05-22T07:52:49.000Z</time>
      </trkpt>
      <trkpt lat="43.32867" lon="-0.50157">
        <ele>145.72</ele>
        <time>2022-05-22T07:52:53.000Z</time>
      </trkpt>
      <trkpt lat="43.32875" lon="-0.50185">
        <ele>143.67</ele>
        <time>2022-05-22T07:52:57.000Z</time>
      </trkpt>
      <trkpt lat="43.32886" lon="-0.50206">
        <ele>143</ele>
        <time>2022-05-22T07:53:00.000Z</time>
      </trkpt>
      <trkpt lat="43.32901" lon="-0.50225">
        <ele>141.91</ele>
        <time>2022-05-22T07:53:03.000Z</time>
      </trkpt>
      <trkpt lat="43.32916" lon="-0.50243">
        <ele>141.35</ele>
        <time>2022-05-22T07:53:06.000Z</time>
      </trkpt>
      <trkpt lat="43.32932" lon="-0.50265">
        <ele>142.06</ele>
        <time>2022-05-22T07:53:09.000Z</time>
      </trkpt>
      <trkpt lat="43.32944" lon="-0.50289">
        <ele>142.5</ele>
        <time>2022-05-22T07:53:12.000Z</time>
      </trkpt>
      <trkpt lat="43.32956" lon="-0.50314">
        <ele>142.85</ele>
        <time>2022-05-22T07:53:15.000Z</time>
      </trkpt>
      <trkpt lat="43.32969" lon="-0.5034">
        <ele>142.46</ele>
        <time>2022-05-22T07:53:18.000Z</time>
      </trkpt>
      <trkpt lat="43.32984" lon="-0.50362">
        <ele>141.64</ele>
        <time>2022-05-22T07:53:21.000Z</time>
      </trkpt>
      <trkpt lat="43.33003" lon="-0.50377">
        <ele>141.12</ele>
        <time>2022-05-22T07:53:24.000Z</time>
      </trkpt>
      <trkpt lat="43.33022" lon="-0.50394">
        <ele>141.34</ele>
        <time>2022-05-22T07:53:28.000Z</time>
      </trkpt>
      <trkpt lat="43.33043" lon="-0.504">
        <ele>142.28</ele>
        <time>2022-05-22T07:53:32.000Z</time>
      </trkpt>
      <trkpt lat="43.33062" lon="-0.50396">
        <ele>141.67</ele>
        <time>2022-05-22T07:53:35.000Z</time>
      </trkpt>
      <trkpt lat="43.33082" lon="-0.50391">
        <ele>142.75</ele>
        <time>2022-05-22T07:53:38.000Z</time>
      </trkpt>
      <trkpt lat="43.33102" lon="-0.50386">
        <ele>142.23</ele>
        <time>2022-05-22T07:53:41.000Z</time>
      </trkpt>
      <trkpt lat="43.33122" lon="-0.50389">
        <ele>142.12</ele>
        <time>2022-05-22T07:53:44.000Z</time>
      </trkpt>
      <trkpt lat="43.33144" lon="-0.50396">
        <ele>140.78</ele>
        <time>2022-05-22T07:53:47.000Z</time>
      </trkpt>
      <trkpt lat="43.33164" lon="-0.50404">
        <ele>139.92</ele>
        <time>2022-05-22T07:53:50.000Z</time>
      </trkpt>
      <trkpt lat="43.33182" lon="-0.50409">
        <ele>140.33</ele>
        <time>2022-05-22T07:53:53.000Z</time>
      </trkpt>
      <trkpt lat="43.33201" lon="-0.50417">
        <ele>138.43</ele>
        <time>2022-05-22T07:53:56.000Z</time>
      </trkpt>
      <trkpt lat="43.33221" lon="-0.50424">
        <ele>137.84</ele>
        <time>2022-05-22T07:53:59.000Z</time>
      </trkpt>
      <trkpt lat="43.33242" lon="-0.50432">
        <ele>138.55</ele>
        <time>2022-05-22T07:54:02.000Z</time>
      </trkpt>
      <trkpt lat="43.33265" lon="-0.50441">
        <ele>138.15</ele>
        <time>2022-05-22T07:54:05.000Z</time>
      </trkpt>
      <trkpt lat="43.33287" lon="-0.50452">
        <ele>136.05</ele>
        <time>2022-05-22T07:54:08.000Z</time>
      </trkpt>
      <trkpt lat="43.33309" lon="-0.50465">
        <ele>134.64</ele>
        <time>2022-05-22T07:54:11.000Z</time>
      </trkpt>
      <trkpt lat="43.33331" lon="-0.50478">
        <ele>134.02</ele>
        <time>2022-05-22T07:54:14.000Z</time>
      </trkpt>
      <trkpt lat="43.33351" lon="-0.50491">
        <ele>134.47</ele>
        <time>2022-05-22T07:54:17.000Z</time>
      </trkpt>
      <trkpt lat="43.33371" lon="-0.50504">
        <ele>134.01</ele>
        <time>2022-05-22T07:54:20.000Z</time>
      </trkpt>
      <trkpt lat="43.33389" lon="-0.50514">
        <ele>134.7</ele>
        <time>2022-05-22T07:54:23.000Z</time>
      </trkpt>
      <trkpt lat="43.33406" lon="-0.50521">
        <ele>136.21</ele>
        <time>2022-05-22T07:54:26.000Z</time>
      </trkpt>
      <trkpt lat="43.33425" lon="-0.50542">
        <ele>136.62</ele>
        <time>2022-05-22T07:54:30.000Z</time>
      </trkpt>
      <trkpt lat="43.33444" lon="-0.50544">
        <ele>136.95</ele>
        <time>2022-05-22T07:54:34.000Z</time>
      </trkpt>
      <trkpt lat="43.33463" lon="-0.50529">
        <ele>135.7</ele>
        <time>2022-05-22T07:54:38.000Z</time>
      </trkpt>
      <trkpt lat="43.3348" lon="-0.50519">
        <ele>135.51</ele>
        <time>2022-05-22T07:54:41.000Z</time>
      </trkpt>
      <trkpt lat="43.33504" lon="-0.50513">
        <ele>135.32</ele>
        <time>2022-05-22T07:54:45.000Z</time>
      </trkpt>
      <trkpt lat="43.33525" lon="-0.50506">
        <ele>134.44</ele>
        <time>2022-05-22T07:54:49.000Z</time>
      </trkpt>
      <trkpt lat="43.33545" lon="-0.50498">
        <ele>134.26</ele>
        <time>2022-05-22T07:54:53.000Z</time>
      </trkpt>
      <trkpt lat="43.33567" lon="-0.50494">
        <ele>135.49</ele>
        <time>2022-05-22T07:54:57.000Z</time>
      </trkpt>
      <trkpt lat="43.33588" lon="-0.50495">
        <ele>135.81</ele>
        <time>2022-05-22T07:55:01.000Z</time>
      </trkpt>
      <trkpt lat="43.33609" lon="-0.50491">
        <ele>134.72</ele>
        <time>2022-05-22T07:55:05.000Z</time>
      </trkpt>
      <trkpt lat="43.3363" lon="-0.50488">
        <ele>132.85</ele>
        <time>2022-05-22T07:55:09.000Z</time>
      </trkpt>
      <trkpt lat="43.33651" lon="-0.50491">
        <ele>132.01</ele>
        <time>2022-05-22T07:55:13.000Z</time>
      </trkpt>
      <trkpt lat="43.33669" lon="-0.50509">
        <ele>131</ele>
        <time>2022-05-22T07:55:17.000Z</time>
      </trkpt>
      <trkpt lat="43.33687" lon="-0.50525">
        <ele>130.01</ele>
        <time>2022-05-22T07:55:21.000Z</time>
      </trkpt>
      <trkpt lat="43.33707" lon="-0.50531">
        <ele>129.77</ele>
        <time>2022-05-22T07:55:25.000Z</time>
      </trkpt>
      <trkpt lat="43.3373" lon="-0.50532">
        <ele>130.65</ele>
        <time>2022-05-22T07:55:29.000Z</time>
      </trkpt>
      <trkpt lat="43.33753" lon="-0.50536">
        <ele>131.02</ele>
        <time>2022-05-22T07:55:33.000Z</time>
      </trkpt>
      <trkpt lat="43.33774" lon="-0.50538">
        <ele>132.27</ele>
        <time>2022-05-22T07:55:37.000Z</time>
      </trkpt>
      <trkpt lat="43.33794" lon="-0.50536">
        <ele>131.79</ele>
        <time>2022-05-22T07:55:42.000Z</time>
      </trkpt>
      <trkpt lat="43.33812" lon="-0.50542">
        <ele>131.98</ele>
        <time>2022-05-22T07:55:48.000Z</time>
      </trkpt>
      <trkpt lat="43.3383" lon="-0.50553">
        <ele>132.85</ele>
        <time>2022-05-22T07:55:54.000Z</time>
      </trkpt>
      <trkpt lat="43.33851" lon="-0.50556">
        <ele>132.86</ele>
        <time>2022-05-22T07:55:59.000Z</time>
      </trkpt>
      <trkpt lat="43.33869" lon="-0.50553">
        <ele>133.84</ele>
        <time>2022-05-22T07:56:03.000Z</time>
      </trkpt>
      <trkpt lat="43.33892" lon="-0.5055">
        <ele>134.01</ele>
        <time>2022-05-22T07:56:08.000Z</time>
      </trkpt>
      <trkpt lat="43.33911" lon="-0.50546">
        <ele>133.35</ele>
        <time>2022-05-22T07:56:12.000Z</time>
      </trkpt>
      <trkpt lat="43.33932" lon="-0.50542">
        <ele>133.92</ele>
        <time>2022-05-22T07:56:16.000Z</time>
      </trkpt>
      <trkpt lat="43.33953" lon="-0.50541">
        <ele>132.41</ele>
        <time>2022-05-22T07:56:20.000Z</time>
      </trkpt>
      <trkpt lat="43.33974" lon="-0.50545">
        <ele>132.98</ele>
        <time>2022-05-22T07:56:24.000Z</time>
      </trkpt>
      <trkpt lat="43.33995" lon="-0.50547">
        <ele>133.25</ele>
        <time>2022-05-22T07:56:28.000Z</time>
      </trkpt>
      <trkpt lat="43.34014" lon="-0.5055">
        <ele>134.96</ele>
        <time>2022-05-22T07:56:32.000Z</time>
      </trkpt>
      <trkpt lat="43.34035" lon="-0.50551">
        <ele>135.55</ele>
        <time>2022-05-22T07:56:36.000Z</time>
      </trkpt>
      <trkpt lat="43.34056" lon="-0.50547">
        <ele>134.75</ele>
        <time>2022-05-22T07:56:40.000Z</time>
      </trkpt>
      <trkpt lat="43.34078" lon="-0.50542">
        <ele>134.66</ele>
        <time>2022-05-22T07:56:44.000Z</time>
      </trkpt>
      <trkpt lat="43.34097" lon="-0.50538">
        <ele>135.55</ele>
        <time>2022-05-22T07:56:48.000Z</time>
      </trkpt>
      <trkpt lat="43.34119" lon="-0.50538">
        <ele>135.01</ele>
        <time>2022-05-22T07:56:52.000Z</time>
      </trkpt>
      <trkpt lat="43.34139" lon="-0.5054">
        <ele>135.13</ele>
        <time>2022-05-22T07:56:56.000Z</time>
      </trkpt>
      <trkpt lat="43.34161" lon="-0.50541">
        <ele>137.05</ele>
        <time>2022-05-22T07:57:00.000Z</time>
      </trkpt>
      <trkpt lat="43.34182" lon="-0.50544">
        <ele>136.32</ele>
        <time>2022-05-22T07:57:04.000Z</time>
      </trkpt>
      <trkpt lat="43.34203" lon="-0.50545">
        <ele>137.1</ele>
        <time>2022-05-22T07:57:08.000Z</time>
      </trkpt>
      <trkpt lat="43.34223" lon="-0.50544">
        <ele>134.85</ele>
        <time>2022-05-22T07:57:12.000Z</time>
      </trkpt>
      <trkpt lat="43.34245" lon="-0.50543">
        <ele>134.32</ele>
        <time>2022-05-22T07:57:16.000Z</time>
      </trkpt>
      <trkpt lat="43.34267" lon="-0.5054">
        <ele>133.76</ele>
        <time>2022-05-22T07:57:20.000Z</time>
      </trkpt>
      <trkpt lat="43.34288" lon="-0.50531">
        <ele>135.6</ele>
        <time>2022-05-22T07:57:24.000Z</time>
      </trkpt>
      <trkpt lat="43.34309" lon="-0.5052">
        <ele>134.15</ele>
        <time>2022-05-22T07:57:28.000Z</time>
      </trkpt>
      <trkpt lat="43.34329" lon="-0.50503">
        <ele>134.05</ele>
        <time>2022-05-22T07:57:32.000Z</time>
      </trkpt>
      <trkpt lat="43.34349" lon="-0.50491">
        <ele>133.7</ele>
        <time>2022-05-22T07:57:37.000Z</time>
      </trkpt>
      <trkpt lat="43.34368" lon="-0.50493">
        <ele>133.25</ele>
        <time>2022-05-22T07:57:41.000Z</time>
      </trkpt>
      <trkpt lat="43.34388" lon="-0.50501">
        <ele>132.7</ele>
        <time>2022-05-22T07:57:45.000Z</time>
      </trkpt>
      <trkpt lat="43.34409" lon="-0.50513">
        <ele>132.65</ele>
        <time>2022-05-22T07:57:49.000Z</time>
      </trkpt>
      <trkpt lat="43.34426" lon="-0.50529">
        <ele>132.68</ele>
        <time>2022-05-22T07:57:53.000Z</time>
      </trkpt>
      <trkpt lat="43.34438" lon="-0.50551">
        <ele>137.25</ele>
        <time>2022-05-22T07:57:57.000Z</time>
      </trkpt>
      <trkpt lat="43.34454" lon="-0.50571">
        <ele>134.2</ele>
        <time>2022-05-22T07:58:01.000Z</time>
      </trkpt>
      <trkpt lat="43.34473" lon="-0.50588">
        <ele>131.1</ele>
        <time>2022-05-22T07:58:05.000Z</time>
      </trkpt>
      <trkpt lat="43.34489" lon="-0.50603">
        <ele>130.72</ele>
        <time>2022-05-22T07:58:09.000Z</time>
      </trkpt>
      <trkpt lat="43.34504" lon="-0.50621">
        <ele>129.52</ele>
        <time>2022-05-22T07:58:13.000Z</time>
      </trkpt>
      <trkpt lat="43.34521" lon="-0.50641">
        <ele>128.6</ele>
        <time>2022-05-22T07:58:17.000Z</time>
      </trkpt>
      <trkpt lat="43.34536" lon="-0.50664">
        <ele>129.85</ele>
        <time>2022-05-22T07:58:21.000Z</time>
      </trkpt>
      <trkpt lat="43.34548" lon="-0.50683">
        <ele>129.34</ele>
        <time>2022-05-22T07:58:24.000Z</time>
      </trkpt>
      <trkpt lat="43.34561" lon="-0.507">
        <ele>128.84</ele>
        <time>2022-05-22T07:58:27.000Z</time>
      </trkpt>
      <trkpt lat="43.34579" lon="-0.50721">
        <ele>128.3</ele>
        <time>2022-05-22T07:58:31.000Z</time>
      </trkpt>
      <trkpt lat="43.34595" lon="-0.5074">
        <ele>128.7</ele>
        <time>2022-05-22T07:58:35.000Z</time>
      </trkpt>
      <trkpt lat="43.34609" lon="-0.50765">
        <ele>129.1</ele>
        <time>2022-05-22T07:58:39.000Z</time>
      </trkpt>
      <trkpt lat="43.34618" lon="-0.50793">
        <ele>130.2</ele>
        <time>2022-05-22T07:58:43.000Z</time>
      </trkpt>
      <trkpt lat="43.34632" lon="-0.50818">
        <ele>131.32</ele>
        <time>2022-05-22T07:58:47.000Z</time>
      </trkpt>
      <trkpt lat="43.34649" lon="-0.50838">
        <ele>131.42</ele>
        <time>2022-05-22T07:58:51.000Z</time>
      </trkpt>
      <trkpt lat="43.34664" lon="-0.50856">
        <ele>131.12</ele>
        <time>2022-05-22T07:58:54.000Z</time>
      </trkpt>
      <trkpt lat="43.34677" lon="-0.50873">
        <ele>130.46</ele>
        <time>2022-05-22T07:58:57.000Z</time>
      </trkpt>
      <trkpt lat="43.34691" lon="-0.50898">
        <ele>130.22</ele>
        <time>2022-05-22T07:59:01.000Z</time>
      </trkpt>
      <trkpt lat="43.347" lon="-0.50921">
        <ele>129.71</ele>
        <time>2022-05-22T07:59:04.000Z</time>
      </trkpt>
      <trkpt lat="43.34713" lon="-0.50946">
        <ele>130.38</ele>
        <time>2022-05-22T07:59:08.000Z</time>
      </trkpt>
      <trkpt lat="43.34727" lon="-0.50969">
        <ele>130.72</ele>
        <time>2022-05-22T07:59:12.000Z</time>
      </trkpt>
      <trkpt lat="43.34738" lon="-0.50997">
        <ele>129.85</ele>
        <time>2022-05-22T07:59:16.000Z</time>
      </trkpt>
      <trkpt lat="43.34752" lon="-0.51021">
        <ele>129.02</ele>
        <time>2022-05-22T07:59:20.000Z</time>
      </trkpt>
      <trkpt lat="43.34752" lon="-0.51049">
        <ele>129.84</ele>
        <time>2022-05-22T07:59:24.000Z</time>
      </trkpt>
      <trkpt lat="43.34744" lon="-0.51075">
        <ele>130.07</ele>
        <time>2022-05-22T07:59:28.000Z</time>
      </trkpt>
      <trkpt lat="43.34739" lon="-0.51103">
        <ele>128.57</ele>
        <time>2022-05-22T07:59:32.000Z</time>
      </trkpt>
      <trkpt lat="43.34733" lon="-0.51133">
        <ele>129.38</ele>
        <time>2022-05-22T07:59:36.000Z</time>
      </trkpt>
      <trkpt lat="43.34721" lon="-0.5116">
        <ele>130.38</ele>
        <time>2022-05-22T07:59:40.000Z</time>
      </trkpt>
      <trkpt lat="43.34711" lon="-0.51189">
        <ele>131.2</ele>
        <time>2022-05-22T07:59:44.000Z</time>
      </trkpt>
      <trkpt lat="43.34704" lon="-0.51217">
        <ele>128.64</ele>
        <time>2022-05-22T07:59:48.000Z</time>
      </trkpt>
      <trkpt lat="43.34699" lon="-0.51243">
        <ele>129.31</ele>
        <time>2022-05-22T07:59:52.000Z</time>
      </trkpt>
      <trkpt lat="43.34717" lon="-0.51259">
        <ele>129.98</ele>
        <time>2022-05-22T07:59:58.000Z</time>
      </trkpt>
      <trkpt lat="43.34737" lon="-0.51263">
        <ele>131.81</ele>
        <time>2022-05-22T08:00:02.000Z</time>
      </trkpt>
      <trkpt lat="43.34756" lon="-0.51275">
        <ele>131.3</ele>
        <time>2022-05-22T08:00:06.000Z</time>
      </trkpt>
      <trkpt lat="43.34777" lon="-0.51285">
        <ele>131.17</ele>
        <time>2022-05-22T08:00:10.000Z</time>
      </trkpt>
      <trkpt lat="43.34798" lon="-0.51291">
        <ele>130.89</ele>
        <time>2022-05-22T08:00:14.000Z</time>
      </trkpt>
      <trkpt lat="43.3482" lon="-0.51296">
        <ele>133.21</ele>
        <time>2022-05-22T08:00:18.000Z</time>
      </trkpt>
      <trkpt lat="43.34843" lon="-0.51309">
        <ele>132.79</ele>
        <time>2022-05-22T08:00:22.000Z</time>
      </trkpt>
      <trkpt lat="43.34863" lon="-0.51325">
        <ele>131.22</ele>
        <time>2022-05-22T08:00:26.000Z</time>
      </trkpt>
      <trkpt lat="43.34882" lon="-0.51342">
        <ele>131.68</ele>
        <time>2022-05-22T08:00:30.000Z</time>
      </trkpt>
      <trkpt lat="43.34898" lon="-0.51356">
        <ele>129.18</ele>
        <time>2022-05-22T08:00:33.000Z</time>
      </trkpt>
      <trkpt lat="43.34919" lon="-0.51369">
        <ele>129.16</ele>
        <time>2022-05-22T08:00:37.000Z</time>
      </trkpt>
      <trkpt lat="43.3494" lon="-0.5138">
        <ele>129.16</ele>
        <time>2022-05-22T08:00:41.000Z</time>
      </trkpt>
      <trkpt lat="43.3496" lon="-0.51394">
        <ele>130.71</ele>
        <time>2022-05-22T08:00:45.000Z</time>
      </trkpt>
      <trkpt lat="43.34981" lon="-0.51411">
        <ele>130.81</ele>
        <time>2022-05-22T08:00:49.000Z</time>
      </trkpt>
      <trkpt lat="43.35003" lon="-0.51423">
        <ele>130.65</ele>
        <time>2022-05-22T08:00:53.000Z</time>
      </trkpt>
      <trkpt lat="43.35024" lon="-0.51415">
        <ele>130.11</ele>
        <time>2022-05-22T08:00:57.000Z</time>
      </trkpt>
      <trkpt lat="43.35044" lon="-0.51399">
        <ele>130.4</ele>
        <time>2022-05-22T08:01:01.000Z</time>
      </trkpt>
      <trkpt lat="43.35063" lon="-0.51403">
        <ele>131.21</ele>
        <time>2022-05-22T08:01:05.000Z</time>
      </trkpt>
      <trkpt lat="43.35072" lon="-0.51427">
        <ele>131.42</ele>
        <time>2022-05-22T08:01:09.000Z</time>
      </trkpt>
      <trkpt lat="43.35081" lon="-0.51456">
        <ele>132.11</ele>
        <time>2022-05-22T08:01:13.000Z</time>
      </trkpt>
      <trkpt lat="43.35098" lon="-0.51476">
        <ele>133.14</ele>
        <time>2022-05-22T08:01:17.000Z</time>
      </trkpt>
      <trkpt lat="43.35112" lon="-0.51494">
        <ele>134.21</ele>
        <time>2022-05-22T08:01:20.000Z</time>
      </trkpt>
      <trkpt lat="43.35131" lon="-0.51513">
        <ele>133.93</ele>
        <time>2022-05-22T08:01:24.000Z</time>
      </trkpt>
      <trkpt lat="43.35154" lon="-0.51512">
        <ele>133.5</ele>
        <time>2022-05-22T08:01:28.000Z</time>
      </trkpt>
      <trkpt lat="43.35175" lon="-0.51509">
        <ele>133.79</ele>
        <time>2022-05-22T08:01:32.000Z</time>
      </trkpt>
      <trkpt lat="43.35197" lon="-0.5151">
        <ele>132.81</ele>
        <time>2022-05-22T08:01:36.000Z</time>
      </trkpt>
      <trkpt lat="43.35214" lon="-0.51501">
        <ele>131.5</ele>
        <time>2022-05-22T08:01:39.000Z</time>
      </trkpt>
      <trkpt lat="43.35235" lon="-0.51493">
        <ele>131.98</ele>
        <time>2022-05-22T08:01:43.000Z</time>
      </trkpt>
      <trkpt lat="43.35249" lon="-0.51513">
        <ele>133.29</ele>
        <time>2022-05-22T08:01:46.000Z</time>
      </trkpt>
      <trkpt lat="43.35265" lon="-0.51535">
        <ele>133.6</ele>
        <time>2022-05-22T08:01:50.000Z</time>
      </trkpt>
      <trkpt lat="43.35282" lon="-0.51554">
        <ele>134.4</ele>
        <time>2022-05-22T08:01:54.000Z</time>
      </trkpt>
      <trkpt lat="43.35298" lon="-0.51568">
        <ele>136.37</ele>
        <time>2022-05-22T08:01:58.000Z</time>
      </trkpt>
      <trkpt lat="43.35314" lon="-0.51589">
        <ele>134.58</ele>
        <time>2022-05-22T08:02:02.000Z</time>
      </trkpt>
      <trkpt lat="43.35329" lon="-0.51605">
        <ele>133.55</ele>
        <time>2022-05-22T08:02:06.000Z</time>
      </trkpt>
      <trkpt lat="43.35348" lon="-0.51618">
        <ele>134.3</ele>
        <time>2022-05-22T08:02:10.000Z</time>
      </trkpt>
      <trkpt lat="43.35367" lon="-0.51627">
        <ele>133.26</ele>
        <time>2022-05-22T08:02:14.000Z</time>
      </trkpt>
      <trkpt lat="43.35385" lon="-0.51641">
        <ele>133.32</ele>
        <time>2022-05-22T08:02:18.000Z</time>
      </trkpt>
      <trkpt lat="43.35403" lon="-0.51656">
        <ele>132.46</ele>
        <time>2022-05-22T08:02:22.000Z</time>
      </trkpt>
      <trkpt lat="43.3542" lon="-0.5167">
        <ele>132.57</ele>
        <time>2022-05-22T08:02:26.000Z</time>
      </trkpt>
      <trkpt lat="43.35434" lon="-0.5169">
        <ele>132.93</ele>
        <time>2022-05-22T08:02:31.000Z</time>
      </trkpt>
      <trkpt lat="43.35437" lon="-0.51719">
        <ele>131.09</ele>
        <time>2022-05-22T08:02:35.000Z</time>
      </trkpt>
      <trkpt lat="43.35441" lon="-0.51747">
        <ele>129.64</ele>
        <time>2022-05-22T08:02:38.000Z</time>
      </trkpt>
      <trkpt lat="43.35452" lon="-0.51775">
        <ele>129.37</ele>
        <time>2022-05-22T08:02:42.000Z</time>
      </trkpt>
      <trkpt lat="43.35468" lon="-0.51798">
        <ele>129.21</ele>
        <time>2022-05-22T08:02:46.000Z</time>
      </trkpt>
      <trkpt lat="43.35481" lon="-0.51824">
        <ele>129.49</ele>
        <time>2022-05-22T08:02:50.000Z</time>
      </trkpt>
      <trkpt lat="43.35495" lon="-0.51839">
        <ele>129.56</ele>
        <time>2022-05-22T08:02:53.000Z</time>
      </trkpt>
      <trkpt lat="43.35513" lon="-0.51859">
        <ele>130.52</ele>
        <time>2022-05-22T08:02:57.000Z</time>
      </trkpt>
      <trkpt lat="43.35525" lon="-0.51878">
        <ele>128.52</ele>
        <time>2022-05-22T08:03:00.000Z</time>
      </trkpt>
      <trkpt lat="43.35541" lon="-0.519">
        <ele>127.77</ele>
        <time>2022-05-22T08:03:04.000Z</time>
      </trkpt>
      <trkpt lat="43.3556" lon="-0.51913">
        <ele>129.05</ele>
        <time>2022-05-22T08:03:08.000Z</time>
      </trkpt>
      <trkpt lat="43.35575" lon="-0.51934">
        <ele>129.26</ele>
        <time>2022-05-22T08:03:12.000Z</time>
      </trkpt>
      <trkpt lat="43.35589" lon="-0.51959">
        <ele>128.77</ele>
        <time>2022-05-22T08:03:16.000Z</time>
      </trkpt>
      <trkpt lat="43.35601" lon="-0.51983">
        <ele>129.9</ele>
        <time>2022-05-22T08:03:20.000Z</time>
      </trkpt>
      <trkpt lat="43.35612" lon="-0.52006">
        <ele>129.22</ele>
        <time>2022-05-22T08:03:24.000Z</time>
      </trkpt>
      <trkpt lat="43.35623" lon="-0.52031">
        <ele>129.54</ele>
        <time>2022-05-22T08:03:28.000Z</time>
      </trkpt>
      <trkpt lat="43.35634" lon="-0.52058">
        <ele>128.83</ele>
        <time>2022-05-22T08:03:32.000Z</time>
      </trkpt>
      <trkpt lat="43.35644" lon="-0.52085">
        <ele>128.31</ele>
        <time>2022-05-22T08:03:36.000Z</time>
      </trkpt>
      <trkpt lat="43.35649" lon="-0.52115">
        <ele>127.95</ele>
        <time>2022-05-22T08:03:40.000Z</time>
      </trkpt>
      <trkpt lat="43.35647" lon="-0.52145">
        <ele>128.85</ele>
        <time>2022-05-22T08:03:44.000Z</time>
      </trkpt>
      <trkpt lat="43.35642" lon="-0.52176">
        <ele>128.68</ele>
        <time>2022-05-22T08:03:48.000Z</time>
      </trkpt>
      <trkpt lat="43.35627" lon="-0.52198">
        <ele>127.35</ele>
        <time>2022-05-22T08:03:52.000Z</time>
      </trkpt>
      <trkpt lat="43.35606" lon="-0.52202">
        <ele>127.92</ele>
        <time>2022-05-22T08:03:56.000Z</time>
      </trkpt>
      <trkpt lat="43.35589" lon="-0.52194">
        <ele>128.7</ele>
        <time>2022-05-22T08:03:59.000Z</time>
      </trkpt>
      <trkpt lat="43.35568" lon="-0.52187">
        <ele>128.78</ele>
        <time>2022-05-22T08:04:03.000Z</time>
      </trkpt>
      <trkpt lat="43.35548" lon="-0.52194">
        <ele>129.61</ele>
        <time>2022-05-22T08:04:07.000Z</time>
      </trkpt>
      <trkpt lat="43.35531" lon="-0.52211">
        <ele>130.62</ele>
        <time>2022-05-22T08:04:11.000Z</time>
      </trkpt>
      <trkpt lat="43.35518" lon="-0.52232">
        <ele>129.72</ele>
        <time>2022-05-22T08:04:15.000Z</time>
      </trkpt>
      <trkpt lat="43.35507" lon="-0.52255">
        <ele>128.83</ele>
        <time>2022-05-22T08:04:19.000Z</time>
      </trkpt>
      <trkpt lat="43.35499" lon="-0.52283">
        <ele>128.27</ele>
        <time>2022-05-22T08:04:23.000Z</time>
      </trkpt>
      <trkpt lat="43.35492" lon="-0.5231">
        <ele>128.7</ele>
        <time>2022-05-22T08:04:27.000Z</time>
      </trkpt>
      <trkpt lat="43.35484" lon="-0.52339">
        <ele>127.26</ele>
        <time>2022-05-22T08:04:31.000Z</time>
      </trkpt>
      <trkpt lat="43.35477" lon="-0.52367">
        <ele>127.89</ele>
        <time>2022-05-22T08:04:35.000Z</time>
      </trkpt>
      <trkpt lat="43.35472" lon="-0.52399">
        <ele>128.93</ele>
        <time>2022-05-22T08:04:39.000Z</time>
      </trkpt>
      <trkpt lat="43.35469" lon="-0.52425">
        <ele>129.71</ele>
        <time>2022-05-22T08:04:42.000Z</time>
      </trkpt>
      <trkpt lat="43.35465" lon="-0.52455">
        <ele>129.06</ele>
        <time>2022-05-22T08:04:46.000Z</time>
      </trkpt>
      <trkpt lat="43.35468" lon="-0.52486">
        <ele>128.53</ele>
        <time>2022-05-22T08:04:50.000Z</time>
      </trkpt>
      <trkpt lat="43.3547" lon="-0.52518">
        <ele>128.84</ele>
        <time>2022-05-22T08:04:54.000Z</time>
      </trkpt>
      <trkpt lat="43.35472" lon="-0.5255">
        <ele>128.08</ele>
        <time>2022-05-22T08:04:58.000Z</time>
      </trkpt>
      <trkpt lat="43.35476" lon="-0.52574">
        <ele>129.46</ele>
        <time>2022-05-22T08:05:01.000Z</time>
      </trkpt>
      <trkpt lat="43.3548" lon="-0.52606">
        <ele>127.27</ele>
        <time>2022-05-22T08:05:05.000Z</time>
      </trkpt>
      <trkpt lat="43.35485" lon="-0.52638">
        <ele>127.01</ele>
        <time>2022-05-22T08:05:09.000Z</time>
      </trkpt>
      <trkpt lat="43.35492" lon="-0.52661">
        <ele>124.34</ele>
        <time>2022-05-22T08:05:12.000Z</time>
      </trkpt>
      <trkpt lat="43.35497" lon="-0.52693">
        <ele>123.33</ele>
        <time>2022-05-22T08:05:16.000Z</time>
      </trkpt>
      <trkpt lat="43.355" lon="-0.52718">
        <ele>123.49</ele>
        <time>2022-05-22T08:05:19.000Z</time>
      </trkpt>
      <trkpt lat="43.35505" lon="-0.52742">
        <ele>123.36</ele>
        <time>2022-05-22T08:05:22.000Z</time>
      </trkpt>
      <trkpt lat="43.35509" lon="-0.52766">
        <ele>123.68</ele>
        <time>2022-05-22T08:05:25.000Z</time>
      </trkpt>
      <trkpt lat="43.35513" lon="-0.52798">
        <ele>125.19</ele>
        <time>2022-05-22T08:05:29.000Z</time>
      </trkpt>
      <trkpt lat="43.35513" lon="-0.52824">
        <ele>125.66</ele>
        <time>2022-05-22T08:05:32.000Z</time>
      </trkpt>
      <trkpt lat="43.35512" lon="-0.52851">
        <ele>126.41</ele>
        <time>2022-05-22T08:05:35.000Z</time>
      </trkpt>
      <trkpt lat="43.35511" lon="-0.52876">
        <ele>126.28</ele>
        <time>2022-05-22T08:05:38.000Z</time>
      </trkpt>
      <trkpt lat="43.3551" lon="-0.52901">
        <ele>125.52</ele>
        <time>2022-05-22T08:05:41.000Z</time>
      </trkpt>
      <trkpt lat="43.3551" lon="-0.52934">
        <ele>125.42</ele>
        <time>2022-05-22T08:05:45.000Z</time>
      </trkpt>
      <trkpt lat="43.3551" lon="-0.52966">
        <ele>127.6</ele>
        <time>2022-05-22T08:05:49.000Z</time>
      </trkpt>
      <trkpt lat="43.35509" lon="-0.52993">
        <ele>124.26</ele>
        <time>2022-05-22T08:05:53.000Z</time>
      </trkpt>
      <trkpt lat="43.35517" lon="-0.5302">
        <ele>126.25</ele>
        <time>2022-05-22T08:05:59.000Z</time>
      </trkpt>
      <trkpt lat="43.35527" lon="-0.53041">
        <ele>126.16</ele>
        <time>2022-05-22T08:06:03.000Z</time>
      </trkpt>
      <trkpt lat="43.35535" lon="-0.53066">
        <ele>125.3</ele>
        <time>2022-05-22T08:06:07.000Z</time>
      </trkpt>
      <trkpt lat="43.35541" lon="-0.53092">
        <ele>125.86</ele>
        <time>2022-05-22T08:06:11.000Z</time>
      </trkpt>
      <trkpt lat="43.35548" lon="-0.53119">
        <ele>123.3</ele>
        <time>2022-05-22T08:06:15.000Z</time>
      </trkpt>
      <trkpt lat="43.35554" lon="-0.53149">
        <ele>123.21</ele>
        <time>2022-05-22T08:06:19.000Z</time>
      </trkpt>
      <trkpt lat="43.3556" lon="-0.53179">
        <ele>122.73</ele>
        <time>2022-05-22T08:06:23.000Z</time>
      </trkpt>
      <trkpt lat="43.35566" lon="-0.53209">
        <ele>123.35</ele>
        <time>2022-05-22T08:06:27.000Z</time>
      </trkpt>
      <trkpt lat="43.35572" lon="-0.53238">
        <ele>122.98</ele>
        <time>2022-05-22T08:06:31.000Z</time>
      </trkpt>
      <trkpt lat="43.35579" lon="-0.53269">
        <ele>122.8</ele>
        <time>2022-05-22T08:06:35.000Z</time>
      </trkpt>
      <trkpt lat="43.35589" lon="-0.53296">
        <ele>122.56</ele>
        <time>2022-05-22T08:06:39.000Z</time>
      </trkpt>
      <trkpt lat="43.35599" lon="-0.53317">
        <ele>123.47</ele>
        <time>2022-05-22T08:06:42.000Z</time>
      </trkpt>
      <trkpt lat="43.35613" lon="-0.53342">
        <ele>123.86</ele>
        <time>2022-05-22T08:06:46.000Z</time>
      </trkpt>
      <trkpt lat="43.35627" lon="-0.53367">
        <ele>124.53</ele>
        <time>2022-05-22T08:06:50.000Z</time>
      </trkpt>
      <trkpt lat="43.35638" lon="-0.53387">
        <ele>124.93</ele>
        <time>2022-05-22T08:06:53.000Z</time>
      </trkpt>
      <trkpt lat="43.35653" lon="-0.53411">
        <ele>124.47</ele>
        <time>2022-05-22T08:06:57.000Z</time>
      </trkpt>
      <trkpt lat="43.35667" lon="-0.53438">
        <ele>124.03</ele>
        <time>2022-05-22T08:07:01.000Z</time>
      </trkpt>
      <trkpt lat="43.35678" lon="-0.53459">
        <ele>123.46</ele>
        <time>2022-05-22T08:07:04.000Z</time>
      </trkpt>
      <trkpt lat="43.35687" lon="-0.53481">
        <ele>124.11</ele>
        <time>2022-05-22T08:07:07.000Z</time>
      </trkpt>
      <trkpt lat="43.35696" lon="-0.53504">
        <ele>123.25</ele>
        <time>2022-05-22T08:07:10.000Z</time>
      </trkpt>
      <trkpt lat="43.35703" lon="-0.53535">
        <ele>123.35</ele>
        <time>2022-05-22T08:07:14.000Z</time>
      </trkpt>
      <trkpt lat="43.35705" lon="-0.5356">
        <ele>123.34</ele>
        <time>2022-05-22T08:07:17.000Z</time>
      </trkpt>
      <trkpt lat="43.35709" lon="-0.53586">
        <ele>124.13</ele>
        <time>2022-05-22T08:07:20.000Z</time>
      </trkpt>
      <trkpt lat="43.35711" lon="-0.53614">
        <ele>123.7</ele>
        <time>2022-05-22T08:07:23.000Z</time>
      </trkpt>
      <trkpt lat="43.35712" lon="-0.53639">
        <ele>123.62</ele>
        <time>2022-05-22T08:07:26.000Z</time>
      </trkpt>
      <trkpt lat="43.35714" lon="-0.53664">
        <ele>123.26</ele>
        <time>2022-05-22T08:07:29.000Z</time>
      </trkpt>
      <trkpt lat="43.35715" lon="-0.53696">
        <ele>123.96</ele>
        <time>2022-05-22T08:07:33.000Z</time>
      </trkpt>
      <trkpt lat="43.35723" lon="-0.53728">
        <ele>123.55</ele>
        <time>2022-05-22T08:07:37.000Z</time>
      </trkpt>
      <trkpt lat="43.35734" lon="-0.53752">
        <ele>122.59</ele>
        <time>2022-05-22T08:07:40.000Z</time>
      </trkpt>
      <trkpt lat="43.3575" lon="-0.53775">
        <ele>123.39</ele>
        <time>2022-05-22T08:07:44.000Z</time>
      </trkpt>
      <trkpt lat="43.35763" lon="-0.53799">
        <ele>124.96</ele>
        <time>2022-05-22T08:07:48.000Z</time>
      </trkpt>
      <trkpt lat="43.35776" lon="-0.53823">
        <ele>125.63</ele>
        <time>2022-05-22T08:07:52.000Z</time>
      </trkpt>
      <trkpt lat="43.35793" lon="-0.53847">
        <ele>125.48</ele>
        <time>2022-05-22T08:07:56.000Z</time>
      </trkpt>
      <trkpt lat="43.35811" lon="-0.53869">
        <ele>124.01</ele>
        <time>2022-05-22T08:08:00.000Z</time>
      </trkpt>
      <trkpt lat="43.35828" lon="-0.5389">
        <ele>124.17</ele>
        <time>2022-05-22T08:08:04.000Z</time>
      </trkpt>
      <trkpt lat="43.35844" lon="-0.53912">
        <ele>124.34</ele>
        <time>2022-05-22T08:08:08.000Z</time>
      </trkpt>
      <trkpt lat="43.35858" lon="-0.53937">
        <ele>124.4</ele>
        <time>2022-05-22T08:08:12.000Z</time>
      </trkpt>
      <trkpt lat="43.35867" lon="-0.53961">
        <ele>124.51</ele>
        <time>2022-05-22T08:08:15.000Z</time>
      </trkpt>
      <trkpt lat="43.35876" lon="-0.53989">
        <ele>123.94</ele>
        <time>2022-05-22T08:08:19.000Z</time>
      </trkpt>
      <trkpt lat="43.35882" lon="-0.54013">
        <ele>123.28</ele>
        <time>2022-05-22T08:08:22.000Z</time>
      </trkpt>
      <trkpt lat="43.35887" lon="-0.54044">
        <ele>123.05</ele>
        <time>2022-05-22T08:08:26.000Z</time>
      </trkpt>
      <trkpt lat="43.35892" lon="-0.54075">
        <ele>122.88</ele>
        <time>2022-05-22T08:08:30.000Z</time>
      </trkpt>
      <trkpt lat="43.35902" lon="-0.54102">
        <ele>121.73</ele>
        <time>2022-05-22T08:08:34.000Z</time>
      </trkpt>
      <trkpt lat="43.35917" lon="-0.54125">
        <ele>120.59</ele>
        <time>2022-05-22T08:08:38.000Z</time>
      </trkpt>
      <trkpt lat="43.35937" lon="-0.54143">
        <ele>120.65</ele>
        <time>2022-05-22T08:08:42.000Z</time>
      </trkpt>
      <trkpt lat="43.35958" lon="-0.54159">
        <ele>120.43</ele>
        <time>2022-05-22T08:08:46.000Z</time>
      </trkpt>
      <trkpt lat="43.35972" lon="-0.54175">
        <ele>120.61</ele>
        <time>2022-05-22T08:08:49.000Z</time>
      </trkpt>
      <trkpt lat="43.35985" lon="-0.54195">
        <ele>120.41</ele>
        <time>2022-05-22T08:08:52.000Z</time>
      </trkpt>
      <trkpt lat="43.35998" lon="-0.54213">
        <ele>120.69</ele>
        <time>2022-05-22T08:08:55.000Z</time>
      </trkpt>
      <trkpt lat="43.3601" lon="-0.54232">
        <ele>120.93</ele>
        <time>2022-05-22T08:08:58.000Z</time>
      </trkpt>
      <trkpt lat="43.36021" lon="-0.54259">
        <ele>121.3</ele>
        <time>2022-05-22T08:09:02.000Z</time>
      </trkpt>
      <trkpt lat="43.36035" lon="-0.54281">
        <ele>122.14</ele>
        <time>2022-05-22T08:09:06.000Z</time>
      </trkpt>
      <trkpt lat="43.36051" lon="-0.54301">
        <ele>121.93</ele>
        <time>2022-05-22T08:09:10.000Z</time>
      </trkpt>
      <trkpt lat="43.36066" lon="-0.54322">
        <ele>121.8</ele>
        <time>2022-05-22T08:09:14.000Z</time>
      </trkpt>
      <trkpt lat="43.36081" lon="-0.54346">
        <ele>121.77</ele>
        <time>2022-05-22T08:09:18.000Z</time>
      </trkpt>
      <trkpt lat="43.36096" lon="-0.54372">
        <ele>122.07</ele>
        <time>2022-05-22T08:09:22.000Z</time>
      </trkpt>
      <trkpt lat="43.36112" lon="-0.54398">
        <ele>121.03</ele>
        <time>2022-05-22T08:09:26.000Z</time>
      </trkpt>
      <trkpt lat="43.36124" lon="-0.54417">
        <ele>121.58</ele>
        <time>2022-05-22T08:09:29.000Z</time>
      </trkpt>
      <trkpt lat="43.36136" lon="-0.54437">
        <ele>121.41</ele>
        <time>2022-05-22T08:09:32.000Z</time>
      </trkpt>
      <trkpt lat="43.36147" lon="-0.54458">
        <ele>121.02</ele>
        <time>2022-05-22T08:09:35.000Z</time>
      </trkpt>
      <trkpt lat="43.36165" lon="-0.54481">
        <ele>119.85</ele>
        <time>2022-05-22T08:09:39.000Z</time>
      </trkpt>
      <trkpt lat="43.36181" lon="-0.54493">
        <ele>120.21</ele>
        <time>2022-05-22T08:09:42.000Z</time>
      </trkpt>
      <trkpt lat="43.36195" lon="-0.54508">
        <ele>120.71</ele>
        <time>2022-05-22T08:09:45.000Z</time>
      </trkpt>
      <trkpt lat="43.36201" lon="-0.54532">
        <ele>121.15</ele>
        <time>2022-05-22T08:09:48.000Z</time>
      </trkpt>
      <trkpt lat="43.36204" lon="-0.54561">
        <ele>123.37</ele>
        <time>2022-05-22T08:09:52.000Z</time>
      </trkpt>
      <trkpt lat="43.36208" lon="-0.5459">
        <ele>122.45</ele>
        <time>2022-05-22T08:09:56.000Z</time>
      </trkpt>
      <trkpt lat="43.36211" lon="-0.54617">
        <ele>122.87</ele>
        <time>2022-05-22T08:10:00.000Z</time>
      </trkpt>
      <trkpt lat="43.36213" lon="-0.54648">
        <ele>122.73</ele>
        <time>2022-05-22T08:10:04.000Z</time>
      </trkpt>
      <trkpt lat="43.36213" lon="-0.54675">
        <ele>121.27</ele>
        <time>2022-05-22T08:10:07.000Z</time>
      </trkpt>
      <trkpt lat="43.36212" lon="-0.54701">
        <ele>122.65</ele>
        <time>2022-05-22T08:10:10.000Z</time>
      </trkpt>
      <trkpt lat="43.36215" lon="-0.54728">
        <ele>123.65</ele>
        <time>2022-05-22T08:10:13.000Z</time>
      </trkpt>
      <trkpt lat="43.36221" lon="-0.54758">
        <ele>123.28</ele>
        <time>2022-05-22T08:10:17.000Z</time>
      </trkpt>
      <trkpt lat="43.36226" lon="-0.54783">
        <ele>124.58</ele>
        <time>2022-05-22T08:10:21.000Z</time>
      </trkpt>
      <trkpt lat="43.36236" lon="-0.54811">
        <ele>123.39</ele>
        <time>2022-05-22T08:10:26.000Z</time>
      </trkpt>
      <trkpt lat="43.36247" lon="-0.54836">
        <ele>123.28</ele>
        <time>2022-05-22T08:10:30.000Z</time>
      </trkpt>
      <trkpt lat="43.36257" lon="-0.54862">
        <ele>122.63</ele>
        <time>2022-05-22T08:10:34.000Z</time>
      </trkpt>
      <trkpt lat="43.36264" lon="-0.54891">
        <ele>122.24</ele>
        <time>2022-05-22T08:10:38.000Z</time>
      </trkpt>
      <trkpt lat="43.36266" lon="-0.54921">
        <ele>121.76</ele>
        <time>2022-05-22T08:10:42.000Z</time>
      </trkpt>
      <trkpt lat="43.36265" lon="-0.54952">
        <ele>121.05</ele>
        <time>2022-05-22T08:10:46.000Z</time>
      </trkpt>
      <trkpt lat="43.36262" lon="-0.54977">
        <ele>120.04</ele>
        <time>2022-05-22T08:10:49.000Z</time>
      </trkpt>
      <trkpt lat="43.36263" lon="-0.55008">
        <ele>119.98</ele>
        <time>2022-05-22T08:10:53.000Z</time>
      </trkpt>
      <trkpt lat="43.36268" lon="-0.55037">
        <ele>120.05</ele>
        <time>2022-05-22T08:10:57.000Z</time>
      </trkpt>
      <trkpt lat="43.36278" lon="-0.55063">
        <ele>121.55</ele>
        <time>2022-05-22T08:11:01.000Z</time>
      </trkpt>
      <trkpt lat="43.36289" lon="-0.55087">
        <ele>120.98</ele>
        <time>2022-05-22T08:11:05.000Z</time>
      </trkpt>
      <trkpt lat="43.36301" lon="-0.55106">
        <ele>120.32</ele>
        <time>2022-05-22T08:11:08.000Z</time>
      </trkpt>
      <trkpt lat="43.36316" lon="-0.5513">
        <ele>120.64</ele>
        <time>2022-05-22T08:11:12.000Z</time>
      </trkpt>
      <trkpt lat="43.36331" lon="-0.55151">
        <ele>121.67</ele>
        <time>2022-05-22T08:11:16.000Z</time>
      </trkpt>
      <trkpt lat="43.3635" lon="-0.55169">
        <ele>122.91</ele>
        <time>2022-05-22T08:11:20.000Z</time>
      </trkpt>
      <trkpt lat="43.36368" lon="-0.55187">
        <ele>123.4</ele>
        <time>2022-05-22T08:11:24.000Z</time>
      </trkpt>
      <trkpt lat="43.36385" lon="-0.55207">
        <ele>122.48</ele>
        <time>2022-05-22T08:11:28.000Z</time>
      </trkpt>
      <trkpt lat="43.364" lon="-0.5523">
        <ele>121.71</ele>
        <time>2022-05-22T08:11:32.000Z</time>
      </trkpt>
      <trkpt lat="43.36417" lon="-0.55248">
        <ele>121.33</ele>
        <time>2022-05-22T08:11:36.000Z</time>
      </trkpt>
      <trkpt lat="43.36435" lon="-0.55265">
        <ele>122.06</ele>
        <time>2022-05-22T08:11:40.000Z</time>
      </trkpt>
      <trkpt lat="43.36453" lon="-0.55283">
        <ele>121.34</ele>
        <time>2022-05-22T08:11:44.000Z</time>
      </trkpt>
      <trkpt lat="43.36471" lon="-0.55301">
        <ele>121.39</ele>
        <time>2022-05-22T08:11:48.000Z</time>
      </trkpt>
      <trkpt lat="43.36484" lon="-0.55321">
        <ele>118.55</ele>
        <time>2022-05-22T08:11:51.000Z</time>
      </trkpt>
      <trkpt lat="43.365" lon="-0.55344">
        <ele>118.13</ele>
        <time>2022-05-22T08:11:55.000Z</time>
      </trkpt>
      <trkpt lat="43.36512" lon="-0.55364">
        <ele>115.97</ele>
        <time>2022-05-22T08:11:58.000Z</time>
      </trkpt>
      <trkpt lat="43.36526" lon="-0.5539">
        <ele>116.65</ele>
        <time>2022-05-22T08:12:02.000Z</time>
      </trkpt>
      <trkpt lat="43.36539" lon="-0.55415">
        <ele>117.99</ele>
        <time>2022-05-22T08:12:06.000Z</time>
      </trkpt>
      <trkpt lat="43.36551" lon="-0.5544">
        <ele>118.19</ele>
        <time>2022-05-22T08:12:10.000Z</time>
      </trkpt>
      <trkpt lat="43.36564" lon="-0.55464">
        <ele>117.95</ele>
        <time>2022-05-22T08:12:14.000Z</time>
      </trkpt>
      <trkpt lat="43.36577" lon="-0.5549">
        <ele>119.1</ele>
        <time>2022-05-22T08:12:18.000Z</time>
      </trkpt>
      <trkpt lat="43.36589" lon="-0.55514">
        <ele>119.85</ele>
        <time>2022-05-22T08:12:22.000Z</time>
      </trkpt>
      <trkpt lat="43.36602" lon="-0.5554">
        <ele>119.17</ele>
        <time>2022-05-22T08:12:26.000Z</time>
      </trkpt>
      <trkpt lat="43.36614" lon="-0.55566">
        <ele>121.26</ele>
        <time>2022-05-22T08:12:30.000Z</time>
      </trkpt>
      <trkpt lat="43.36628" lon="-0.55593">
        <ele>120.69</ele>
        <time>2022-05-22T08:12:34.000Z</time>
      </trkpt>
      <trkpt lat="43.36641" lon="-0.55619">
        <ele>119.92</ele>
        <time>2022-05-22T08:12:38.000Z</time>
      </trkpt>
      <trkpt lat="43.36653" lon="-0.55639">
        <ele>119.05</ele>
        <time>2022-05-22T08:12:41.000Z</time>
      </trkpt>
      <trkpt lat="43.36667" lon="-0.55662">
        <ele>118.86</ele>
        <time>2022-05-22T08:12:45.000Z</time>
      </trkpt>
      <trkpt lat="43.36679" lon="-0.55684">
        <ele>119.79</ele>
        <time>2022-05-22T08:12:49.000Z</time>
      </trkpt>
      <trkpt lat="43.36692" lon="-0.55703">
        <ele>118.86</ele>
        <time>2022-05-22T08:12:59.000Z</time>
      </trkpt>
      <trkpt lat="43.36708" lon="-0.55716">
        <ele>119.19</ele>
        <time>2022-05-22T08:13:04.000Z</time>
      </trkpt>
      <trkpt lat="43.36726" lon="-0.5573">
        <ele>118.02</ele>
        <time>2022-05-22T08:13:08.000Z</time>
      </trkpt>
      <trkpt lat="43.36744" lon="-0.55745">
        <ele>117.33</ele>
        <time>2022-05-22T08:13:12.000Z</time>
      </trkpt>
      <trkpt lat="43.36765" lon="-0.55761">
        <ele>117.09</ele>
        <time>2022-05-22T08:13:16.000Z</time>
      </trkpt>
      <trkpt lat="43.36784" lon="-0.55777">
        <ele>117.29</ele>
        <time>2022-05-22T08:13:20.000Z</time>
      </trkpt>
      <trkpt lat="43.36803" lon="-0.55793">
        <ele>116.66</ele>
        <time>2022-05-22T08:13:24.000Z</time>
      </trkpt>
      <trkpt lat="43.36823" lon="-0.55811">
        <ele>115.68</ele>
        <time>2022-05-22T08:13:28.000Z</time>
      </trkpt>
      <trkpt lat="43.3684" lon="-0.55825">
        <ele>115.19</ele>
        <time>2022-05-22T08:13:31.000Z</time>
      </trkpt>
      <trkpt lat="43.36862" lon="-0.55824">
        <ele>115.24</ele>
        <time>2022-05-22T08:13:35.000Z</time>
      </trkpt>
      <trkpt lat="43.36883" lon="-0.5582">
        <ele>114.75</ele>
        <time>2022-05-22T08:13:39.000Z</time>
      </trkpt>
      <trkpt lat="43.36899" lon="-0.55842">
        <ele>114.65</ele>
        <time>2022-05-22T08:13:43.000Z</time>
      </trkpt>
      <trkpt lat="43.36908" lon="-0.55863">
        <ele>116.02</ele>
        <time>2022-05-22T08:13:46.000Z</time>
      </trkpt>
      <trkpt lat="43.3692" lon="-0.55891">
        <ele>117.07</ele>
        <time>2022-05-22T08:13:50.000Z</time>
      </trkpt>
      <trkpt lat="43.36931" lon="-0.55918">
        <ele>117.27</ele>
        <time>2022-05-22T08:13:54.000Z</time>
      </trkpt>
      <trkpt lat="43.36938" lon="-0.55941">
        <ele>117.37</ele>
        <time>2022-05-22T08:13:57.000Z</time>
      </trkpt>
      <trkpt lat="43.36949" lon="-0.55968">
        <ele>116.93</ele>
        <time>2022-05-22T08:14:01.000Z</time>
      </trkpt>
      <trkpt lat="43.36959" lon="-0.55995">
        <ele>116.02</ele>
        <time>2022-05-22T08:14:05.000Z</time>
      </trkpt>
      <trkpt lat="43.36973" lon="-0.56019">
        <ele>115.54</ele>
        <time>2022-05-22T08:14:09.000Z</time>
      </trkpt>
      <trkpt lat="43.36987" lon="-0.56041">
        <ele>115.06</ele>
        <time>2022-05-22T08:14:13.000Z</time>
      </trkpt>
      <trkpt lat="43.37" lon="-0.56064">
        <ele>115.18</ele>
        <time>2022-05-22T08:14:17.000Z</time>
      </trkpt>
      <trkpt lat="43.37015" lon="-0.56086">
        <ele>115.59</ele>
        <time>2022-05-22T08:14:21.000Z</time>
      </trkpt>
      <trkpt lat="43.3703" lon="-0.56109">
        <ele>116.28</ele>
        <time>2022-05-22T08:14:25.000Z</time>
      </trkpt>
      <trkpt lat="43.37044" lon="-0.56134">
        <ele>114.81</ele>
        <time>2022-05-22T08:14:29.000Z</time>
      </trkpt>
      <trkpt lat="43.3706" lon="-0.56158">
        <ele>114.61</ele>
        <time>2022-05-22T08:14:33.000Z</time>
      </trkpt>
      <trkpt lat="43.3707" lon="-0.56187">
        <ele>114.87</ele>
        <time>2022-05-22T08:14:37.000Z</time>
      </trkpt>
      <trkpt lat="43.37077" lon="-0.56212">
        <ele>115.41</ele>
        <time>2022-05-22T08:14:40.000Z</time>
      </trkpt>
      <trkpt lat="43.37079" lon="-0.56237">
        <ele>112.55</ele>
        <time>2022-05-22T08:14:43.000Z</time>
      </trkpt>
      <trkpt lat="43.37079" lon="-0.56266">
        <ele>113.06</ele>
        <time>2022-05-22T08:14:46.000Z</time>
      </trkpt>
      <trkpt lat="43.3708" lon="-0.56294">
        <ele>113.35</ele>
        <time>2022-05-22T08:14:49.000Z</time>
      </trkpt>
      <trkpt lat="43.37081" lon="-0.56321">
        <ele>115.12</ele>
        <time>2022-05-22T08:14:52.000Z</time>
      </trkpt>
      <trkpt lat="43.37083" lon="-0.56348">
        <ele>115.25</ele>
        <time>2022-05-22T08:14:55.000Z</time>
      </trkpt>
      <trkpt lat="43.37084" lon="-0.56374">
        <ele>117.26</ele>
        <time>2022-05-22T08:14:58.000Z</time>
      </trkpt>
      <trkpt lat="43.37083" lon="-0.56407">
        <ele>118.25</ele>
        <time>2022-05-22T08:15:02.000Z</time>
      </trkpt>
      <trkpt lat="43.3708" lon="-0.56432">
        <ele>117.29</ele>
        <time>2022-05-22T08:15:05.000Z</time>
      </trkpt>
      <trkpt lat="43.37078" lon="-0.56457">
        <ele>117.49</ele>
        <time>2022-05-22T08:15:08.000Z</time>
      </trkpt>
      <trkpt lat="43.37075" lon="-0.56482">
        <ele>118.76</ele>
        <time>2022-05-22T08:15:11.000Z</time>
      </trkpt>
      <trkpt lat="43.37072" lon="-0.56506">
        <ele>119.79</ele>
        <time>2022-05-22T08:15:14.000Z</time>
      </trkpt>
      <trkpt lat="43.37073" lon="-0.56539">
        <ele>120.26</ele>
        <time>2022-05-22T08:15:18.000Z</time>
      </trkpt>
      <trkpt lat="43.3708" lon="-0.56562">
        <ele>118.72</ele>
        <time>2022-05-22T08:15:21.000Z</time>
      </trkpt>
      <trkpt lat="43.37089" lon="-0.56584">
        <ele>118.78</ele>
        <time>2022-05-22T08:15:24.000Z</time>
      </trkpt>
      <trkpt lat="43.37103" lon="-0.56609">
        <ele>114.29</ele>
        <time>2022-05-22T08:15:28.000Z</time>
      </trkpt>
      <trkpt lat="43.37118" lon="-0.56624">
        <ele>113.12</ele>
        <time>2022-05-22T08:15:31.000Z</time>
      </trkpt>
      <trkpt lat="43.37133" lon="-0.56639">
        <ele>113.29</ele>
        <time>2022-05-22T08:15:34.000Z</time>
      </trkpt>
      <trkpt lat="43.37147" lon="-0.56655">
        <ele>111.79</ele>
        <time>2022-05-22T08:15:37.000Z</time>
      </trkpt>
      <trkpt lat="43.37161" lon="-0.56671">
        <ele>110.02</ele>
        <time>2022-05-22T08:15:40.000Z</time>
      </trkpt>
      <trkpt lat="43.37176" lon="-0.56687">
        <ele>110</ele>
        <time>2022-05-22T08:15:43.000Z</time>
      </trkpt>
      <trkpt lat="43.37193" lon="-0.5671">
        <ele>110.37</ele>
        <time>2022-05-22T08:15:47.000Z</time>
      </trkpt>
      <trkpt lat="43.37208" lon="-0.56725">
        <ele>109.86</ele>
        <time>2022-05-22T08:15:50.000Z</time>
      </trkpt>
      <trkpt lat="43.37226" lon="-0.56743">
        <ele>109.76</ele>
        <time>2022-05-22T08:15:53.000Z</time>
      </trkpt>
      <trkpt lat="43.37239" lon="-0.56768">
        <ele>111.28</ele>
        <time>2022-05-22T08:15:57.000Z</time>
      </trkpt>
      <trkpt lat="43.37245" lon="-0.56794">
        <ele>112.24</ele>
        <time>2022-05-22T08:16:01.000Z</time>
      </trkpt>
      <trkpt lat="43.37251" lon="-0.56824">
        <ele>110.46</ele>
        <time>2022-05-22T08:16:06.000Z</time>
      </trkpt>
      <trkpt lat="43.37259" lon="-0.56852">
        <ele>111.4</ele>
        <time>2022-05-22T08:16:10.000Z</time>
      </trkpt>
      <trkpt lat="43.37268" lon="-0.56883">
        <ele>111.8</ele>
        <time>2022-05-22T08:16:14.000Z</time>
      </trkpt>
      <trkpt lat="43.37277" lon="-0.56912">
        <ele>111.19</ele>
        <time>2022-05-22T08:16:18.000Z</time>
      </trkpt>
      <trkpt lat="43.37285" lon="-0.56938">
        <ele>111.43</ele>
        <time>2022-05-22T08:16:22.000Z</time>
      </trkpt>
      <trkpt lat="43.37292" lon="-0.56962">
        <ele>111.94</ele>
        <time>2022-05-22T08:16:26.000Z</time>
      </trkpt>
      <trkpt lat="43.37301" lon="-0.56985">
        <ele>112.51</ele>
        <time>2022-05-22T08:16:30.000Z</time>
      </trkpt>
      <trkpt lat="43.37309" lon="-0.57011">
        <ele>111.98</ele>
        <time>2022-05-22T08:16:34.000Z</time>
      </trkpt>
      <trkpt lat="43.37316" lon="-0.5704">
        <ele>111.76</ele>
        <time>2022-05-22T08:16:38.000Z</time>
      </trkpt>
      <trkpt lat="43.37324" lon="-0.57062">
        <ele>112.35</ele>
        <time>2022-05-22T08:16:41.000Z</time>
      </trkpt>
      <trkpt lat="43.37339" lon="-0.57087">
        <ele>112.08</ele>
        <time>2022-05-22T08:16:45.000Z</time>
      </trkpt>
      <trkpt lat="43.37353" lon="-0.57104">
        <ele>111.65</ele>
        <time>2022-05-22T08:16:49.000Z</time>
      </trkpt>
      <trkpt lat="43.37369" lon="-0.57117">
        <ele>109.36</ele>
        <time>2022-05-22T08:17:06.000Z</time>
      </trkpt>
      <trkpt lat="43.37382" lon="-0.57136">
        <ele>110.02</ele>
        <time>2022-05-22T08:18:19.000Z</time>
      </trkpt>
      <trkpt lat="43.37397" lon="-0.57154">
        <ele>109.69</ele>
        <time>2022-05-22T08:18:24.000Z</time>
      </trkpt>
      <trkpt lat="43.37411" lon="-0.5717">
        <ele>109.17</ele>
        <time>2022-05-22T08:18:28.000Z</time>
      </trkpt>
      <trkpt lat="43.37426" lon="-0.57186">
        <ele>108.66</ele>
        <time>2022-05-22T08:18:32.000Z</time>
      </trkpt>
      <trkpt lat="43.37441" lon="-0.57204">
        <ele>108.39</ele>
        <time>2022-05-22T08:18:36.000Z</time>
      </trkpt>
      <trkpt lat="43.37458" lon="-0.57222">
        <ele>107.48</ele>
        <time>2022-05-22T08:18:40.000Z</time>
      </trkpt>
      <trkpt lat="43.37474" lon="-0.57239">
        <ele>107.93</ele>
        <time>2022-05-22T08:18:44.000Z</time>
      </trkpt>
      <trkpt lat="43.3749" lon="-0.57262">
        <ele>108.72</ele>
        <time>2022-05-22T08:18:48.000Z</time>
      </trkpt>
      <trkpt lat="43.37505" lon="-0.57286">
        <ele>107.77</ele>
        <time>2022-05-22T08:18:52.000Z</time>
      </trkpt>
      <trkpt lat="43.37519" lon="-0.57309">
        <ele>108.35</ele>
        <time>2022-05-22T08:18:56.000Z</time>
      </trkpt>
      <trkpt lat="43.37532" lon="-0.57333">
        <ele>109.01</ele>
        <time>2022-05-22T08:19:00.000Z</time>
      </trkpt>
      <trkpt lat="43.37546" lon="-0.57354">
        <ele>109.38</ele>
        <time>2022-05-22T08:19:04.000Z</time>
      </trkpt>
      <trkpt lat="43.37558" lon="-0.5738">
        <ele>107</ele>
        <time>2022-05-22T08:19:08.000Z</time>
      </trkpt>
      <trkpt lat="43.37574" lon="-0.57401">
        <ele>104.97</ele>
        <time>2022-05-22T08:19:12.000Z</time>
      </trkpt>
      <trkpt lat="43.37589" lon="-0.57425">
        <ele>106.05</ele>
        <time>2022-05-22T08:19:16.000Z</time>
      </trkpt>
      <trkpt lat="43.37604" lon="-0.57448">
        <ele>106.37</ele>
        <time>2022-05-22T08:19:20.000Z</time>
      </trkpt>
      <trkpt lat="43.37617" lon="-0.57472">
        <ele>106.87</ele>
        <time>2022-05-22T08:19:24.000Z</time>
      </trkpt>
      <trkpt lat="43.37632" lon="-0.57495">
        <ele>106.92</ele>
        <time>2022-05-22T08:19:28.000Z</time>
      </trkpt>
      <trkpt lat="43.37647" lon="-0.5752">
        <ele>107.43</ele>
        <time>2022-05-22T08:19:32.000Z</time>
      </trkpt>
      <trkpt lat="43.37662" lon="-0.57545">
        <ele>107.17</ele>
        <time>2022-05-22T08:19:36.000Z</time>
      </trkpt>
      <trkpt lat="43.37676" lon="-0.57569">
        <ele>107.24</ele>
        <time>2022-05-22T08:19:40.000Z</time>
      </trkpt>
      <trkpt lat="43.37692" lon="-0.57593">
        <ele>108.66</ele>
        <time>2022-05-22T08:19:44.000Z</time>
      </trkpt>
      <trkpt lat="43.37706" lon="-0.57618">
        <ele>107.97</ele>
        <time>2022-05-22T08:19:48.000Z</time>
      </trkpt>
      <trkpt lat="43.3772" lon="-0.57644">
        <ele>108.93</ele>
        <time>2022-05-22T08:19:52.000Z</time>
      </trkpt>
      <trkpt lat="43.3773" lon="-0.57666">
        <ele>105.76</ele>
        <time>2022-05-22T08:19:55.000Z</time>
      </trkpt>
      <trkpt lat="43.37744" lon="-0.57691">
        <ele>103.89</ele>
        <time>2022-05-22T08:19:59.000Z</time>
      </trkpt>
      <trkpt lat="43.37756" lon="-0.57718">
        <ele>104.37</ele>
        <time>2022-05-22T08:20:03.000Z</time>
      </trkpt>
      <trkpt lat="43.37765" lon="-0.57746">
        <ele>105.06</ele>
        <time>2022-05-22T08:20:07.000Z</time>
      </trkpt>
      <trkpt lat="43.37775" lon="-0.57775">
        <ele>104.86</ele>
        <time>2022-05-22T08:20:11.000Z</time>
      </trkpt>
      <trkpt lat="43.37785" lon="-0.57805">
        <ele>104.86</ele>
        <time>2022-05-22T08:20:15.000Z</time>
      </trkpt>
      <trkpt lat="43.37795" lon="-0.57834">
        <ele>105.52</ele>
        <time>2022-05-22T08:20:19.000Z</time>
      </trkpt>
      <trkpt lat="43.37806" lon="-0.57863">
        <ele>105.6</ele>
        <time>2022-05-22T08:20:23.000Z</time>
      </trkpt>
      <trkpt lat="43.37813" lon="-0.57886">
        <ele>105.49</ele>
        <time>2022-05-22T08:20:26.000Z</time>
      </trkpt>
      <trkpt lat="43.37824" lon="-0.57915">
        <ele>106.25</ele>
        <time>2022-05-22T08:20:30.000Z</time>
      </trkpt>
      <trkpt lat="43.37834" lon="-0.57946">
        <ele>108.14</ele>
        <time>2022-05-22T08:20:34.000Z</time>
      </trkpt>
      <trkpt lat="43.37842" lon="-0.57971">
        <ele>108.51</ele>
        <time>2022-05-22T08:20:37.000Z</time>
      </trkpt>
      <trkpt lat="43.3785" lon="-0.57994">
        <ele>109</ele>
        <time>2022-05-22T08:20:40.000Z</time>
      </trkpt>
      <trkpt lat="43.37859" lon="-0.58017">
        <ele>108.73</ele>
        <time>2022-05-22T08:20:43.000Z</time>
      </trkpt>
      <trkpt lat="43.3787" lon="-0.58045">
        <ele>109.17</ele>
        <time>2022-05-22T08:20:47.000Z</time>
      </trkpt>
      <trkpt lat="43.37876" lon="-0.5807">
        <ele>109.5</ele>
        <time>2022-05-22T08:20:50.000Z</time>
      </trkpt>
      <trkpt lat="43.37884" lon="-0.58093">
        <ele>106.47</ele>
        <time>2022-05-22T08:20:53.000Z</time>
      </trkpt>
      <trkpt lat="43.37895" lon="-0.58123">
        <ele>104.46</ele>
        <time>2022-05-22T08:20:57.000Z</time>
      </trkpt>
      <trkpt lat="43.37903" lon="-0.58147">
        <ele>104.64</ele>
        <time>2022-05-22T08:21:00.000Z</time>
      </trkpt>
      <trkpt lat="43.37913" lon="-0.58171">
        <ele>103.94</ele>
        <time>2022-05-22T08:21:03.000Z</time>
      </trkpt>
      <trkpt lat="43.3792" lon="-0.58195">
        <ele>104.43</ele>
        <time>2022-05-22T08:21:06.000Z</time>
      </trkpt>
      <trkpt lat="43.37927" lon="-0.5822">
        <ele>104.71</ele>
        <time>2022-05-22T08:21:09.000Z</time>
      </trkpt>
      <trkpt lat="43.37936" lon="-0.58245">
        <ele>105.61</ele>
        <time>2022-05-22T08:21:12.000Z</time>
      </trkpt>
      <trkpt lat="43.37943" lon="-0.58269">
        <ele>106.03</ele>
        <time>2022-05-22T08:21:15.000Z</time>
      </trkpt>
      <trkpt lat="43.37954" lon="-0.58293">
        <ele>105.4</ele>
        <time>2022-05-22T08:21:18.000Z</time>
      </trkpt>
      <trkpt lat="43.37968" lon="-0.58318">
        <ele>105.69</ele>
        <time>2022-05-22T08:21:22.000Z</time>
      </trkpt>
      <trkpt lat="43.37984" lon="-0.58332">
        <ele>105.4</ele>
        <time>2022-05-22T08:21:25.000Z</time>
      </trkpt>
      <trkpt lat="43.38003" lon="-0.58341">
        <ele>106.21</ele>
        <time>2022-05-22T08:21:28.000Z</time>
      </trkpt>
      <trkpt lat="43.38022" lon="-0.58347">
        <ele>106.11</ele>
        <time>2022-05-22T08:21:31.000Z</time>
      </trkpt>
      <trkpt lat="43.38041" lon="-0.58352">
        <ele>106.15</ele>
        <time>2022-05-22T08:21:34.000Z</time>
      </trkpt>
      <trkpt lat="43.3806" lon="-0.58362">
        <ele>109.87</ele>
        <time>2022-05-22T08:21:37.000Z</time>
      </trkpt>
      <trkpt lat="43.38077" lon="-0.58376">
        <ele>106.7</ele>
        <time>2022-05-22T08:21:40.000Z</time>
      </trkpt>
      <trkpt lat="43.38093" lon="-0.58394">
        <ele>106.1</ele>
        <time>2022-05-22T08:21:43.000Z</time>
      </trkpt>
      <trkpt lat="43.38108" lon="-0.58413">
        <ele>105.41</ele>
        <time>2022-05-22T08:21:46.000Z</time>
      </trkpt>
      <trkpt lat="43.38122" lon="-0.5843">
        <ele>105.37</ele>
        <time>2022-05-22T08:21:49.000Z</time>
      </trkpt>
      <trkpt lat="43.38136" lon="-0.58447">
        <ele>105.2</ele>
        <time>2022-05-22T08:21:52.000Z</time>
      </trkpt>
      <trkpt lat="43.38152" lon="-0.58465">
        <ele>106.08</ele>
        <time>2022-05-22T08:21:55.000Z</time>
      </trkpt>
      <trkpt lat="43.38166" lon="-0.58484">
        <ele>107.3</ele>
        <time>2022-05-22T08:21:58.000Z</time>
      </trkpt>
      <trkpt lat="43.38182" lon="-0.58501">
        <ele>107.59</ele>
        <time>2022-05-22T08:22:01.000Z</time>
      </trkpt>
      <trkpt lat="43.38196" lon="-0.58521">
        <ele>108.49</ele>
        <time>2022-05-22T08:22:04.000Z</time>
      </trkpt>
      <trkpt lat="43.38211" lon="-0.58539">
        <ele>108.8</ele>
        <time>2022-05-22T08:22:07.000Z</time>
      </trkpt>
      <trkpt lat="43.38226" lon="-0.58556">
        <ele>108.6</ele>
        <time>2022-05-22T08:22:10.000Z</time>
      </trkpt>
      <trkpt lat="43.38241" lon="-0.58574">
        <ele>108.9</ele>
        <time>2022-05-22T08:22:13.000Z</time>
      </trkpt>
      <trkpt lat="43.38254" lon="-0.58592">
        <ele>108.21</ele>
        <time>2022-05-22T08:22:16.000Z</time>
      </trkpt>
      <trkpt lat="43.38268" lon="-0.58612">
        <ele>108.22</ele>
        <time>2022-05-22T08:22:19.000Z</time>
      </trkpt>
      <trkpt lat="43.38282" lon="-0.58633">
        <ele>108.77</ele>
        <time>2022-05-22T08:22:22.000Z</time>
      </trkpt>
      <trkpt lat="43.38295" lon="-0.58653">
        <ele>108.96</ele>
        <time>2022-05-22T08:22:25.000Z</time>
      </trkpt>
      <trkpt lat="43.38309" lon="-0.58672">
        <ele>108.71</ele>
        <time>2022-05-22T08:22:28.000Z</time>
      </trkpt>
      <trkpt lat="43.38327" lon="-0.58693">
        <ele>110.65</ele>
        <time>2022-05-22T08:22:32.000Z</time>
      </trkpt>
      <trkpt lat="43.3834" lon="-0.58712">
        <ele>110.15</ele>
        <time>2022-05-22T08:22:35.000Z</time>
      </trkpt>
      <trkpt lat="43.38353" lon="-0.58731">
        <ele>110.01</ele>
        <time>2022-05-22T08:22:38.000Z</time>
      </trkpt>
      <trkpt lat="43.38366" lon="-0.58748">
        <ele>108.35</ele>
        <time>2022-05-22T08:22:41.000Z</time>
      </trkpt>
      <trkpt lat="43.38381" lon="-0.58765">
        <ele>108.93</ele>
        <time>2022-05-22T08:22:44.000Z</time>
      </trkpt>
      <trkpt lat="43.38398" lon="-0.58775">
        <ele>110.35</ele>
        <time>2022-05-22T08:22:47.000Z</time>
      </trkpt>
      <trkpt lat="43.38416" lon="-0.5878">
        <ele>110.6</ele>
        <time>2022-05-22T08:22:50.000Z</time>
      </trkpt>
      <trkpt lat="43.38438" lon="-0.5878">
        <ele>108.74</ele>
        <time>2022-05-22T08:22:54.000Z</time>
      </trkpt>
      <trkpt lat="43.38456" lon="-0.58768">
        <ele>109.02</ele>
        <time>2022-05-22T08:22:59.000Z</time>
      </trkpt>
      <trkpt lat="43.38472" lon="-0.58756">
        <ele>108.65</ele>
        <time>2022-05-22T08:23:07.000Z</time>
      </trkpt>
      <trkpt lat="43.38485" lon="-0.58738">
        <ele>110.32</ele>
        <time>2022-05-22T08:23:12.000Z</time>
      </trkpt>
      <trkpt lat="43.38497" lon="-0.58717">
        <ele>110.21</ele>
        <time>2022-05-22T08:23:17.000Z</time>
      </trkpt>
      <trkpt lat="43.38518" lon="-0.58715">
        <ele>110.28</ele>
        <time>2022-05-22T08:23:23.000Z</time>
      </trkpt>
      <trkpt lat="43.38527" lon="-0.58689">
        <ele>110.8</ele>
        <time>2022-05-22T08:23:28.000Z</time>
      </trkpt>
      <trkpt lat="43.38534" lon="-0.58667">
        <ele>110.97</ele>
        <time>2022-05-22T08:23:32.000Z</time>
      </trkpt>
      <trkpt lat="43.38543" lon="-0.58641">
        <ele>110.78</ele>
        <time>2022-05-22T08:23:36.000Z</time>
      </trkpt>
      <trkpt lat="43.38553" lon="-0.58614">
        <ele>110.89</ele>
        <time>2022-05-22T08:23:40.000Z</time>
      </trkpt>
      <trkpt lat="43.3856" lon="-0.58592">
        <ele>110.06</ele>
        <time>2022-05-22T08:23:43.000Z</time>
      </trkpt>
      <trkpt lat="43.38571" lon="-0.58565">
        <ele>110.39</ele>
        <time>2022-05-22T08:23:47.000Z</time>
      </trkpt>
      <trkpt lat="43.38581" lon="-0.58535">
        <ele>111.06</ele>
        <time>2022-05-22T08:23:51.000Z</time>
      </trkpt>
      <trkpt lat="43.38589" lon="-0.5851">
        <ele>111.22</ele>
        <time>2022-05-22T08:23:54.000Z</time>
      </trkpt>
      <trkpt lat="43.38599" lon="-0.58486">
        <ele>110.55</ele>
        <time>2022-05-22T08:23:57.000Z</time>
      </trkpt>
      <trkpt lat="43.38611" lon="-0.58461">
        <ele>109.87</ele>
        <time>2022-05-22T08:24:00.000Z</time>
      </trkpt>
      <trkpt lat="43.38625" lon="-0.58437">
        <ele>109.42</ele>
        <time>2022-05-22T08:24:03.000Z</time>
      </trkpt>
      <trkpt lat="43.38641" lon="-0.58415">
        <ele>108.73</ele>
        <time>2022-05-22T08:24:06.000Z</time>
      </trkpt>
      <trkpt lat="43.38658" lon="-0.58394">
        <ele>108.71</ele>
        <time>2022-05-22T08:24:09.000Z</time>
      </trkpt>
      <trkpt lat="43.38676" lon="-0.58374">
        <ele>108.26</ele>
        <time>2022-05-22T08:24:12.000Z</time>
      </trkpt>
      <trkpt lat="43.38693" lon="-0.58355">
        <ele>108.34</ele>
        <time>2022-05-22T08:24:15.000Z</time>
      </trkpt>
      <trkpt lat="43.3871" lon="-0.58336">
        <ele>108.69</ele>
        <time>2022-05-22T08:24:18.000Z</time>
      </trkpt>
      <trkpt lat="43.38727" lon="-0.58317">
        <ele>109.05</ele>
        <time>2022-05-22T08:24:21.000Z</time>
      </trkpt>
      <trkpt lat="43.38744" lon="-0.58298">
        <ele>108.67</ele>
        <time>2022-05-22T08:24:24.000Z</time>
      </trkpt>
      <trkpt lat="43.38762" lon="-0.58279">
        <ele>109.34</ele>
        <time>2022-05-22T08:24:27.000Z</time>
      </trkpt>
      <trkpt lat="43.38779" lon="-0.5826">
        <ele>109.45</ele>
        <time>2022-05-22T08:24:30.000Z</time>
      </trkpt>
      <trkpt lat="43.38796" lon="-0.58241">
        <ele>109.41</ele>
        <time>2022-05-22T08:24:33.000Z</time>
      </trkpt>
      <trkpt lat="43.38814" lon="-0.58225">
        <ele>108.75</ele>
        <time>2022-05-22T08:24:36.000Z</time>
      </trkpt>
      <trkpt lat="43.38831" lon="-0.58205">
        <ele>108.32</ele>
        <time>2022-05-22T08:24:39.000Z</time>
      </trkpt>
      <trkpt lat="43.38848" lon="-0.58186">
        <ele>108.49</ele>
        <time>2022-05-22T08:24:42.000Z</time>
      </trkpt>
      <trkpt lat="43.38866" lon="-0.58165">
        <ele>108.96</ele>
        <time>2022-05-22T08:24:45.000Z</time>
      </trkpt>
      <trkpt lat="43.38884" lon="-0.58146">
        <ele>109.25</ele>
        <time>2022-05-22T08:24:48.000Z</time>
      </trkpt>
      <trkpt lat="43.38901" lon="-0.58126">
        <ele>109.62</ele>
        <time>2022-05-22T08:24:51.000Z</time>
      </trkpt>
      <trkpt lat="43.38919" lon="-0.58108">
        <ele>109.23</ele>
        <time>2022-05-22T08:24:54.000Z</time>
      </trkpt>
      <trkpt lat="43.38935" lon="-0.58089">
        <ele>108.55</ele>
        <time>2022-05-22T08:24:57.000Z</time>
      </trkpt>
      <trkpt lat="43.38952" lon="-0.5807">
        <ele>108.4</ele>
        <time>2022-05-22T08:25:00.000Z</time>
      </trkpt>
      <trkpt lat="43.3897" lon="-0.58051">
        <ele>108.25</ele>
        <time>2022-05-22T08:25:03.000Z</time>
      </trkpt>
      <trkpt lat="43.38988" lon="-0.58031">
        <ele>108.67</ele>
        <time>2022-05-22T08:25:06.000Z</time>
      </trkpt>
      <trkpt lat="43.39006" lon="-0.58011">
        <ele>109.2</ele>
        <time>2022-05-22T08:25:09.000Z</time>
      </trkpt>
      <trkpt lat="43.39023" lon="-0.5799">
        <ele>109.04</ele>
        <time>2022-05-22T08:25:12.000Z</time>
      </trkpt>
      <trkpt lat="43.39041" lon="-0.57971">
        <ele>108.95</ele>
        <time>2022-05-22T08:25:15.000Z</time>
      </trkpt>
      <trkpt lat="43.39061" lon="-0.57957">
        <ele>111.01</ele>
        <time>2022-05-22T08:25:18.000Z</time>
      </trkpt>
      <trkpt lat="43.39082" lon="-0.57949">
        <ele>110.44</ele>
        <time>2022-05-22T08:25:21.000Z</time>
      </trkpt>
      <trkpt lat="43.39105" lon="-0.57944">
        <ele>110.56</ele>
        <time>2022-05-22T08:25:24.000Z</time>
      </trkpt>
      <trkpt lat="43.39127" lon="-0.57939">
        <ele>109.98</ele>
        <time>2022-05-22T08:25:27.000Z</time>
      </trkpt>
      <trkpt lat="43.3915" lon="-0.57934">
        <ele>109.46</ele>
        <time>2022-05-22T08:25:30.000Z</time>
      </trkpt>
      <trkpt lat="43.39173" lon="-0.57932">
        <ele>110.07</ele>
        <time>2022-05-22T08:25:33.000Z</time>
      </trkpt>
      <trkpt lat="43.39194" lon="-0.57926">
        <ele>109.65</ele>
        <time>2022-05-22T08:25:36.000Z</time>
      </trkpt>
      <trkpt lat="43.39216" lon="-0.5792">
        <ele>109.32</ele>
        <time>2022-05-22T08:25:39.000Z</time>
      </trkpt>
      <trkpt lat="43.39233" lon="-0.57912">
        <ele>109.11</ele>
        <time>2022-05-22T08:25:42.000Z</time>
      </trkpt>
      <trkpt lat="43.39244" lon="-0.57885">
        <ele>108.53</ele>
        <time>2022-05-22T08:25:46.000Z</time>
      </trkpt>
      <trkpt lat="43.39258" lon="-0.57858">
        <ele>108.2</ele>
        <time>2022-05-22T08:25:50.000Z</time>
      </trkpt>
      <trkpt lat="43.39269" lon="-0.57839">
        <ele>108.53</ele>
        <time>2022-05-22T08:25:53.000Z</time>
      </trkpt>
      <trkpt lat="43.39283" lon="-0.57812">
        <ele>107.82</ele>
        <time>2022-05-22T08:25:57.000Z</time>
      </trkpt>
      <trkpt lat="43.39297" lon="-0.57786">
        <ele>107.49</ele>
        <time>2022-05-22T08:26:01.000Z</time>
      </trkpt>
      <trkpt lat="43.39312" lon="-0.57761">
        <ele>107.26</ele>
        <time>2022-05-22T08:26:05.000Z</time>
      </trkpt>
      <trkpt lat="43.39325" lon="-0.57742">
        <ele>107.12</ele>
        <time>2022-05-22T08:26:08.000Z</time>
      </trkpt>
      <trkpt lat="43.39337" lon="-0.57723">
        <ele>107.45</ele>
        <time>2022-05-22T08:26:11.000Z</time>
      </trkpt>
      <trkpt lat="43.39352" lon="-0.57697">
        <ele>107.25</ele>
        <time>2022-05-22T08:26:15.000Z</time>
      </trkpt>
      <trkpt lat="43.39365" lon="-0.57671">
        <ele>107.82</ele>
        <time>2022-05-22T08:26:19.000Z</time>
      </trkpt>
      <trkpt lat="43.39376" lon="-0.57642">
        <ele>108.13</ele>
        <time>2022-05-22T08:26:23.000Z</time>
      </trkpt>
      <trkpt lat="43.39385" lon="-0.5762">
        <ele>108.32</ele>
        <time>2022-05-22T08:26:26.000Z</time>
      </trkpt>
      <trkpt lat="43.394" lon="-0.57595">
        <ele>107.2</ele>
        <time>2022-05-22T08:26:30.000Z</time>
      </trkpt>
      <trkpt lat="43.3942" lon="-0.5758">
        <ele>107.13</ele>
        <time>2022-05-22T08:26:34.000Z</time>
      </trkpt>
      <trkpt lat="43.39438" lon="-0.57572">
        <ele>106.59</ele>
        <time>2022-05-22T08:26:37.000Z</time>
      </trkpt>
      <trkpt lat="43.39456" lon="-0.57564">
        <ele>106.75</ele>
        <time>2022-05-22T08:26:40.000Z</time>
      </trkpt>
      <trkpt lat="43.39474" lon="-0.57555">
        <ele>107.87</ele>
        <time>2022-05-22T08:26:43.000Z</time>
      </trkpt>
      <trkpt lat="43.39491" lon="-0.57544">
        <ele>108.18</ele>
        <time>2022-05-22T08:26:46.000Z</time>
      </trkpt>
      <trkpt lat="43.39507" lon="-0.57531">
        <ele>108.04</ele>
        <time>2022-05-22T08:26:49.000Z</time>
      </trkpt>
      <trkpt lat="43.3952" lon="-0.57511">
        <ele>108.19</ele>
        <time>2022-05-22T08:26:53.000Z</time>
      </trkpt>
      <trkpt lat="43.39509" lon="-0.57484">
        <ele>108.21</ele>
        <time>2022-05-22T08:26:57.000Z</time>
      </trkpt>
      <trkpt lat="43.39498" lon="-0.57463">
        <ele>107.69</ele>
        <time>2022-05-22T08:27:00.000Z</time>
      </trkpt>
      <trkpt lat="43.39488" lon="-0.57442">
        <ele>107.82</ele>
        <time>2022-05-22T08:27:03.000Z</time>
      </trkpt>
      <trkpt lat="43.39478" lon="-0.57421">
        <ele>107.95</ele>
        <time>2022-05-22T08:27:06.000Z</time>
      </trkpt>
      <trkpt lat="43.39469" lon="-0.57399">
        <ele>107.75</ele>
        <time>2022-05-22T08:27:09.000Z</time>
      </trkpt>
      <trkpt lat="43.3946" lon="-0.57377">
        <ele>107.91</ele>
        <time>2022-05-22T08:27:12.000Z</time>
      </trkpt>
      <trkpt lat="43.3945" lon="-0.57355">
        <ele>107.96</ele>
        <time>2022-05-22T08:27:15.000Z</time>
      </trkpt>
      <trkpt lat="43.39439" lon="-0.57334">
        <ele>107.64</ele>
        <time>2022-05-22T08:27:18.000Z</time>
      </trkpt>
      <trkpt lat="43.39429" lon="-0.57313">
        <ele>107.26</ele>
        <time>2022-05-22T08:27:21.000Z</time>
      </trkpt>
      <trkpt lat="43.39417" lon="-0.57286">
        <ele>107.21</ele>
        <time>2022-05-22T08:27:25.000Z</time>
      </trkpt>
      <trkpt lat="43.39405" lon="-0.57262">
        <ele>108.05</ele>
        <time>2022-05-22T08:27:29.000Z</time>
      </trkpt>
      <trkpt lat="43.39394" lon="-0.57237">
        <ele>108.06</ele>
        <time>2022-05-22T08:27:33.000Z</time>
      </trkpt>
      <trkpt lat="43.39382" lon="-0.5721">
        <ele>108.58</ele>
        <time>2022-05-22T08:27:37.000Z</time>
      </trkpt>
      <trkpt lat="43.39365" lon="-0.57193">
        <ele>109.13</ele>
        <time>2022-05-22T08:27:41.000Z</time>
      </trkpt>
      <trkpt lat="43.39347" lon="-0.57185">
        <ele>108.52</ele>
        <time>2022-05-22T08:27:44.000Z</time>
      </trkpt>
      <trkpt lat="43.39323" lon="-0.57184">
        <ele>108.92</ele>
        <time>2022-05-22T08:27:48.000Z</time>
      </trkpt>
      <trkpt lat="43.39304" lon="-0.57187">
        <ele>108.6</ele>
        <time>2022-05-22T08:27:51.000Z</time>
      </trkpt>
      <trkpt lat="43.39286" lon="-0.5719">
        <ele>109.06</ele>
        <time>2022-05-22T08:27:54.000Z</time>
      </trkpt>
      <trkpt lat="43.39268" lon="-0.57189">
        <ele>109.72</ele>
        <time>2022-05-22T08:27:57.000Z</time>
      </trkpt>
      <trkpt lat="43.39249" lon="-0.57189">
        <ele>109.34</ele>
        <time>2022-05-22T08:28:00.000Z</time>
      </trkpt>
      <trkpt lat="43.39231" lon="-0.57188">
        <ele>109.39</ele>
        <time>2022-05-22T08:28:03.000Z</time>
      </trkpt>
      <trkpt lat="43.39208" lon="-0.57182">
        <ele>109.81</ele>
        <time>2022-05-22T08:28:07.000Z</time>
      </trkpt>
      <trkpt lat="43.39191" lon="-0.57174">
        <ele>109.26</ele>
        <time>2022-05-22T08:28:10.000Z</time>
      </trkpt>
      <trkpt lat="43.39169" lon="-0.57165">
        <ele>108.93</ele>
        <time>2022-05-22T08:28:14.000Z</time>
      </trkpt>
      <trkpt lat="43.39147" lon="-0.57157">
        <ele>109.11</ele>
        <time>2022-05-22T08:28:18.000Z</time>
      </trkpt>
      <trkpt lat="43.39125" lon="-0.57155">
        <ele>108.65</ele>
        <time>2022-05-22T08:28:22.000Z</time>
      </trkpt>
      <trkpt lat="43.39101" lon="-0.57156">
        <ele>107.62</ele>
        <time>2022-05-22T08:28:26.000Z</time>
      </trkpt>
      <trkpt lat="43.39078" lon="-0.57154">
        <ele>107.37</ele>
        <time>2022-05-22T08:28:30.000Z</time>
      </trkpt>
      <trkpt lat="43.39056" lon="-0.57151">
        <ele>108.56</ele>
        <time>2022-05-22T08:28:34.000Z</time>
      </trkpt>
      <trkpt lat="43.39036" lon="-0.57148">
        <ele>108.8</ele>
        <time>2022-05-22T08:28:38.000Z</time>
      </trkpt>
      <trkpt lat="43.39012" lon="-0.5714">
        <ele>108.11</ele>
        <time>2022-05-22T08:28:42.000Z</time>
      </trkpt>
      <trkpt lat="43.38995" lon="-0.5713">
        <ele>108.06</ele>
        <time>2022-05-22T08:28:45.000Z</time>
      </trkpt>
      <trkpt lat="43.38979" lon="-0.57118">
        <ele>108.34</ele>
        <time>2022-05-22T08:28:48.000Z</time>
      </trkpt>
      <trkpt lat="43.38958" lon="-0.57103">
        <ele>108.71</ele>
        <time>2022-05-22T08:28:52.000Z</time>
      </trkpt>
      <trkpt lat="43.38943" lon="-0.5709">
        <ele>108.53</ele>
        <time>2022-05-22T08:28:55.000Z</time>
      </trkpt>
      <trkpt lat="43.38923" lon="-0.57073">
        <ele>108.53</ele>
        <time>2022-05-22T08:28:59.000Z</time>
      </trkpt>
      <trkpt lat="43.38903" lon="-0.57057">
        <ele>107.97</ele>
        <time>2022-05-22T08:29:03.000Z</time>
      </trkpt>
      <trkpt lat="43.38883" lon="-0.5704">
        <ele>107.72</ele>
        <time>2022-05-22T08:29:07.000Z</time>
      </trkpt>
      <trkpt lat="43.38863" lon="-0.57024">
        <ele>107.86</ele>
        <time>2022-05-22T08:29:11.000Z</time>
      </trkpt>
      <trkpt lat="43.38843" lon="-0.57013">
        <ele>107.88</ele>
        <time>2022-05-22T08:29:15.000Z</time>
      </trkpt>
      <trkpt lat="43.38821" lon="-0.57018">
        <ele>109.09</ele>
        <time>2022-05-22T08:29:19.000Z</time>
      </trkpt>
      <trkpt lat="43.38801" lon="-0.57029">
        <ele>109.57</ele>
        <time>2022-05-22T08:29:23.000Z</time>
      </trkpt>
      <trkpt lat="43.3878" lon="-0.57043">
        <ele>110.64</ele>
        <time>2022-05-22T08:29:27.000Z</time>
      </trkpt>
      <trkpt lat="43.3876" lon="-0.5704">
        <ele>111.62</ele>
        <time>2022-05-22T08:29:31.000Z</time>
      </trkpt>
      <trkpt lat="43.38739" lon="-0.57027">
        <ele>112.33</ele>
        <time>2022-05-22T08:29:35.000Z</time>
      </trkpt>
      <trkpt lat="43.38718" lon="-0.57016">
        <ele>112.53</ele>
        <time>2022-05-22T08:29:39.000Z</time>
      </trkpt>
      <trkpt lat="43.38701" lon="-0.56994">
        <ele>111.86</ele>
        <time>2022-05-22T08:29:43.000Z</time>
      </trkpt>
      <trkpt lat="43.38686" lon="-0.56971">
        <ele>110.4</ele>
        <time>2022-05-22T08:29:47.000Z</time>
      </trkpt>
      <trkpt lat="43.38672" lon="-0.56948">
        <ele>110.03</ele>
        <time>2022-05-22T08:29:51.000Z</time>
      </trkpt>
      <trkpt lat="43.38658" lon="-0.5693">
        <ele>109.66</ele>
        <time>2022-05-22T08:29:55.000Z</time>
      </trkpt>
      <trkpt lat="43.38641" lon="-0.56911">
        <ele>110.19</ele>
        <time>2022-05-22T08:30:00.000Z</time>
      </trkpt>
      <trkpt lat="43.38626" lon="-0.56895">
        <ele>109.7</ele>
        <time>2022-05-22T08:30:04.000Z</time>
      </trkpt>
      <trkpt lat="43.38609" lon="-0.56876">
        <ele>109.54</ele>
        <time>2022-05-22T08:30:09.000Z</time>
      </trkpt>
      <trkpt lat="43.38592" lon="-0.56856">
        <ele>110.49</ele>
        <time>2022-05-22T08:30:14.000Z</time>
      </trkpt>
      <trkpt lat="43.38578" lon="-0.5684">
        <ele>110.63</ele>
        <time>2022-05-22T08:30:18.000Z</time>
      </trkpt>
      <trkpt lat="43.38563" lon="-0.56825">
        <ele>109.73</ele>
        <time>2022-05-22T08:30:22.000Z</time>
      </trkpt>
      <trkpt lat="43.38547" lon="-0.5681">
        <ele>110.26</ele>
        <time>2022-05-22T08:30:26.000Z</time>
      </trkpt>
      <trkpt lat="43.38532" lon="-0.56796">
        <ele>111.13</ele>
        <time>2022-05-22T08:30:30.000Z</time>
      </trkpt>
      <trkpt lat="43.38517" lon="-0.56779">
        <ele>111.29</ele>
        <time>2022-05-22T08:30:34.000Z</time>
      </trkpt>
      <trkpt lat="43.38501" lon="-0.56764">
        <ele>112.44</ele>
        <time>2022-05-22T08:30:38.000Z</time>
      </trkpt>
      <trkpt lat="43.38484" lon="-0.56748">
        <ele>111.73</ele>
        <time>2022-05-22T08:30:42.000Z</time>
      </trkpt>
      <trkpt lat="43.38466" lon="-0.5673">
        <ele>108.73</ele>
        <time>2022-05-22T08:30:46.000Z</time>
      </trkpt>
      <trkpt lat="43.38449" lon="-0.56716">
        <ele>108.51</ele>
        <time>2022-05-22T08:30:50.000Z</time>
      </trkpt>
      <trkpt lat="43.3843" lon="-0.56702">
        <ele>107.82</ele>
        <time>2022-05-22T08:30:54.000Z</time>
      </trkpt>
      <trkpt lat="43.38411" lon="-0.56688">
        <ele>106.66</ele>
        <time>2022-05-22T08:30:58.000Z</time>
      </trkpt>
      <trkpt lat="43.38392" lon="-0.56675">
        <ele>110.35</ele>
        <time>2022-05-22T08:31:02.000Z</time>
      </trkpt>
      <trkpt lat="43.38376" lon="-0.56659">
        <ele>112.42</ele>
        <time>2022-05-22T08:31:06.000Z</time>
      </trkpt>
      <trkpt lat="43.38358" lon="-0.56641">
        <ele>112.77</ele>
        <time>2022-05-22T08:31:10.000Z</time>
      </trkpt>
      <trkpt lat="43.38343" lon="-0.56622">
        <ele>112.82</ele>
        <time>2022-05-22T08:31:14.000Z</time>
      </trkpt>
      <trkpt lat="43.38329" lon="-0.56602">
        <ele>113.56</ele>
        <time>2022-05-22T08:31:18.000Z</time>
      </trkpt>
      <trkpt lat="43.38316" lon="-0.56579">
        <ele>114.91</ele>
        <time>2022-05-22T08:31:22.000Z</time>
      </trkpt>
      <trkpt lat="43.38309" lon="-0.56556">
        <ele>115.12</ele>
        <time>2022-05-22T08:31:26.000Z</time>
      </trkpt>
      <trkpt lat="43.38295" lon="-0.56538">
        <ele>118.55</ele>
        <time>2022-05-22T08:31:30.000Z</time>
      </trkpt>
      <trkpt lat="43.38284" lon="-0.56516">
        <ele>119.72</ele>
        <time>2022-05-22T08:31:34.000Z</time>
      </trkpt>
      <trkpt lat="43.38273" lon="-0.56493">
        <ele>118.62</ele>
        <time>2022-05-22T08:31:38.000Z</time>
      </trkpt>
      <trkpt lat="43.38262" lon="-0.56471">
        <ele>117.74</ele>
        <time>2022-05-22T08:31:42.000Z</time>
      </trkpt>
      <trkpt lat="43.38249" lon="-0.56453">
        <ele>118.71</ele>
        <time>2022-05-22T08:31:46.000Z</time>
      </trkpt>
      <trkpt lat="43.38236" lon="-0.56432">
        <ele>119.71</ele>
        <time>2022-05-22T08:31:50.000Z</time>
      </trkpt>
      <trkpt lat="43.38222" lon="-0.56413">
        <ele>119.25</ele>
        <time>2022-05-22T08:31:54.000Z</time>
      </trkpt>
      <trkpt lat="43.3821" lon="-0.56385">
        <ele>119.54</ele>
        <time>2022-05-22T08:31:59.000Z</time>
      </trkpt>
      <trkpt lat="43.38204" lon="-0.5636">
        <ele>119.43</ele>
        <time>2022-05-22T08:32:03.000Z</time>
      </trkpt>
      <trkpt lat="43.38196" lon="-0.56334">
        <ele>120.58</ele>
        <time>2022-05-22T08:32:07.000Z</time>
      </trkpt>
      <trkpt lat="43.38197" lon="-0.56307">
        <ele>120.66</ele>
        <time>2022-05-22T08:32:11.000Z</time>
      </trkpt>
      <trkpt lat="43.38203" lon="-0.5628">
        <ele>122.07</ele>
        <time>2022-05-22T08:32:15.000Z</time>
      </trkpt>
      <trkpt lat="43.38207" lon="-0.56253">
        <ele>122.91</ele>
        <time>2022-05-22T08:32:19.000Z</time>
      </trkpt>
      <trkpt lat="43.38204" lon="-0.56225">
        <ele>121.38</ele>
        <time>2022-05-22T08:32:23.000Z</time>
      </trkpt>
      <trkpt lat="43.38198" lon="-0.56199">
        <ele>122.07</ele>
        <time>2022-05-22T08:32:27.000Z</time>
      </trkpt>
      <trkpt lat="43.38189" lon="-0.56171">
        <ele>120.83</ele>
        <time>2022-05-22T08:32:31.000Z</time>
      </trkpt>
      <trkpt lat="43.38178" lon="-0.56145">
        <ele>120.75</ele>
        <time>2022-05-22T08:32:35.000Z</time>
      </trkpt>
      <trkpt lat="43.38169" lon="-0.5612">
        <ele>120.74</ele>
        <time>2022-05-22T08:32:39.000Z</time>
      </trkpt>
      <trkpt lat="43.38157" lon="-0.56101">
        <ele>118.17</ele>
        <time>2022-05-22T08:32:43.000Z</time>
      </trkpt>
      <trkpt lat="43.38144" lon="-0.5608">
        <ele>116.56</ele>
        <time>2022-05-22T08:32:47.000Z</time>
      </trkpt>
      <trkpt lat="43.38131" lon="-0.5606">
        <ele>115.47</ele>
        <time>2022-05-22T08:32:51.000Z</time>
      </trkpt>
      <trkpt lat="43.38118" lon="-0.56041">
        <ele>116.26</ele>
        <time>2022-05-22T08:32:55.000Z</time>
      </trkpt>
      <trkpt lat="43.38105" lon="-0.56023">
        <ele>115.38</ele>
        <time>2022-05-22T08:32:59.000Z</time>
      </trkpt>
      <trkpt lat="43.38093" lon="-0.56004">
        <ele>115.97</ele>
        <time>2022-05-22T08:33:03.000Z</time>
      </trkpt>
      <trkpt lat="43.38082" lon="-0.55978">
        <ele>118.85</ele>
        <time>2022-05-22T08:33:08.000Z</time>
      </trkpt>
      <trkpt lat="43.38069" lon="-0.55962">
        <ele>118.02</ele>
        <time>2022-05-22T08:33:12.000Z</time>
      </trkpt>
      <trkpt lat="43.38056" lon="-0.55938">
        <ele>119.3</ele>
        <time>2022-05-22T08:33:17.000Z</time>
      </trkpt>
      <trkpt lat="43.38047" lon="-0.55915">
        <ele>119.7</ele>
        <time>2022-05-22T08:33:21.000Z</time>
      </trkpt>
      <trkpt lat="43.38045" lon="-0.55887">
        <ele>117.58</ele>
        <time>2022-05-22T08:33:25.000Z</time>
      </trkpt>
      <trkpt lat="43.3804" lon="-0.55858">
        <ele>118.84</ele>
        <time>2022-05-22T08:33:30.000Z</time>
      </trkpt>
      <trkpt lat="43.38031" lon="-0.55836">
        <ele>116.97</ele>
        <time>2022-05-22T08:33:34.000Z</time>
      </trkpt>
      <trkpt lat="43.38021" lon="-0.55814">
        <ele>116.62</ele>
        <time>2022-05-22T08:33:38.000Z</time>
      </trkpt>
      <trkpt lat="43.38014" lon="-0.5579">
        <ele>118.3</ele>
        <time>2022-05-22T08:33:42.000Z</time>
      </trkpt>
      <trkpt lat="43.38008" lon="-0.55766">
        <ele>121.07</ele>
        <time>2022-05-22T08:33:46.000Z</time>
      </trkpt>
      <trkpt lat="43.38003" lon="-0.55741">
        <ele>122.87</ele>
        <time>2022-05-22T08:33:50.000Z</time>
      </trkpt>
      <trkpt lat="43.37996" lon="-0.55716">
        <ele>123.49</ele>
        <time>2022-05-22T08:33:54.000Z</time>
      </trkpt>
      <trkpt lat="43.3799" lon="-0.5569">
        <ele>122.72</ele>
        <time>2022-05-22T08:33:58.000Z</time>
      </trkpt>
      <trkpt lat="43.37994" lon="-0.55662">
        <ele>121.32</ele>
        <time>2022-05-22T08:34:02.000Z</time>
      </trkpt>
      <trkpt lat="43.37997" lon="-0.55633">
        <ele>121.65</ele>
        <time>2022-05-22T08:34:06.000Z</time>
      </trkpt>
      <trkpt lat="43.38" lon="-0.55604">
        <ele>122.02</ele>
        <time>2022-05-22T08:34:10.000Z</time>
      </trkpt>
      <trkpt lat="43.38002" lon="-0.55575">
        <ele>122.14</ele>
        <time>2022-05-22T08:34:14.000Z</time>
      </trkpt>
      <trkpt lat="43.38001" lon="-0.55548">
        <ele>121.81</ele>
        <time>2022-05-22T08:34:18.000Z</time>
      </trkpt>
      <trkpt lat="43.3801" lon="-0.55524">
        <ele>121.47</ele>
        <time>2022-05-22T08:34:22.000Z</time>
      </trkpt>
      <trkpt lat="43.38027" lon="-0.55514">
        <ele>121.06</ele>
        <time>2022-05-22T08:34:27.000Z</time>
      </trkpt>
      <trkpt lat="43.38036" lon="-0.5549">
        <ele>111.38</ele>
        <time>2022-05-22T08:37:04.000Z</time>
      </trkpt>
      <trkpt lat="43.38041" lon="-0.55465">
        <ele>113.76</ele>
        <time>2022-05-22T08:37:12.000Z</time>
      </trkpt>
      <trkpt lat="43.38043" lon="-0.55438">
        <ele>116.75</ele>
        <time>2022-05-22T08:37:19.000Z</time>
      </trkpt>
      <trkpt lat="43.38043" lon="-0.55409">
        <ele>117.11</ele>
        <time>2022-05-22T08:37:25.000Z</time>
      </trkpt>
      <trkpt lat="43.38034" lon="-0.55386">
        <ele>116.67</ele>
        <time>2022-05-22T08:37:30.000Z</time>
      </trkpt>
      <trkpt lat="43.38023" lon="-0.55366">
        <ele>117.41</ele>
        <time>2022-05-22T08:37:35.000Z</time>
      </trkpt>
      <trkpt lat="43.3801" lon="-0.55343">
        <ele>116.55</ele>
        <time>2022-05-22T08:37:41.000Z</time>
      </trkpt>
      <trkpt lat="43.37996" lon="-0.55328">
        <ele>116.67</ele>
        <time>2022-05-22T08:37:46.000Z</time>
      </trkpt>
      <trkpt lat="43.37976" lon="-0.55339">
        <ele>116.87</ele>
        <time>2022-05-22T08:37:51.000Z</time>
      </trkpt>
      <trkpt lat="43.37958" lon="-0.55351">
        <ele>117.92</ele>
        <time>2022-05-22T08:37:56.000Z</time>
      </trkpt>
      <trkpt lat="43.3794" lon="-0.5536">
        <ele>116.87</ele>
        <time>2022-05-22T08:39:57.000Z</time>
      </trkpt>
      <trkpt lat="43.3792" lon="-0.55359">
        <ele>115.72</ele>
        <time>2022-05-22T08:40:03.000Z</time>
      </trkpt>
      <trkpt lat="43.37909" lon="-0.55334">
        <ele>116.27</ele>
        <time>2022-05-22T08:40:08.000Z</time>
      </trkpt>
      <trkpt lat="43.379" lon="-0.5531">
        <ele>116.23</ele>
        <time>2022-05-22T08:40:13.000Z</time>
      </trkpt>
      <trkpt lat="43.3789" lon="-0.55286">
        <ele>116.13</ele>
        <time>2022-05-22T08:40:18.000Z</time>
      </trkpt>
      <trkpt lat="43.37878" lon="-0.5526">
        <ele>115.66</ele>
        <time>2022-05-22T08:40:23.000Z</time>
      </trkpt>
      <trkpt lat="43.3787" lon="-0.55238">
        <ele>115.29</ele>
        <time>2022-05-22T08:40:27.000Z</time>
      </trkpt>
      <trkpt lat="43.37861" lon="-0.55216">
        <ele>114.76</ele>
        <time>2022-05-22T08:40:31.000Z</time>
      </trkpt>
      <trkpt lat="43.3785" lon="-0.55194">
        <ele>113.25</ele>
        <time>2022-05-22T08:40:35.000Z</time>
      </trkpt>
      <trkpt lat="43.37839" lon="-0.55172">
        <ele>112.74</ele>
        <time>2022-05-22T08:40:40.000Z</time>
      </trkpt>
      <trkpt lat="43.37826" lon="-0.5515">
        <ele>113.54</ele>
        <time>2022-05-22T08:41:02.000Z</time>
      </trkpt>
      <trkpt lat="43.37819" lon="-0.55127">
        <ele>114.48</ele>
        <time>2022-05-22T08:41:07.000Z</time>
      </trkpt>
      <trkpt lat="43.37814" lon="-0.55101">
        <ele>112.32</ele>
        <time>2022-05-22T08:41:12.000Z</time>
      </trkpt>
      <trkpt lat="43.3781" lon="-0.55075">
        <ele>112.22</ele>
        <time>2022-05-22T08:41:17.000Z</time>
      </trkpt>
      <trkpt lat="43.37803" lon="-0.54869">
        <ele>115</ele>
      </trkpt>
      <trkpt lat="43.37871" lon="-0.54717">
        <ele>115</ele>
      </trkpt>
      <trkpt lat="43.37915" lon="-0.54645">
        <ele>115</ele>
      </trkpt>
      <trkpt lat="43.37952" lon="-0.54568">
        <ele>116</ele>
      </trkpt>
      <trkpt lat="43.3794" lon="-0.54496">
        <ele>116.1</ele>
      </trkpt>
      <trkpt lat="43.37899" lon="-0.54426">
        <ele>118</ele>
      </trkpt>
      <trkpt lat="43.37824" lon="-0.54279">
        <ele>119</ele>
      </trkpt>
      <trkpt lat="43.37815" lon="-0.54225">
        <ele>119.9</ele>
      </trkpt>
      <trkpt lat="43.3782" lon="-0.54193">
        <ele>120</ele>
      </trkpt>
      <trkpt lat="43.37829" lon="-0.54141">
        <ele>120</ele>
      </trkpt>
      <trkpt lat="43.37831" lon="-0.54097">
        <ele>120</ele>
      </trkpt>
      <trkpt lat="43.37789" lon="-0.54102">
        <ele>120</ele>
      </trkpt>
      <trkpt lat="43.37766" lon="-0.54002">
        <ele>120</ele>
      </trkpt>
      <trkpt lat="43.37754" lon="-0.53943">
        <ele>120</ele>
      </trkpt>
      <trkpt lat="43.37698" lon="-0.538">
        <ele>120.9</ele>
      </trkpt>
      <trkpt lat="43.3769" lon="-0.53834">
        <ele>121</ele>
        <time>2022-05-22T08:46:12.000Z</time>
      </trkpt>
      <trkpt lat="43.37677" lon="-0.53899">
        <ele>120.8</ele>
        <time>2022-05-22T08:46:43.000Z</time>
      </trkpt>
      <trkpt lat="43.3762" lon="-0.53912">
        <ele>120</ele>
        <time>2022-05-22T08:46:47.000Z</time>
      </trkpt>
      <trkpt lat="43.37572" lon="-0.5392">
        <ele>119.2</ele>
      </trkpt>
      <trkpt lat="43.3757" lon="-0.53739">
        <ele>119.5</ele>
      </trkpt>
      <trkpt lat="43.37551" lon="-0.53655">
        <ele>120.1</ele>
      </trkpt>
      <trkpt lat="43.37555" lon="-0.53593">
        <ele>121</ele>
        <time>2022-05-22T08:46:52.000Z</time>
      </trkpt>
      <trkpt lat="43.37559" lon="-0.53542">
        <ele>121</ele>
      </trkpt>
      <trkpt lat="43.37562" lon="-0.53515">
        <ele>121</ele>
        <time>2022-05-22T08:46:57.000Z</time>
      </trkpt>
      <trkpt lat="43.37559" lon="-0.53503">
        <ele>121</ele>
        <time>2022-05-22T08:47:02.000Z</time>
      </trkpt>
      <trkpt lat="43.37561" lon="-0.53497">
        <ele>121</ele>
        <time>2022-05-22T08:47:07.000Z</time>
      </trkpt>
      <trkpt lat="43.37542" lon="-0.5349">
        <ele>121.3</ele>
      </trkpt>
      <trkpt lat="43.37511" lon="-0.53518">
        <ele>121.7</ele>
      </trkpt>
      <trkpt lat="43.37473" lon="-0.53531">
        <ele>122</ele>
        <time>2022-05-22T08:47:53.000Z</time>
      </trkpt>
      <trkpt lat="43.37455" lon="-0.53538">
        <ele>121.8</ele>
        <time>2022-05-22T08:47:59.000Z</time>
      </trkpt>
      <trkpt lat="43.37422" lon="-0.53542">
        <ele>121.1</ele>
        <time>2022-05-22T08:48:04.000Z</time>
      </trkpt>
      <trkpt lat="43.37404" lon="-0.53536">
        <ele>121</ele>
        <time>2022-05-22T08:48:09.000Z</time>
      </trkpt>
      <trkpt lat="43.37391" lon="-0.5353">
        <ele>122.87</ele>
        <time>2022-05-22T08:48:30.000Z</time>
      </trkpt>
      <trkpt lat="43.37374" lon="-0.53515">
        <ele>122.49</ele>
        <time>2022-05-22T08:48:36.000Z</time>
      </trkpt>
      <trkpt lat="43.37358" lon="-0.53498">
        <ele>121.67</ele>
        <time>2022-05-22T08:48:41.000Z</time>
      </trkpt>
      <trkpt lat="43.37345" lon="-0.5348">
        <ele>121.3</ele>
        <time>2022-05-22T08:48:45.000Z</time>
      </trkpt>
      <trkpt lat="43.37334" lon="-0.53459">
        <ele>122.05</ele>
        <time>2022-05-22T08:48:49.000Z</time>
      </trkpt>
      <trkpt lat="43.37324" lon="-0.53437">
        <ele>121.68</ele>
        <time>2022-05-22T08:48:53.000Z</time>
      </trkpt>
      <trkpt lat="43.37315" lon="-0.53415">
        <ele>120.35</ele>
        <time>2022-05-22T08:48:57.000Z</time>
      </trkpt>
      <trkpt lat="43.37306" lon="-0.53392">
        <ele>119.64</ele>
        <time>2022-05-22T08:49:01.000Z</time>
      </trkpt>
      <trkpt lat="43.37294" lon="-0.53373">
        <ele>119.13</ele>
        <time>2022-05-22T08:49:05.000Z</time>
      </trkpt>
      <trkpt lat="43.37278" lon="-0.53361">
        <ele>121.35</ele>
        <time>2022-05-22T08:49:09.000Z</time>
      </trkpt>
      <trkpt lat="43.3726" lon="-0.53351">
        <ele>119.73</ele>
        <time>2022-05-22T08:49:13.000Z</time>
      </trkpt>
      <trkpt lat="43.37241" lon="-0.53343">
        <ele>120.68</ele>
        <time>2022-05-22T08:49:17.000Z</time>
      </trkpt>
      <trkpt lat="43.37221" lon="-0.53334">
        <ele>121.41</ele>
        <time>2022-05-22T08:49:21.000Z</time>
      </trkpt>
      <trkpt lat="43.37203" lon="-0.53327">
        <ele>121.17</ele>
        <time>2022-05-22T08:49:25.000Z</time>
      </trkpt>
      <trkpt lat="43.37182" lon="-0.53317">
        <ele>121.67</ele>
        <time>2022-05-22T08:49:30.000Z</time>
      </trkpt>
      <trkpt lat="43.37163" lon="-0.53304">
        <ele>122.5</ele>
        <time>2022-05-22T08:49:36.000Z</time>
      </trkpt>
      <trkpt lat="43.37146" lon="-0.53296">
        <ele>125.4</ele>
        <time>2022-05-22T08:49:42.000Z</time>
      </trkpt>
      <trkpt lat="43.37127" lon="-0.53287">
        <ele>123.98</ele>
        <time>2022-05-22T08:49:48.000Z</time>
      </trkpt>
      <trkpt lat="43.37108" lon="-0.53273">
        <ele>122.08</ele>
        <time>2022-05-22T08:49:53.000Z</time>
      </trkpt>
      <trkpt lat="43.37085" lon="-0.53282">
        <ele>119.94</ele>
        <time>2022-05-22T08:49:57.000Z</time>
      </trkpt>
      <trkpt lat="43.37069" lon="-0.53293">
        <ele>119.35</ele>
        <time>2022-05-22T08:50:00.000Z</time>
      </trkpt>
      <trkpt lat="43.37048" lon="-0.53307">
        <ele>119.78</ele>
        <time>2022-05-22T08:50:04.000Z</time>
      </trkpt>
      <trkpt lat="43.37029" lon="-0.53315">
        <ele>130.11</ele>
        <time>2022-05-22T08:50:11.000Z</time>
      </trkpt>
      <trkpt lat="43.37016" lon="-0.53338">
        <ele>128.63</ele>
        <time>2022-05-22T08:50:17.000Z</time>
      </trkpt>
      <trkpt lat="43.37017" lon="-0.53366">
        <ele>125.58</ele>
        <time>2022-05-22T08:50:23.000Z</time>
      </trkpt>
      <trkpt lat="43.37017" lon="-0.53396">
        <ele>130.05</ele>
        <time>2022-05-22T08:50:28.000Z</time>
      </trkpt>
      <trkpt lat="43.37003" lon="-0.53417">
        <ele>128.75</ele>
        <time>2022-05-22T08:50:33.000Z</time>
      </trkpt>
      <trkpt lat="43.36992" lon="-0.53443">
        <ele>128.56</ele>
        <time>2022-05-22T08:50:39.000Z</time>
      </trkpt>
      <trkpt lat="43.36978" lon="-0.53462">
        <ele>127.53</ele>
        <time>2022-05-22T08:50:44.000Z</time>
      </trkpt>
      <trkpt lat="43.36955" lon="-0.53465">
        <ele>125.42</ele>
        <time>2022-05-22T08:50:48.000Z</time>
      </trkpt>
      <trkpt lat="43.36935" lon="-0.53475">
        <ele>125.23</ele>
        <time>2022-05-22T08:50:53.000Z</time>
      </trkpt>
      <trkpt lat="43.36915" lon="-0.53478">
        <ele>124.6</ele>
        <time>2022-05-22T08:50:58.000Z</time>
      </trkpt>
      <trkpt lat="43.36899" lon="-0.53465">
        <ele>124.51</ele>
        <time>2022-05-22T08:51:03.000Z</time>
      </trkpt>
      <trkpt lat="43.36887" lon="-0.53443">
        <ele>125.08</ele>
        <time>2022-05-22T08:51:08.000Z</time>
      </trkpt>
      <trkpt lat="43.36879" lon="-0.5342">
        <ele>125.93</ele>
        <time>2022-05-22T08:51:13.000Z</time>
      </trkpt>
      <trkpt lat="43.36868" lon="-0.53397">
        <ele>124.58</ele>
        <time>2022-05-22T08:51:19.000Z</time>
      </trkpt>
      <trkpt lat="43.36856" lon="-0.53374">
        <ele>124.24</ele>
        <time>2022-05-22T08:51:24.000Z</time>
      </trkpt>
      <trkpt lat="43.36843" lon="-0.53355">
        <ele>123.91</ele>
        <time>2022-05-22T08:51:29.000Z</time>
      </trkpt>
      <trkpt lat="43.36825" lon="-0.53343">
        <ele>125.82</ele>
        <time>2022-05-22T08:51:35.000Z</time>
      </trkpt>
      <trkpt lat="43.368" lon="-0.53343">
        <ele>126.22</ele>
        <time>2022-05-22T08:51:40.000Z</time>
      </trkpt>
      <trkpt lat="43.36781" lon="-0.53328">
        <ele>124.29</ele>
        <time>2022-05-22T08:51:45.000Z</time>
      </trkpt>
      <trkpt lat="43.36775" lon="-0.533">
        <ele>122.98</ele>
        <time>2022-05-22T08:51:50.000Z</time>
      </trkpt>
      <trkpt lat="43.36773" lon="-0.53271">
        <ele>122.54</ele>
        <time>2022-05-22T08:51:55.000Z</time>
      </trkpt>
      <trkpt lat="43.3677" lon="-0.53241">
        <ele>122.17</ele>
        <time>2022-05-22T08:52:00.000Z</time>
      </trkpt>
      <trkpt lat="43.36763" lon="-0.53216">
        <ele>122.33</ele>
        <time>2022-05-22T08:52:04.000Z</time>
      </trkpt>
      <trkpt lat="43.36765" lon="-0.53191">
        <ele>121.03</ele>
        <time>2022-05-22T08:52:08.000Z</time>
      </trkpt>
      <trkpt lat="43.36769" lon="-0.5316">
        <ele>119.37</ele>
        <time>2022-05-22T08:52:13.000Z</time>
      </trkpt>
      <trkpt lat="43.3677" lon="-0.53131">
        <ele>119.21</ele>
        <time>2022-05-22T08:52:18.000Z</time>
      </trkpt>
      <trkpt lat="43.36768" lon="-0.53105">
        <ele>119.41</ele>
        <time>2022-05-22T08:52:22.000Z</time>
      </trkpt>
      <trkpt lat="43.36758" lon="-0.53085">
        <ele>118.51</ele>
        <time>2022-05-22T08:52:26.000Z</time>
      </trkpt>
      <trkpt lat="43.36744" lon="-0.53065">
        <ele>120.01</ele>
        <time>2022-05-22T08:52:31.000Z</time>
      </trkpt>
      <trkpt lat="43.36733" lon="-0.53044">
        <ele>120.57</ele>
        <time>2022-05-22T08:52:35.000Z</time>
      </trkpt>
      <trkpt lat="43.36722" lon="-0.53021">
        <ele>121.5</ele>
        <time>2022-05-22T08:52:40.000Z</time>
      </trkpt>
      <trkpt lat="43.36711" lon="-0.53001">
        <ele>121.3</ele>
        <time>2022-05-22T08:52:45.000Z</time>
      </trkpt>
      <trkpt lat="43.36696" lon="-0.52984">
        <ele>121.53</ele>
        <time>2022-05-22T08:52:50.000Z</time>
      </trkpt>
      <trkpt lat="43.36683" lon="-0.52965">
        <ele>122.32</ele>
        <time>2022-05-22T08:52:55.000Z</time>
      </trkpt>
      <trkpt lat="43.36669" lon="-0.52944">
        <ele>123.11</ele>
        <time>2022-05-22T08:53:00.000Z</time>
      </trkpt>
      <trkpt lat="43.36655" lon="-0.52926">
        <ele>122.93</ele>
        <time>2022-05-22T08:53:05.000Z</time>
      </trkpt>
      <trkpt lat="43.36644" lon="-0.52906">
        <ele>123.11</ele>
        <time>2022-05-22T08:53:12.000Z</time>
      </trkpt>
      <trkpt lat="43.36635" lon="-0.52882">
        <ele>123.4</ele>
        <time>2022-05-22T08:53:19.000Z</time>
      </trkpt>
      <trkpt lat="43.36623" lon="-0.52862">
        <ele>118.12</ele>
        <time>2022-05-22T08:54:07.000Z</time>
      </trkpt>
      <trkpt lat="43.36612" lon="-0.52839">
        <ele>120.45</ele>
        <time>2022-05-22T08:54:14.000Z</time>
      </trkpt>
      <trkpt lat="43.36606" lon="-0.52814">
        <ele>119.87</ele>
        <time>2022-05-22T08:54:20.000Z</time>
      </trkpt>
      <trkpt lat="43.36601" lon="-0.52785">
        <ele>118.68</ele>
        <time>2022-05-22T08:54:26.000Z</time>
      </trkpt>
      <trkpt lat="43.36593" lon="-0.52761">
        <ele>118.76</ele>
        <time>2022-05-22T08:54:32.000Z</time>
      </trkpt>
      <trkpt lat="43.36586" lon="-0.52734">
        <ele>119</ele>
        <time>2022-05-22T08:54:38.000Z</time>
      </trkpt>
      <trkpt lat="43.36581" lon="-0.52706">
        <ele>118.15</ele>
        <time>2022-05-22T08:54:44.000Z</time>
      </trkpt>
      <trkpt lat="43.36575" lon="-0.52678">
        <ele>117.53</ele>
        <time>2022-05-22T08:54:50.000Z</time>
      </trkpt>
      <trkpt lat="43.36573" lon="-0.52653">
        <ele>116.64</ele>
        <time>2022-05-22T08:54:55.000Z</time>
      </trkpt>
      <trkpt lat="43.36567" lon="-0.52629">
        <ele>118.99</ele>
        <time>2022-05-22T08:55:00.000Z</time>
      </trkpt>
      <trkpt lat="43.36559" lon="-0.52605">
        <ele>119.35</ele>
        <time>2022-05-22T08:55:05.000Z</time>
      </trkpt>
      <trkpt lat="43.36545" lon="-0.52587">
        <ele>120.5</ele>
        <time>2022-05-22T08:55:10.000Z</time>
      </trkpt>
      <trkpt lat="43.3653" lon="-0.52569">
        <ele>121.19</ele>
        <time>2022-05-22T08:55:15.000Z</time>
      </trkpt>
      <trkpt lat="43.36512" lon="-0.52554">
        <ele>122.18</ele>
        <time>2022-05-22T08:55:20.000Z</time>
      </trkpt>
      <trkpt lat="43.36494" lon="-0.52544">
        <ele>121.2</ele>
        <time>2022-05-22T08:55:25.000Z</time>
      </trkpt>
      <trkpt lat="43.3648" lon="-0.52526">
        <ele>122.18</ele>
        <time>2022-05-22T08:55:33.000Z</time>
      </trkpt>
      <trkpt lat="43.36462" lon="-0.5253">
        <ele>123.13</ele>
        <time>2022-05-22T08:56:00.000Z</time>
      </trkpt>
      <trkpt lat="43.36444" lon="-0.52542">
        <ele>123.97</ele>
        <time>2022-05-22T08:56:14.000Z</time>
      </trkpt>
      <trkpt lat="43.36423" lon="-0.52542">
        <ele>123.39</ele>
        <time>2022-05-22T08:56:22.000Z</time>
      </trkpt>
      <trkpt lat="43.36406" lon="-0.52534">
        <ele>123.41</ele>
        <time>2022-05-22T08:56:28.000Z</time>
      </trkpt>
      <trkpt lat="43.36388" lon="-0.52524">
        <ele>123.15</ele>
        <time>2022-05-22T08:56:34.000Z</time>
      </trkpt>
      <trkpt lat="43.36368" lon="-0.52515">
        <ele>121.91</ele>
        <time>2022-05-22T08:56:40.000Z</time>
      </trkpt>
      <trkpt lat="43.36349" lon="-0.52505">
        <ele>122.56</ele>
        <time>2022-05-22T08:56:46.000Z</time>
      </trkpt>
      <trkpt lat="43.36331" lon="-0.52498">
        <ele>123.28</ele>
        <time>2022-05-22T08:56:51.000Z</time>
      </trkpt>
      <trkpt lat="43.36312" lon="-0.52491">
        <ele>123.66</ele>
        <time>2022-05-22T08:56:56.000Z</time>
      </trkpt>
      <trkpt lat="43.36293" lon="-0.52484">
        <ele>123.83</ele>
        <time>2022-05-22T08:57:01.000Z</time>
      </trkpt>
      <trkpt lat="43.36274" lon="-0.52477">
        <ele>123.96</ele>
        <time>2022-05-22T08:57:06.000Z</time>
      </trkpt>
      <trkpt lat="43.36255" lon="-0.5247">
        <ele>124.28</ele>
        <time>2022-05-22T08:57:11.000Z</time>
      </trkpt>
      <trkpt lat="43.36237" lon="-0.52461">
        <ele>124.38</ele>
        <time>2022-05-22T08:57:16.000Z</time>
      </trkpt>
      <trkpt lat="43.36219" lon="-0.52449">
        <ele>124.8</ele>
        <time>2022-05-22T08:57:21.000Z</time>
      </trkpt>
      <trkpt lat="43.36203" lon="-0.52432">
        <ele>124.73</ele>
        <time>2022-05-22T08:57:26.000Z</time>
      </trkpt>
      <trkpt lat="43.36187" lon="-0.52411">
        <ele>124.52</ele>
        <time>2022-05-22T08:57:31.000Z</time>
      </trkpt>
      <trkpt lat="43.36173" lon="-0.52389">
        <ele>123.95</ele>
        <time>2022-05-22T08:57:36.000Z</time>
      </trkpt>
      <trkpt lat="43.36162" lon="-0.52368">
        <ele>122.81</ele>
        <time>2022-05-22T08:57:40.000Z</time>
      </trkpt>
      <trkpt lat="43.3615" lon="-0.52342">
        <ele>122.26</ele>
        <time>2022-05-22T08:57:45.000Z</time>
      </trkpt>
      <trkpt lat="43.36138" lon="-0.52316">
        <ele>122.27</ele>
        <time>2022-05-22T08:57:50.000Z</time>
      </trkpt>
      <trkpt lat="43.36128" lon="-0.52295">
        <ele>122.55</ele>
        <time>2022-05-22T08:57:54.000Z</time>
      </trkpt>
      <trkpt lat="43.36119" lon="-0.52274">
        <ele>123.28</ele>
        <time>2022-05-22T08:57:58.000Z</time>
      </trkpt>
      <trkpt lat="43.36109" lon="-0.52253">
        <ele>123.09</ele>
        <time>2022-05-22T08:58:02.000Z</time>
      </trkpt>
      <trkpt lat="43.36096" lon="-0.5223">
        <ele>123.46</ele>
        <time>2022-05-22T08:58:07.000Z</time>
      </trkpt>
      <trkpt lat="43.36083" lon="-0.52211">
        <ele>122.34</ele>
        <time>2022-05-22T08:58:11.000Z</time>
      </trkpt>
      <trkpt lat="43.36073" lon="-0.52183">
        <ele>123.92</ele>
        <time>2022-05-22T08:58:16.000Z</time>
      </trkpt>
      <trkpt lat="43.3606" lon="-0.52158">
        <ele>125.69</ele>
        <time>2022-05-22T08:58:21.000Z</time>
      </trkpt>
      <trkpt lat="43.36052" lon="-0.52135">
        <ele>123.96</ele>
        <time>2022-05-22T08:58:25.000Z</time>
      </trkpt>
      <trkpt lat="43.36044" lon="-0.52113">
        <ele>123.86</ele>
        <time>2022-05-22T08:58:29.000Z</time>
      </trkpt>
      <trkpt lat="43.36033" lon="-0.52092">
        <ele>123.28</ele>
        <time>2022-05-22T08:58:33.000Z</time>
      </trkpt>
      <trkpt lat="43.36023" lon="-0.52065">
        <ele>124.3</ele>
        <time>2022-05-22T08:58:38.000Z</time>
      </trkpt>
      <trkpt lat="43.36013" lon="-0.52041">
        <ele>124.3</ele>
        <time>2022-05-22T08:58:43.000Z</time>
      </trkpt>
      <trkpt lat="43.36001" lon="-0.52019">
        <ele>123.62</ele>
        <time>2022-05-22T08:58:48.000Z</time>
      </trkpt>
      <trkpt lat="43.35991" lon="-0.51994">
        <ele>122.35</ele>
        <time>2022-05-22T08:58:53.000Z</time>
      </trkpt>
      <trkpt lat="43.3598" lon="-0.51967">
        <ele>122.33</ele>
        <time>2022-05-22T08:58:58.000Z</time>
      </trkpt>
      <trkpt lat="43.35967" lon="-0.51942">
        <ele>122.43</ele>
        <time>2022-05-22T08:59:03.000Z</time>
      </trkpt>
      <trkpt lat="43.35954" lon="-0.51922">
        <ele>121.49</ele>
        <time>2022-05-22T08:59:07.000Z</time>
      </trkpt>
      <trkpt lat="43.35942" lon="-0.51897">
        <ele>121.23</ele>
        <time>2022-05-22T08:59:12.000Z</time>
      </trkpt>
      <trkpt lat="43.3593" lon="-0.51877">
        <ele>120.92</ele>
        <time>2022-05-22T08:59:16.000Z</time>
      </trkpt>
      <trkpt lat="43.35918" lon="-0.51857">
        <ele>121.06</ele>
        <time>2022-05-22T08:59:20.000Z</time>
      </trkpt>
      <trkpt lat="43.35908" lon="-0.51836">
        <ele>121.51</ele>
        <time>2022-05-22T08:59:24.000Z</time>
      </trkpt>
      <trkpt lat="43.35895" lon="-0.51811">
        <ele>121.59</ele>
        <time>2022-05-22T08:59:29.000Z</time>
      </trkpt>
      <trkpt lat="43.35885" lon="-0.51789">
        <ele>121.8</ele>
        <time>2022-05-22T08:59:33.000Z</time>
      </trkpt>
      <trkpt lat="43.35871" lon="-0.51763">
        <ele>123.29</ele>
        <time>2022-05-22T08:59:38.000Z</time>
      </trkpt>
      <trkpt lat="43.35859" lon="-0.51739">
        <ele>122.92</ele>
        <time>2022-05-22T08:59:43.000Z</time>
      </trkpt>
      <trkpt lat="43.35848" lon="-0.51719">
        <ele>122.78</ele>
        <time>2022-05-22T08:59:47.000Z</time>
      </trkpt>
      <trkpt lat="43.35836" lon="-0.51698">
        <ele>124.13</ele>
        <time>2022-05-22T08:59:51.000Z</time>
      </trkpt>
      <trkpt lat="43.35826" lon="-0.51674">
        <ele>125.46</ele>
        <time>2022-05-22T08:59:56.000Z</time>
      </trkpt>
      <trkpt lat="43.35809" lon="-0.51655">
        <ele>125.99</ele>
        <time>2022-05-22T09:00:01.000Z</time>
      </trkpt>
      <trkpt lat="43.35792" lon="-0.51642">
        <ele>125.1</ele>
        <time>2022-05-22T09:00:05.000Z</time>
      </trkpt>
      <trkpt lat="43.35775" lon="-0.51628">
        <ele>125.76</ele>
        <time>2022-05-22T09:00:09.000Z</time>
      </trkpt>
      <trkpt lat="43.3576" lon="-0.51615">
        <ele>126.12</ele>
        <time>2022-05-22T09:00:13.000Z</time>
      </trkpt>
      <trkpt lat="43.35745" lon="-0.51601">
        <ele>125.75</ele>
        <time>2022-05-22T09:00:17.000Z</time>
      </trkpt>
      <trkpt lat="43.35728" lon="-0.51584">
        <ele>126.07</ele>
        <time>2022-05-22T09:00:22.000Z</time>
      </trkpt>
      <trkpt lat="43.3571" lon="-0.51566">
        <ele>126.31</ele>
        <time>2022-05-22T09:00:27.000Z</time>
      </trkpt>
      <trkpt lat="43.35691" lon="-0.51551">
        <ele>128.31</ele>
        <time>2022-05-22T09:00:32.000Z</time>
      </trkpt>
      <trkpt lat="43.35675" lon="-0.51534">
        <ele>129.32</ele>
        <time>2022-05-22T09:00:37.000Z</time>
      </trkpt>
      <trkpt lat="43.35658" lon="-0.5152">
        <ele>130.7</ele>
        <time>2022-05-22T09:00:42.000Z</time>
      </trkpt>
      <trkpt lat="43.35641" lon="-0.51506">
        <ele>130.62</ele>
        <time>2022-05-22T09:00:48.000Z</time>
      </trkpt>
      <trkpt lat="43.35625" lon="-0.51492">
        <ele>130.22</ele>
        <time>2022-05-22T09:00:53.000Z</time>
      </trkpt>
      <trkpt lat="43.35608" lon="-0.51477">
        <ele>130.3</ele>
        <time>2022-05-22T09:00:58.000Z</time>
      </trkpt>
      <trkpt lat="43.3559" lon="-0.51462">
        <ele>130.07</ele>
        <time>2022-05-22T09:01:03.000Z</time>
      </trkpt>
      <trkpt lat="43.35572" lon="-0.51446">
        <ele>130.58</ele>
        <time>2022-05-22T09:01:08.000Z</time>
      </trkpt>
      <trkpt lat="43.35555" lon="-0.51428">
        <ele>130.48</ele>
        <time>2022-05-22T09:01:13.000Z</time>
      </trkpt>
      <trkpt lat="43.35543" lon="-0.51408">
        <ele>129.94</ele>
        <time>2022-05-22T09:01:17.000Z</time>
      </trkpt>
      <trkpt lat="43.35532" lon="-0.51388">
        <ele>130.65</ele>
        <time>2022-05-22T09:01:21.000Z</time>
      </trkpt>
      <trkpt lat="43.35523" lon="-0.51365">
        <ele>130.75</ele>
        <time>2022-05-22T09:01:25.000Z</time>
      </trkpt>
      <trkpt lat="43.35514" lon="-0.51341">
        <ele>130.51</ele>
        <time>2022-05-22T09:01:29.000Z</time>
      </trkpt>
      <trkpt lat="43.35506" lon="-0.51317">
        <ele>131.24</ele>
        <time>2022-05-22T09:01:33.000Z</time>
      </trkpt>
      <trkpt lat="43.35497" lon="-0.51295">
        <ele>130.95</ele>
        <time>2022-05-22T09:01:37.000Z</time>
      </trkpt>
      <trkpt lat="43.35486" lon="-0.51273">
        <ele>131.06</ele>
        <time>2022-05-22T09:01:41.000Z</time>
      </trkpt>
      <trkpt lat="43.35476" lon="-0.51252">
        <ele>132.68</ele>
        <time>2022-05-22T09:01:45.000Z</time>
      </trkpt>
      <trkpt lat="43.35465" lon="-0.51231">
        <ele>133.56</ele>
        <time>2022-05-22T09:01:49.000Z</time>
      </trkpt>
      <trkpt lat="43.35454" lon="-0.51206">
        <ele>131.47</ele>
        <time>2022-05-22T09:01:54.000Z</time>
      </trkpt>
      <trkpt lat="43.35443" lon="-0.51185">
        <ele>132.29</ele>
        <time>2022-05-22T09:01:59.000Z</time>
      </trkpt>
      <trkpt lat="43.35431" lon="-0.51162">
        <ele>132.09</ele>
        <time>2022-05-22T09:02:04.000Z</time>
      </trkpt>
      <trkpt lat="43.35421" lon="-0.51142">
        <ele>131.06</ele>
        <time>2022-05-22T09:02:08.000Z</time>
      </trkpt>
      <trkpt lat="43.3541" lon="-0.51121">
        <ele>130.48</ele>
        <time>2022-05-22T09:02:12.000Z</time>
      </trkpt>
      <trkpt lat="43.35398" lon="-0.51096">
        <ele>127.89</ele>
        <time>2022-05-22T09:02:17.000Z</time>
      </trkpt>
      <trkpt lat="43.35386" lon="-0.51073">
        <ele>126.76</ele>
        <time>2022-05-22T09:02:22.000Z</time>
      </trkpt>
      <trkpt lat="43.35371" lon="-0.51051">
        <ele>129.88</ele>
        <time>2022-05-22T09:02:28.000Z</time>
      </trkpt>
      <trkpt lat="43.35359" lon="-0.51029">
        <ele>130.06</ele>
        <time>2022-05-22T09:02:33.000Z</time>
      </trkpt>
      <trkpt lat="43.35347" lon="-0.51007">
        <ele>130.26</ele>
        <time>2022-05-22T09:02:38.000Z</time>
      </trkpt>
      <trkpt lat="43.35335" lon="-0.50988">
        <ele>130.04</ele>
        <time>2022-05-22T09:02:43.000Z</time>
      </trkpt>
      <trkpt lat="43.35321" lon="-0.50968">
        <ele>129.2</ele>
        <time>2022-05-22T09:02:50.000Z</time>
      </trkpt>
      <trkpt lat="43.35309" lon="-0.50949">
        <ele>128.32</ele>
        <time>2022-05-22T09:02:56.000Z</time>
      </trkpt>
      <trkpt lat="43.35294" lon="-0.50929">
        <ele>127.54</ele>
        <time>2022-05-22T09:03:02.000Z</time>
      </trkpt>
      <trkpt lat="43.3528" lon="-0.50911">
        <ele>127.44</ele>
        <time>2022-05-22T09:03:07.000Z</time>
      </trkpt>
      <trkpt lat="43.35263" lon="-0.50893">
        <ele>127.76</ele>
        <time>2022-05-22T09:03:13.000Z</time>
      </trkpt>
      <trkpt lat="43.35249" lon="-0.50878">
        <ele>127.91</ele>
        <time>2022-05-22T09:03:18.000Z</time>
      </trkpt>
      <trkpt lat="43.35235" lon="-0.50862">
        <ele>129.6</ele>
        <time>2022-05-22T09:03:23.000Z</time>
      </trkpt>
      <trkpt lat="43.35223" lon="-0.5084">
        <ele>130.49</ele>
        <time>2022-05-22T09:03:29.000Z</time>
      </trkpt>
      <trkpt lat="43.35231" lon="-0.50817">
        <ele>130.04</ele>
        <time>2022-05-22T09:03:35.000Z</time>
      </trkpt>
      <trkpt lat="43.35237" lon="-0.50792">
        <ele>130.74</ele>
        <time>2022-05-22T09:03:41.000Z</time>
      </trkpt>
      <trkpt lat="43.35251" lon="-0.50773">
        <ele>131.43</ele>
        <time>2022-05-22T09:03:47.000Z</time>
      </trkpt>
      <trkpt lat="43.35246" lon="-0.50748">
        <ele>129</ele>
        <time>2022-05-22T09:04:11.000Z</time>
      </trkpt>
      <trkpt lat="43.35233" lon="-0.50729">
        <ele>129.84</ele>
        <time>2022-05-22T09:04:18.000Z</time>
      </trkpt>
      <trkpt lat="43.35216" lon="-0.50718">
        <ele>128.35</ele>
        <time>2022-05-22T09:04:24.000Z</time>
      </trkpt>
      <trkpt lat="43.35202" lon="-0.50701">
        <ele>128.18</ele>
        <time>2022-05-22T09:04:31.000Z</time>
      </trkpt>
      <trkpt lat="43.35197" lon="-0.50676">
        <ele>127.32</ele>
        <time>2022-05-22T09:04:38.000Z</time>
      </trkpt>
      <trkpt lat="43.35196" lon="-0.50648">
        <ele>126.51</ele>
        <time>2022-05-22T09:04:44.000Z</time>
      </trkpt>
      <trkpt lat="43.35187" lon="-0.50622">
        <ele>130.49</ele>
        <time>2022-05-22T09:04:50.000Z</time>
      </trkpt>
      <trkpt lat="43.35175" lon="-0.50601">
        <ele>131.07</ele>
        <time>2022-05-22T09:04:55.000Z</time>
      </trkpt>
      <trkpt lat="43.35161" lon="-0.50582">
        <ele>131.82</ele>
        <time>2022-05-22T09:05:00.000Z</time>
      </trkpt>
      <trkpt lat="43.3515" lon="-0.50562">
        <ele>131.58</ele>
        <time>2022-05-22T09:05:05.000Z</time>
      </trkpt>
      <trkpt lat="43.35134" lon="-0.50547">
        <ele>131.44</ele>
        <time>2022-05-22T09:05:10.000Z</time>
      </trkpt>
      <trkpt lat="43.35116" lon="-0.50538">
        <ele>132.55</ele>
        <time>2022-05-22T09:05:15.000Z</time>
      </trkpt>
      <trkpt lat="43.35097" lon="-0.50533">
        <ele>132.58</ele>
        <time>2022-05-22T09:05:20.000Z</time>
      </trkpt>
      <trkpt lat="43.35079" lon="-0.50528">
        <ele>134.9</ele>
        <time>2022-05-22T09:05:25.000Z</time>
      </trkpt>
      <trkpt lat="43.3506" lon="-0.50524">
        <ele>135.95</ele>
        <time>2022-05-22T09:05:29.000Z</time>
      </trkpt>
      <trkpt lat="43.35042" lon="-0.50508">
        <ele>134.67</ele>
        <time>2022-05-22T09:05:34.000Z</time>
      </trkpt>
      <trkpt lat="43.35026" lon="-0.50487">
        <ele>133.51</ele>
        <time>2022-05-22T09:05:39.000Z</time>
      </trkpt>
      <trkpt lat="43.35009" lon="-0.5047">
        <ele>133.59</ele>
        <time>2022-05-22T09:05:44.000Z</time>
      </trkpt>
      <trkpt lat="43.34996" lon="-0.5045">
        <ele>132.69</ele>
        <time>2022-05-22T09:05:49.000Z</time>
      </trkpt>
      <trkpt lat="43.34982" lon="-0.50434">
        <ele>132.66</ele>
        <time>2022-05-22T09:05:53.000Z</time>
      </trkpt>
      <trkpt lat="43.34967" lon="-0.50417">
        <ele>132.52</ele>
        <time>2022-05-22T09:05:58.000Z</time>
      </trkpt>
      <trkpt lat="43.34945" lon="-0.50405">
        <ele>131.81</ele>
        <time>2022-05-22T09:06:03.000Z</time>
      </trkpt>
      <trkpt lat="43.34926" lon="-0.50393">
        <ele>130.62</ele>
        <time>2022-05-22T09:06:08.000Z</time>
      </trkpt>
      <trkpt lat="43.34911" lon="-0.5038">
        <ele>130.05</ele>
        <time>2022-05-22T09:06:12.000Z</time>
      </trkpt>
      <trkpt lat="43.34896" lon="-0.50357">
        <ele>132.48</ele>
        <time>2022-05-22T09:06:17.000Z</time>
      </trkpt>
      <trkpt lat="43.34886" lon="-0.50335">
        <ele>132.36</ele>
        <time>2022-05-22T09:06:21.000Z</time>
      </trkpt>
      <trkpt lat="43.34877" lon="-0.50312">
        <ele>131.62</ele>
        <time>2022-05-22T09:06:25.000Z</time>
      </trkpt>
      <trkpt lat="43.34861" lon="-0.50301">
        <ele>130.9</ele>
        <time>2022-05-22T09:06:29.000Z</time>
      </trkpt>
      <trkpt lat="43.3484" lon="-0.50296">
        <ele>132.63</ele>
        <time>2022-05-22T09:06:34.000Z</time>
      </trkpt>
      <trkpt lat="43.34821" lon="-0.50295">
        <ele>132.6</ele>
        <time>2022-05-22T09:06:39.000Z</time>
      </trkpt>
      <trkpt lat="43.34803" lon="-0.50283">
        <ele>133.3</ele>
        <time>2022-05-22T09:06:45.000Z</time>
      </trkpt>
      <trkpt lat="43.34789" lon="-0.50264">
        <ele>134.5</ele>
        <time>2022-05-22T09:06:50.000Z</time>
      </trkpt>
      <trkpt lat="43.34774" lon="-0.50249">
        <ele>134.9</ele>
        <time>2022-05-22T09:06:56.000Z</time>
      </trkpt>
      <trkpt lat="43.34754" lon="-0.50243">
        <ele>134.94</ele>
        <time>2022-05-22T09:07:01.000Z</time>
      </trkpt>
      <trkpt lat="43.34738" lon="-0.50229">
        <ele>134.81</ele>
        <time>2022-05-22T09:07:06.000Z</time>
      </trkpt>
      <trkpt lat="43.34725" lon="-0.50208">
        <ele>135.76</ele>
        <time>2022-05-22T09:07:11.000Z</time>
      </trkpt>
      <trkpt lat="43.34705" lon="-0.50198">
        <ele>135.54</ele>
        <time>2022-05-22T09:07:16.000Z</time>
      </trkpt>
      <trkpt lat="43.34686" lon="-0.50182">
        <ele>136.11</ele>
        <time>2022-05-22T09:07:22.000Z</time>
      </trkpt>
      <trkpt lat="43.34671" lon="-0.50169">
        <ele>136.26</ele>
        <time>2022-05-22T09:07:27.000Z</time>
      </trkpt>
      <trkpt lat="43.34653" lon="-0.50157">
        <ele>136.9</ele>
        <time>2022-05-22T09:07:33.000Z</time>
      </trkpt>
      <trkpt lat="43.34633" lon="-0.50145">
        <ele>138.96</ele>
        <time>2022-05-22T09:07:39.000Z</time>
      </trkpt>
      <trkpt lat="43.34611" lon="-0.50139">
        <ele>139.11</ele>
        <time>2022-05-22T09:07:44.000Z</time>
      </trkpt>
      <trkpt lat="43.34591" lon="-0.50134">
        <ele>136.74</ele>
        <time>2022-05-22T09:07:48.000Z</time>
      </trkpt>
      <trkpt lat="43.34569" lon="-0.50123">
        <ele>134.73</ele>
        <time>2022-05-22T09:07:53.000Z</time>
      </trkpt>
      <trkpt lat="43.34554" lon="-0.50104">
        <ele>136.31</ele>
        <time>2022-05-22T09:07:58.000Z</time>
      </trkpt>
      <trkpt lat="43.34536" lon="-0.50085">
        <ele>135.11</ele>
        <time>2022-05-22T09:08:03.000Z</time>
      </trkpt>
      <trkpt lat="43.34525" lon="-0.50061">
        <ele>133.16</ele>
        <time>2022-05-22T09:08:08.000Z</time>
      </trkpt>
      <trkpt lat="43.34512" lon="-0.50043">
        <ele>132.82</ele>
        <time>2022-05-22T09:08:12.000Z</time>
      </trkpt>
      <trkpt lat="43.34499" lon="-0.50023">
        <ele>135.6</ele>
        <time>2022-05-22T09:08:17.000Z</time>
      </trkpt>
      <trkpt lat="43.34484" lon="-0.5">
        <ele>136.8</ele>
        <time>2022-05-22T09:08:22.000Z</time>
      </trkpt>
      <trkpt lat="43.34472" lon="-0.49982">
        <ele>136.2</ele>
        <time>2022-05-22T09:08:26.000Z</time>
      </trkpt>
      <trkpt lat="43.34457" lon="-0.49967">
        <ele>135.81</ele>
        <time>2022-05-22T09:08:30.000Z</time>
      </trkpt>
      <trkpt lat="43.34445" lon="-0.49948">
        <ele>136.26</ele>
        <time>2022-05-22T09:08:34.000Z</time>
      </trkpt>
      <trkpt lat="43.34433" lon="-0.49927">
        <ele>135.23</ele>
        <time>2022-05-22T09:08:38.000Z</time>
      </trkpt>
      <trkpt lat="43.3442" lon="-0.49902">
        <ele>134.71</ele>
        <time>2022-05-22T09:08:43.000Z</time>
      </trkpt>
      <trkpt lat="43.34408" lon="-0.49883">
        <ele>135.09</ele>
        <time>2022-05-22T09:08:47.000Z</time>
      </trkpt>
      <trkpt lat="43.34399" lon="-0.49862">
        <ele>134.77</ele>
        <time>2022-05-22T09:08:51.000Z</time>
      </trkpt>
      <trkpt lat="43.34391" lon="-0.4984">
        <ele>134.26</ele>
        <time>2022-05-22T09:08:55.000Z</time>
      </trkpt>
      <trkpt lat="43.34382" lon="-0.49818">
        <ele>133.7</ele>
        <time>2022-05-22T09:08:59.000Z</time>
      </trkpt>
      <trkpt lat="43.34373" lon="-0.49794">
        <ele>133.32</ele>
        <time>2022-05-22T09:09:03.000Z</time>
      </trkpt>
      <trkpt lat="43.34365" lon="-0.49769">
        <ele>132.64</ele>
        <time>2022-05-22T09:09:07.000Z</time>
      </trkpt>
      <trkpt lat="43.34354" lon="-0.49748">
        <ele>132.2</ele>
        <time>2022-05-22T09:09:11.000Z</time>
      </trkpt>
      <trkpt lat="43.34342" lon="-0.49723">
        <ele>134.7</ele>
        <time>2022-05-22T09:09:16.000Z</time>
      </trkpt>
      <trkpt lat="43.34331" lon="-0.49703">
        <ele>134.87</ele>
        <time>2022-05-22T09:09:20.000Z</time>
      </trkpt>
      <trkpt lat="43.34317" lon="-0.49681">
        <ele>134.57</ele>
        <time>2022-05-22T09:09:25.000Z</time>
      </trkpt>
      <trkpt lat="43.34301" lon="-0.49659">
        <ele>134.5</ele>
        <time>2022-05-22T09:09:30.000Z</time>
      </trkpt>
      <trkpt lat="43.34293" lon="-0.49637">
        <ele>134.49</ele>
        <time>2022-05-22T09:09:34.000Z</time>
      </trkpt>
      <trkpt lat="43.3429" lon="-0.49608">
        <ele>135.27</ele>
        <time>2022-05-22T09:09:39.000Z</time>
      </trkpt>
      <trkpt lat="43.3429" lon="-0.49583">
        <ele>134.68</ele>
        <time>2022-05-22T09:09:43.000Z</time>
      </trkpt>
      <trkpt lat="43.3429" lon="-0.49554">
        <ele>133.09</ele>
        <time>2022-05-22T09:09:48.000Z</time>
      </trkpt>
      <trkpt lat="43.34294" lon="-0.49527">
        <ele>132.92</ele>
        <time>2022-05-22T09:09:53.000Z</time>
      </trkpt>
      <trkpt lat="43.34294" lon="-0.49497">
        <ele>133.96</ele>
        <time>2022-05-22T09:09:58.000Z</time>
      </trkpt>
      <trkpt lat="43.34289" lon="-0.49469">
        <ele>135.41</ele>
        <time>2022-05-22T09:10:03.000Z</time>
      </trkpt>
      <trkpt lat="43.34273" lon="-0.49449">
        <ele>136.23</ele>
        <time>2022-05-22T09:10:08.000Z</time>
      </trkpt>
      <trkpt lat="43.3426" lon="-0.49426">
        <ele>138.49</ele>
        <time>2022-05-22T09:10:13.000Z</time>
      </trkpt>
      <trkpt lat="43.34248" lon="-0.49405">
        <ele>138.74</ele>
        <time>2022-05-22T09:10:17.000Z</time>
      </trkpt>
      <trkpt lat="43.34238" lon="-0.49383">
        <ele>138.47</ele>
        <time>2022-05-22T09:10:21.000Z</time>
      </trkpt>
      <trkpt lat="43.34229" lon="-0.49361">
        <ele>139.07</ele>
        <time>2022-05-22T09:10:25.000Z</time>
      </trkpt>
      <trkpt lat="43.34219" lon="-0.49335">
        <ele>139.22</ele>
        <time>2022-05-22T09:10:30.000Z</time>
      </trkpt>
      <trkpt lat="43.34211" lon="-0.49312">
        <ele>140.31</ele>
        <time>2022-05-22T09:10:34.000Z</time>
      </trkpt>
      <trkpt lat="43.34202" lon="-0.4929">
        <ele>141.65</ele>
        <time>2022-05-22T09:10:38.000Z</time>
      </trkpt>
      <trkpt lat="43.3419" lon="-0.49264">
        <ele>140.81</ele>
        <time>2022-05-22T09:10:43.000Z</time>
      </trkpt>
      <trkpt lat="43.34175" lon="-0.49246">
        <ele>139.94</ele>
        <time>2022-05-22T09:10:47.000Z</time>
      </trkpt>
      <trkpt lat="43.34163" lon="-0.49227">
        <ele>139.29</ele>
        <time>2022-05-22T09:10:51.000Z</time>
      </trkpt>
      <trkpt lat="43.34149" lon="-0.49205">
        <ele>138.58</ele>
        <time>2022-05-22T09:10:56.000Z</time>
      </trkpt>
      <trkpt lat="43.34135" lon="-0.49225">
        <ele>139.68</ele>
        <time>2022-05-22T09:11:07.000Z</time>
      </trkpt>
      <trkpt lat="43.34125" lon="-0.4925">
        <ele>140.24</ele>
        <time>2022-05-22T09:11:13.000Z</time>
      </trkpt>
      <trkpt lat="43.34117" lon="-0.49278">
        <ele>138.5</ele>
        <time>2022-05-22T09:11:19.000Z</time>
      </trkpt>
      <trkpt lat="43.34109" lon="-0.49301">
        <ele>139.42</ele>
        <time>2022-05-22T09:11:24.000Z</time>
      </trkpt>
      <trkpt lat="43.34101" lon="-0.49326">
        <ele>139.46</ele>
        <time>2022-05-22T09:11:29.000Z</time>
      </trkpt>
      <trkpt lat="43.34097" lon="-0.49353">
        <ele>139.08</ele>
        <time>2022-05-22T09:11:34.000Z</time>
      </trkpt>
      <trkpt lat="43.34092" lon="-0.49381">
        <ele>138.32</ele>
        <time>2022-05-22T09:11:39.000Z</time>
      </trkpt>
      <trkpt lat="43.34083" lon="-0.49407">
        <ele>138.67</ele>
        <time>2022-05-22T09:11:44.000Z</time>
      </trkpt>
      <trkpt lat="43.34075" lon="-0.49431">
        <ele>138.12</ele>
        <time>2022-05-22T09:11:49.000Z</time>
      </trkpt>
      <trkpt lat="43.34068" lon="-0.49455">
        <ele>137.73</ele>
        <time>2022-05-22T09:11:54.000Z</time>
      </trkpt>
      <trkpt lat="43.34063" lon="-0.49479">
        <ele>136.22</ele>
        <time>2022-05-22T09:12:00.000Z</time>
      </trkpt>
      <trkpt lat="43.34047" lon="-0.49464">
        <ele>137.1</ele>
        <time>2022-05-22T09:12:07.000Z</time>
      </trkpt>
      <trkpt lat="43.34043" lon="-0.49439">
        <ele>137.71</ele>
        <time>2022-05-22T09:12:12.000Z</time>
      </trkpt>
      <trkpt lat="43.34036" lon="-0.49414">
        <ele>135.86</ele>
        <time>2022-05-22T09:12:17.000Z</time>
      </trkpt>
      <trkpt lat="43.3402" lon="-0.49398">
        <ele>134.88</ele>
        <time>2022-05-22T09:12:22.000Z</time>
      </trkpt>
      <trkpt lat="43.34003" lon="-0.49384">
        <ele>135.69</ele>
        <time>2022-05-22T09:12:27.000Z</time>
      </trkpt>
      <trkpt lat="43.33988" lon="-0.49366">
        <ele>137.24</ele>
        <time>2022-05-22T09:12:33.000Z</time>
      </trkpt>
      <trkpt lat="43.33972" lon="-0.49354">
        <ele>138.19</ele>
        <time>2022-05-22T09:12:38.000Z</time>
      </trkpt>
      <trkpt lat="43.33953" lon="-0.49339">
        <ele>139.37</ele>
        <time>2022-05-22T09:12:43.000Z</time>
      </trkpt>
      <trkpt lat="43.33938" lon="-0.49323">
        <ele>139.07</ele>
        <time>2022-05-22T09:12:48.000Z</time>
      </trkpt>
      <trkpt lat="43.33924" lon="-0.49305">
        <ele>138.6</ele>
        <time>2022-05-22T09:12:53.000Z</time>
      </trkpt>
      <trkpt lat="43.33912" lon="-0.49286">
        <ele>136.77</ele>
        <time>2022-05-22T09:12:58.000Z</time>
      </trkpt>
      <trkpt lat="43.33912" lon="-0.49261">
        <ele>138.34</ele>
        <time>2022-05-22T09:13:03.000Z</time>
      </trkpt>
      <trkpt lat="43.33916" lon="-0.49234">
        <ele>137.19</ele>
        <time>2022-05-22T09:13:08.000Z</time>
      </trkpt>
      <trkpt lat="43.33918" lon="-0.49209">
        <ele>136.8</ele>
        <time>2022-05-22T09:13:13.000Z</time>
      </trkpt>
      <trkpt lat="43.33924" lon="-0.49182">
        <ele>137.54</ele>
        <time>2022-05-22T09:13:18.000Z</time>
      </trkpt>
      <trkpt lat="43.33931" lon="-0.49157">
        <ele>138.62</ele>
        <time>2022-05-22T09:13:23.000Z</time>
      </trkpt>
      <trkpt lat="43.33923" lon="-0.49134">
        <ele>138.77</ele>
        <time>2022-05-22T09:13:28.000Z</time>
      </trkpt>
      <trkpt lat="43.33919" lon="-0.4911">
        <ele>138.97</ele>
        <time>2022-05-22T09:13:33.000Z</time>
      </trkpt>
      <trkpt lat="43.33921" lon="-0.49082">
        <ele>139</ele>
        <time>2022-05-22T09:13:39.000Z</time>
      </trkpt>
      <trkpt lat="43.33933" lon="-0.49057">
        <ele>138.35</ele>
        <time>2022-05-22T09:13:45.000Z</time>
      </trkpt>
      <trkpt lat="43.33937" lon="-0.49032">
        <ele>136.24</ele>
        <time>2022-05-22T09:13:50.000Z</time>
      </trkpt>
      <trkpt lat="43.33938" lon="-0.49005">
        <ele>137.03</ele>
        <time>2022-05-22T09:13:55.000Z</time>
      </trkpt>
      <trkpt lat="43.33946" lon="-0.48982">
        <ele>137.55</ele>
        <time>2022-05-22T09:14:00.000Z</time>
      </trkpt>
      <trkpt lat="43.33956" lon="-0.48959">
        <ele>138.44</ele>
        <time>2022-05-22T09:14:06.000Z</time>
      </trkpt>
      <trkpt lat="43.3396" lon="-0.48932">
        <ele>140.19</ele>
        <time>2022-05-22T09:14:11.000Z</time>
      </trkpt>
      <trkpt lat="43.33967" lon="-0.48906">
        <ele>139.96</ele>
        <time>2022-05-22T09:14:16.000Z</time>
      </trkpt>
      <trkpt lat="43.33975" lon="-0.48884">
        <ele>139.84</ele>
        <time>2022-05-22T09:14:21.000Z</time>
      </trkpt>
      <trkpt lat="43.33987" lon="-0.48862">
        <ele>136.74</ele>
        <time>2022-05-22T09:14:26.000Z</time>
      </trkpt>
      <trkpt lat="43.33996" lon="-0.48836">
        <ele>139.73</ele>
        <time>2022-05-22T09:14:32.000Z</time>
      </trkpt>
      <trkpt lat="43.34007" lon="-0.48815">
        <ele>138.83</ele>
        <time>2022-05-22T09:14:37.000Z</time>
      </trkpt>
      <trkpt lat="43.34018" lon="-0.48792">
        <ele>142.42</ele>
        <time>2022-05-22T09:14:43.000Z</time>
      </trkpt>
      <trkpt lat="43.34018" lon="-0.48766">
        <ele>141.99</ele>
        <time>2022-05-22T09:14:48.000Z</time>
      </trkpt>
      <trkpt lat="43.34003" lon="-0.48749">
        <ele>144.84</ele>
        <time>2022-05-22T09:14:55.000Z</time>
      </trkpt>
      <trkpt lat="43.33998" lon="-0.48726">
        <ele>145.63</ele>
        <time>2022-05-22T09:15:00.000Z</time>
      </trkpt>
      <trkpt lat="43.33994" lon="-0.48697">
        <ele>144.04</ele>
        <time>2022-05-22T09:15:06.000Z</time>
      </trkpt>
      <trkpt lat="43.33986" lon="-0.48672">
        <ele>146.72</ele>
        <time>2022-05-22T09:15:12.000Z</time>
      </trkpt>
      <trkpt lat="43.33971" lon="-0.48655">
        <ele>147.36</ele>
        <time>2022-05-22T09:15:22.000Z</time>
      </trkpt>
      <trkpt lat="43.33977" lon="-0.48631">
        <ele>148.02</ele>
        <time>2022-05-22T09:15:31.000Z</time>
      </trkpt>
      <trkpt lat="43.33959" lon="-0.48622">
        <ele>147.67</ele>
        <time>2022-05-22T09:15:39.000Z</time>
      </trkpt>
      <trkpt lat="43.33939" lon="-0.48624">
        <ele>149.05</ele>
        <time>2022-05-22T09:15:45.000Z</time>
      </trkpt>
      <trkpt lat="43.33918" lon="-0.48628">
        <ele>146.76</ele>
        <time>2022-05-22T09:15:50.000Z</time>
      </trkpt>
      <trkpt lat="43.33899" lon="-0.48633">
        <ele>144.87</ele>
        <time>2022-05-22T09:15:55.000Z</time>
      </trkpt>
      <trkpt lat="43.33881" lon="-0.48633">
        <ele>145.45</ele>
        <time>2022-05-22T09:16:03.000Z</time>
      </trkpt>
      <trkpt lat="43.33862" lon="-0.48625">
        <ele>143.01</ele>
        <time>2022-05-22T09:16:11.000Z</time>
      </trkpt>
      <trkpt lat="43.33851" lon="-0.48604">
        <ele>143.25</ele>
        <time>2022-05-22T09:16:18.000Z</time>
      </trkpt>
      <trkpt lat="43.33846" lon="-0.48579">
        <ele>142.16</ele>
        <time>2022-05-22T09:16:27.000Z</time>
      </trkpt>
      <trkpt lat="43.33842" lon="-0.4855">
        <ele>142.65</ele>
        <time>2022-05-22T09:16:35.000Z</time>
      </trkpt>
      <trkpt lat="43.33835" lon="-0.48525">
        <ele>141.99</ele>
        <time>2022-05-22T09:16:41.000Z</time>
      </trkpt>
      <trkpt lat="43.3383" lon="-0.48499">
        <ele>141.82</ele>
        <time>2022-05-22T09:16:47.000Z</time>
      </trkpt>
      <trkpt lat="43.33827" lon="-0.48475">
        <ele>142.17</ele>
        <time>2022-05-22T09:16:52.000Z</time>
      </trkpt>
      <trkpt lat="43.33822" lon="-0.48447">
        <ele>141.57</ele>
        <time>2022-05-22T09:16:58.000Z</time>
      </trkpt>
      <trkpt lat="43.33819" lon="-0.48417">
        <ele>142.16</ele>
        <time>2022-05-22T09:17:04.000Z</time>
      </trkpt>
      <trkpt lat="43.33813" lon="-0.48392">
        <ele>144.14</ele>
        <time>2022-05-22T09:17:09.000Z</time>
      </trkpt>
      <trkpt lat="43.33809" lon="-0.48366">
        <ele>145.26</ele>
        <time>2022-05-22T09:17:14.000Z</time>
      </trkpt>
      <trkpt lat="43.33799" lon="-0.4834">
        <ele>143.83</ele>
        <time>2022-05-22T09:17:19.000Z</time>
      </trkpt>
      <trkpt lat="43.33789" lon="-0.48316">
        <ele>142.21</ele>
        <time>2022-05-22T09:17:24.000Z</time>
      </trkpt>
      <trkpt lat="43.33779" lon="-0.48289">
        <ele>141.61</ele>
        <time>2022-05-22T09:17:29.000Z</time>
      </trkpt>
      <trkpt lat="43.33769" lon="-0.48262">
        <ele>141.24</ele>
        <time>2022-05-22T09:17:34.000Z</time>
      </trkpt>
      <trkpt lat="43.33756" lon="-0.48237">
        <ele>141.16</ele>
        <time>2022-05-22T09:17:39.000Z</time>
      </trkpt>
      <trkpt lat="43.33743" lon="-0.48218">
        <ele>139.62</ele>
        <time>2022-05-22T09:17:43.000Z</time>
      </trkpt>
      <trkpt lat="43.33735" lon="-0.48191">
        <ele>139.68</ele>
        <time>2022-05-22T09:17:48.000Z</time>
      </trkpt>
      <trkpt lat="43.33728" lon="-0.48166">
        <ele>141.11</ele>
        <time>2022-05-22T09:17:53.000Z</time>
      </trkpt>
      <trkpt lat="43.33723" lon="-0.48141">
        <ele>140.55</ele>
        <time>2022-05-22T09:17:58.000Z</time>
      </trkpt>
      <trkpt lat="43.33725" lon="-0.48117">
        <ele>141.03</ele>
        <time>2022-05-22T09:18:02.000Z</time>
      </trkpt>
      <trkpt lat="43.3372" lon="-0.48088">
        <ele>141.35</ele>
        <time>2022-05-22T09:18:07.000Z</time>
      </trkpt>
      <trkpt lat="43.33712" lon="-0.48061">
        <ele>141.15</ele>
        <time>2022-05-22T09:18:12.000Z</time>
      </trkpt>
      <trkpt lat="43.33705" lon="-0.48032">
        <ele>142.52</ele>
        <time>2022-05-22T09:18:17.000Z</time>
      </trkpt>
      <trkpt lat="43.33696" lon="-0.48003">
        <ele>141.49</ele>
        <time>2022-05-22T09:18:22.000Z</time>
      </trkpt>
      <trkpt lat="43.33687" lon="-0.47975">
        <ele>143.64</ele>
        <time>2022-05-22T09:18:27.000Z</time>
      </trkpt>
      <trkpt lat="43.33675" lon="-0.47949">
        <ele>142.65</ele>
        <time>2022-05-22T09:18:32.000Z</time>
      </trkpt>
      <trkpt lat="43.33665" lon="-0.47925">
        <ele>143.27</ele>
        <time>2022-05-22T09:18:37.000Z</time>
      </trkpt>
      <trkpt lat="43.33651" lon="-0.47904">
        <ele>142.96</ele>
        <time>2022-05-22T09:18:42.000Z</time>
      </trkpt>
      <trkpt lat="43.33636" lon="-0.47884">
        <ele>141.21</ele>
        <time>2022-05-22T09:18:47.000Z</time>
      </trkpt>
      <trkpt lat="43.33624" lon="-0.47864">
        <ele>143.01</ele>
        <time>2022-05-22T09:18:52.000Z</time>
      </trkpt>
      <trkpt lat="43.33611" lon="-0.47841">
        <ele>141.83</ele>
        <time>2022-05-22T09:18:57.000Z</time>
      </trkpt>
      <trkpt lat="43.33602" lon="-0.47815">
        <ele>141.15</ele>
        <time>2022-05-22T09:19:02.000Z</time>
      </trkpt>
      <trkpt lat="43.33594" lon="-0.47792">
        <ele>141.66</ele>
        <time>2022-05-22T09:19:07.000Z</time>
      </trkpt>
      <trkpt lat="43.33577" lon="-0.47774">
        <ele>140.94</ele>
        <time>2022-05-22T09:19:12.000Z</time>
      </trkpt>
      <trkpt lat="43.3356" lon="-0.47757">
        <ele>138.88</ele>
        <time>2022-05-22T09:19:17.000Z</time>
      </trkpt>
      <trkpt lat="43.33545" lon="-0.47734">
        <ele>139.84</ele>
        <time>2022-05-22T09:19:22.000Z</time>
      </trkpt>
      <trkpt lat="43.33533" lon="-0.47711">
        <ele>140.45</ele>
        <time>2022-05-22T09:19:26.000Z</time>
      </trkpt>
      <trkpt lat="43.33526" lon="-0.47685">
        <ele>139.76</ele>
        <time>2022-05-22T09:19:31.000Z</time>
      </trkpt>
      <trkpt lat="43.33519" lon="-0.47661">
        <ele>139.43</ele>
        <time>2022-05-22T09:19:36.000Z</time>
      </trkpt>
      <trkpt lat="43.33504" lon="-0.47647">
        <ele>140.29</ele>
        <time>2022-05-22T09:19:41.000Z</time>
      </trkpt>
      <trkpt lat="43.33489" lon="-0.47628">
        <ele>138.45</ele>
        <time>2022-05-22T09:19:48.000Z</time>
      </trkpt>
      <trkpt lat="43.33474" lon="-0.4761">
        <ele>137.93</ele>
        <time>2022-05-22T09:19:53.000Z</time>
      </trkpt>
      <trkpt lat="43.33457" lon="-0.47599">
        <ele>137.61</ele>
        <time>2022-05-22T09:19:57.000Z</time>
      </trkpt>
      <trkpt lat="43.33437" lon="-0.47588">
        <ele>137.39</ele>
        <time>2022-05-22T09:20:02.000Z</time>
      </trkpt>
      <trkpt lat="43.33418" lon="-0.47585">
        <ele>138.81</ele>
        <time>2022-05-22T09:20:06.000Z</time>
      </trkpt>
      <trkpt lat="43.33397" lon="-0.4758">
        <ele>139.17</ele>
        <time>2022-05-22T09:20:10.000Z</time>
      </trkpt>
      <trkpt lat="43.33381" lon="-0.47567">
        <ele>138.02</ele>
        <time>2022-05-22T09:20:14.000Z</time>
      </trkpt>
      <trkpt lat="43.33365" lon="-0.47553">
        <ele>137.82</ele>
        <time>2022-05-22T09:20:18.000Z</time>
      </trkpt>
      <trkpt lat="43.33349" lon="-0.47539">
        <ele>136.87</ele>
        <time>2022-05-22T09:20:22.000Z</time>
      </trkpt>
      <trkpt lat="43.33332" lon="-0.47526">
        <ele>137.6</ele>
        <time>2022-05-22T09:20:26.000Z</time>
      </trkpt>
      <trkpt lat="43.33316" lon="-0.47511">
        <ele>137.52</ele>
        <time>2022-05-22T09:20:30.000Z</time>
      </trkpt>
      <trkpt lat="43.33301" lon="-0.47496">
        <ele>137.95</ele>
        <time>2022-05-22T09:20:34.000Z</time>
      </trkpt>
      <trkpt lat="43.33286" lon="-0.47474">
        <ele>140.07</ele>
        <time>2022-05-22T09:20:39.000Z</time>
      </trkpt>
      <trkpt lat="43.33268" lon="-0.47459">
        <ele>139.29</ele>
        <time>2022-05-22T09:20:44.000Z</time>
      </trkpt>
      <trkpt lat="43.33248" lon="-0.4745">
        <ele>138.33</ele>
        <time>2022-05-22T09:20:49.000Z</time>
      </trkpt>
      <trkpt lat="43.33229" lon="-0.47435">
        <ele>138.48</ele>
        <time>2022-05-22T09:20:54.000Z</time>
      </trkpt>
      <trkpt lat="43.33214" lon="-0.47421">
        <ele>137.97</ele>
        <time>2022-05-22T09:20:58.000Z</time>
      </trkpt>
      <trkpt lat="43.33198" lon="-0.47407">
        <ele>138.51</ele>
        <time>2022-05-22T09:21:02.000Z</time>
      </trkpt>
      <trkpt lat="43.33182" lon="-0.47386">
        <ele>138.77</ele>
        <time>2022-05-22T09:21:07.000Z</time>
      </trkpt>
      <trkpt lat="43.33171" lon="-0.47365">
        <ele>140.07</ele>
        <time>2022-05-22T09:21:12.000Z</time>
      </trkpt>
      <trkpt lat="43.33158" lon="-0.47342">
        <ele>142.35</ele>
        <time>2022-05-22T09:21:18.000Z</time>
      </trkpt>
      <trkpt lat="43.33144" lon="-0.47323">
        <ele>143.94</ele>
        <time>2022-05-22T09:21:23.000Z</time>
      </trkpt>
      <trkpt lat="43.33128" lon="-0.47304">
        <ele>143.46</ele>
        <time>2022-05-22T09:21:28.000Z</time>
      </trkpt>
      <trkpt lat="43.33112" lon="-0.47285">
        <ele>143.6</ele>
        <time>2022-05-22T09:21:33.000Z</time>
      </trkpt>
      <trkpt lat="43.33099" lon="-0.47265">
        <ele>144.22</ele>
        <time>2022-05-22T09:21:38.000Z</time>
      </trkpt>
      <trkpt lat="43.33095" lon="-0.4724">
        <ele>143.95</ele>
        <time>2022-05-22T09:21:44.000Z</time>
      </trkpt>
      <trkpt lat="43.33101" lon="-0.47214">
        <ele>146.67</ele>
        <time>2022-05-22T09:21:50.000Z</time>
      </trkpt>
      <trkpt lat="43.331" lon="-0.47185">
        <ele>144.32</ele>
        <time>2022-05-22T09:21:56.000Z</time>
      </trkpt>
      <trkpt lat="43.33113" lon="-0.47162">
        <ele>142.69</ele>
        <time>2022-05-22T09:22:01.000Z</time>
      </trkpt>
      <trkpt lat="43.33126" lon="-0.4714">
        <ele>143.79</ele>
        <time>2022-05-22T09:22:06.000Z</time>
      </trkpt>
      <trkpt lat="43.33137" lon="-0.47117">
        <ele>144.93</ele>
        <time>2022-05-22T09:22:11.000Z</time>
      </trkpt>
      <trkpt lat="43.3315" lon="-0.47099">
        <ele>143.88</ele>
        <time>2022-05-22T09:22:47.000Z</time>
      </trkpt>
      <trkpt lat="43.33159" lon="-0.47076">
        <ele>147.22</ele>
        <time>2022-05-22T09:22:56.000Z</time>
      </trkpt>
      <trkpt lat="43.33173" lon="-0.47058">
        <ele>147.86</ele>
        <time>2022-05-22T09:23:03.000Z</time>
      </trkpt>
      <trkpt lat="43.33189" lon="-0.47041">
        <ele>148.46</ele>
        <time>2022-05-22T09:23:09.000Z</time>
      </trkpt>
      <trkpt lat="43.33202" lon="-0.47023">
        <ele>147.73</ele>
        <time>2022-05-22T09:23:15.000Z</time>
      </trkpt>
      <trkpt lat="43.33213" lon="-0.46999">
        <ele>148.96</ele>
        <time>2022-05-22T09:23:21.000Z</time>
      </trkpt>
      <trkpt lat="43.33223" lon="-0.46976">
        <ele>149.58</ele>
        <time>2022-05-22T09:23:26.000Z</time>
      </trkpt>
      <trkpt lat="43.33229" lon="-0.46952">
        <ele>149.97</ele>
        <time>2022-05-22T09:23:31.000Z</time>
      </trkpt>
      <trkpt lat="43.33236" lon="-0.46926">
        <ele>151.45</ele>
        <time>2022-05-22T09:23:37.000Z</time>
      </trkpt>
      <trkpt lat="43.33239" lon="-0.46898">
        <ele>151.56</ele>
        <time>2022-05-22T09:23:44.000Z</time>
      </trkpt>
      <trkpt lat="43.33241" lon="-0.46871">
        <ele>149.07</ele>
        <time>2022-05-22T09:23:51.000Z</time>
      </trkpt>
      <trkpt lat="43.33243" lon="-0.46843">
        <ele>145.56</ele>
        <time>2022-05-22T09:23:58.000Z</time>
      </trkpt>
      <trkpt lat="43.3325" lon="-0.46818">
        <ele>145.23</ele>
        <time>2022-05-22T09:24:07.000Z</time>
      </trkpt>
      <trkpt lat="43.33255" lon="-0.46793">
        <ele>146.17</ele>
        <time>2022-05-22T09:24:14.000Z</time>
      </trkpt>
      <trkpt lat="43.33258" lon="-0.46765">
        <ele>145.62</ele>
        <time>2022-05-22T09:24:21.000Z</time>
      </trkpt>
      <trkpt lat="43.3326" lon="-0.46736">
        <ele>145.92</ele>
        <time>2022-05-22T09:24:28.000Z</time>
      </trkpt>
      <trkpt lat="43.33264" lon="-0.46712">
        <ele>145.65</ele>
        <time>2022-05-22T09:24:36.000Z</time>
      </trkpt>
      <trkpt lat="43.33267" lon="-0.46685">
        <ele>145.91</ele>
        <time>2022-05-22T09:24:43.000Z</time>
      </trkpt>
      <trkpt lat="43.33261" lon="-0.46661">
        <ele>144.96</ele>
        <time>2022-05-22T09:24:49.000Z</time>
      </trkpt>
      <trkpt lat="43.33257" lon="-0.46635">
        <ele>145.92</ele>
        <time>2022-05-22T09:24:55.000Z</time>
      </trkpt>
      <trkpt lat="43.33248" lon="-0.46609">
        <ele>145.58</ele>
        <time>2022-05-22T09:25:01.000Z</time>
      </trkpt>
      <trkpt lat="43.33238" lon="-0.46586">
        <ele>145.92</ele>
        <time>2022-05-22T09:25:06.000Z</time>
      </trkpt>
      <trkpt lat="43.33226" lon="-0.46567">
        <ele>146.46</ele>
        <time>2022-05-22T09:25:12.000Z</time>
      </trkpt>
      <trkpt lat="43.3321" lon="-0.46552">
        <ele>145.74</ele>
        <time>2022-05-22T09:25:20.000Z</time>
      </trkpt>
      <trkpt lat="43.33202" lon="-0.46526">
        <ele>147.1</ele>
        <time>2022-05-22T09:25:26.000Z</time>
      </trkpt>
      <trkpt lat="43.33192" lon="-0.46503">
        <ele>146.23</ele>
        <time>2022-05-22T09:25:31.000Z</time>
      </trkpt>
      <trkpt lat="43.33187" lon="-0.46477">
        <ele>148.11</ele>
        <time>2022-05-22T09:25:37.000Z</time>
      </trkpt>
      <trkpt lat="43.33184" lon="-0.46452">
        <ele>148.92</ele>
        <time>2022-05-22T09:25:44.000Z</time>
      </trkpt>
      <trkpt lat="43.33188" lon="-0.46427">
        <ele>147.8</ele>
        <time>2022-05-22T09:25:49.000Z</time>
      </trkpt>
      <trkpt lat="43.33194" lon="-0.46401">
        <ele>149.01</ele>
        <time>2022-05-22T09:25:54.000Z</time>
      </trkpt>
      <trkpt lat="43.332" lon="-0.46373">
        <ele>147.35</ele>
        <time>2022-05-22T09:26:00.000Z</time>
      </trkpt>
      <trkpt lat="43.33202" lon="-0.46347">
        <ele>151.91</ele>
        <time>2022-05-22T09:26:05.000Z</time>
      </trkpt>
      <trkpt lat="43.3319" lon="-0.46321">
        <ele>152.5</ele>
        <time>2022-05-22T09:26:10.000Z</time>
      </trkpt>
      <trkpt lat="43.33175" lon="-0.46301">
        <ele>150.04</ele>
        <time>2022-05-22T09:26:15.000Z</time>
      </trkpt>
      <trkpt lat="43.33163" lon="-0.46278">
        <ele>150.53</ele>
        <time>2022-05-22T09:26:20.000Z</time>
      </trkpt>
      <trkpt lat="43.33147" lon="-0.46261">
        <ele>150.11</ele>
        <time>2022-05-22T09:26:25.000Z</time>
      </trkpt>
      <trkpt lat="43.33129" lon="-0.46247">
        <ele>149.36</ele>
        <time>2022-05-22T09:26:31.000Z</time>
      </trkpt>
      <trkpt lat="43.33112" lon="-0.4623">
        <ele>150.47</ele>
        <time>2022-05-22T09:26:38.000Z</time>
      </trkpt>
      <trkpt lat="43.33097" lon="-0.46214">
        <ele>150.61</ele>
        <time>2022-05-22T09:26:45.000Z</time>
      </trkpt>
      <trkpt lat="43.33082" lon="-0.46193">
        <ele>151.06</ele>
        <time>2022-05-22T09:26:52.000Z</time>
      </trkpt>
      <trkpt lat="43.33064" lon="-0.46177">
        <ele>149.95</ele>
        <time>2022-05-22T09:26:58.000Z</time>
      </trkpt>
      <trkpt lat="43.33048" lon="-0.4616">
        <ele>148.58</ele>
        <time>2022-05-22T09:27:04.000Z</time>
      </trkpt>
      <trkpt lat="43.33045" lon="-0.4613">
        <ele>149.59</ele>
        <time>2022-05-22T09:27:10.000Z</time>
      </trkpt>
      <trkpt lat="43.33052" lon="-0.46103">
        <ele>150.3</ele>
        <time>2022-05-22T09:27:15.000Z</time>
      </trkpt>
      <trkpt lat="43.33057" lon="-0.46079">
        <ele>150.91</ele>
        <time>2022-05-22T09:27:20.000Z</time>
      </trkpt>
      <trkpt lat="43.33066" lon="-0.46053">
        <ele>151.19</ele>
        <time>2022-05-22T09:27:27.000Z</time>
      </trkpt>
      <trkpt lat="43.3308" lon="-0.46037">
        <ele>149.72</ele>
        <time>2022-05-22T09:27:34.000Z</time>
      </trkpt>
      <trkpt lat="43.33098" lon="-0.46032">
        <ele>149.37</ele>
        <time>2022-05-22T09:27:40.000Z</time>
      </trkpt>
      <trkpt lat="43.33115" lon="-0.46021">
        <ele>149.24</ele>
        <time>2022-05-22T09:27:45.000Z</time>
      </trkpt>
      <trkpt lat="43.33133" lon="-0.46007">
        <ele>148.69</ele>
        <time>2022-05-22T09:27:50.000Z</time>
      </trkpt>
      <trkpt lat="43.33152" lon="-0.45992">
        <ele>148.43</ele>
        <time>2022-05-22T09:27:55.000Z</time>
      </trkpt>
      <trkpt lat="43.33171" lon="-0.45977">
        <ele>147.28</ele>
        <time>2022-05-22T09:28:00.000Z</time>
      </trkpt>
      <trkpt lat="43.33186" lon="-0.45963">
        <ele>145.69</ele>
        <time>2022-05-22T09:28:04.000Z</time>
      </trkpt>
      <trkpt lat="43.33201" lon="-0.45947">
        <ele>144.34</ele>
        <time>2022-05-22T09:28:08.000Z</time>
      </trkpt>
      <trkpt lat="43.33215" lon="-0.4593">
        <ele>144.67</ele>
        <time>2022-05-22T09:28:12.000Z</time>
      </trkpt>
      <trkpt lat="43.33227" lon="-0.4591">
        <ele>143.8</ele>
        <time>2022-05-22T09:28:16.000Z</time>
      </trkpt>
      <trkpt lat="43.33233" lon="-0.45886">
        <ele>143.74</ele>
        <time>2022-05-22T09:28:20.000Z</time>
      </trkpt>
      <trkpt lat="43.33236" lon="-0.45859">
        <ele>144.34</ele>
        <time>2022-05-22T09:28:24.000Z</time>
      </trkpt>
      <trkpt lat="43.33237" lon="-0.45833">
        <ele>145.08</ele>
        <time>2022-05-22T09:28:28.000Z</time>
      </trkpt>
      <trkpt lat="43.33237" lon="-0.45806">
        <ele>146.26</ele>
        <time>2022-05-22T09:28:32.000Z</time>
      </trkpt>
      <trkpt lat="43.33238" lon="-0.45778">
        <ele>146.76</ele>
        <time>2022-05-22T09:28:36.000Z</time>
      </trkpt>
      <trkpt lat="43.3324" lon="-0.4575">
        <ele>147.27</ele>
        <time>2022-05-22T09:28:40.000Z</time>
      </trkpt>
      <trkpt lat="43.33241" lon="-0.45723">
        <ele>147.99</ele>
        <time>2022-05-22T09:28:44.000Z</time>
      </trkpt>
      <trkpt lat="43.33241" lon="-0.45696">
        <ele>148.05</ele>
        <time>2022-05-22T09:28:48.000Z</time>
      </trkpt>
      <trkpt lat="43.33241" lon="-0.45669">
        <ele>147.93</ele>
        <time>2022-05-22T09:28:52.000Z</time>
      </trkpt>
      <trkpt lat="43.33242" lon="-0.45642">
        <ele>148.19</ele>
        <time>2022-05-22T09:28:56.000Z</time>
      </trkpt>
      <trkpt lat="43.33247" lon="-0.45616">
        <ele>149.85</ele>
        <time>2022-05-22T09:29:00.000Z</time>
      </trkpt>
      <trkpt lat="43.33256" lon="-0.45592">
        <ele>149.77</ele>
        <time>2022-05-22T09:29:04.000Z</time>
      </trkpt>
      <trkpt lat="43.33265" lon="-0.45568">
        <ele>148.92</ele>
        <time>2022-05-22T09:29:08.000Z</time>
      </trkpt>
      <trkpt lat="43.33274" lon="-0.45544">
        <ele>149.07</ele>
        <time>2022-05-22T09:29:12.000Z</time>
      </trkpt>
      <trkpt lat="43.3328" lon="-0.45518">
        <ele>148.85</ele>
        <time>2022-05-22T09:29:16.000Z</time>
      </trkpt>
      <trkpt lat="43.33284" lon="-0.45492">
        <ele>148.75</ele>
        <time>2022-05-22T09:29:20.000Z</time>
      </trkpt>
      <trkpt lat="43.33288" lon="-0.45467">
        <ele>148.14</ele>
        <time>2022-05-22T09:29:24.000Z</time>
      </trkpt>
      <trkpt lat="43.33294" lon="-0.45439">
        <ele>148.12</ele>
        <time>2022-05-22T09:29:28.000Z</time>
      </trkpt>
      <trkpt lat="43.33299" lon="-0.45412">
        <ele>148.57</ele>
        <time>2022-05-22T09:29:32.000Z</time>
      </trkpt>
      <trkpt lat="43.33303" lon="-0.45385">
        <ele>150.63</ele>
        <time>2022-05-22T09:29:37.000Z</time>
      </trkpt>
      <trkpt lat="43.33307" lon="-0.45359">
        <ele>151.17</ele>
        <time>2022-05-22T09:29:42.000Z</time>
      </trkpt>
      <trkpt lat="43.3331" lon="-0.45334">
        <ele>151.77</ele>
        <time>2022-05-22T09:29:49.000Z</time>
      </trkpt>
      <trkpt lat="43.333" lon="-0.45313">
        <ele>151.1</ele>
        <time>2022-05-22T09:29:57.000Z</time>
      </trkpt>
      <trkpt lat="43.33312" lon="-0.45291">
        <ele>151.54</ele>
        <time>2022-05-22T09:30:08.000Z</time>
      </trkpt>
      <trkpt lat="43.33322" lon="-0.45265">
        <ele>151.26</ele>
        <time>2022-05-22T09:30:13.000Z</time>
      </trkpt>
      <trkpt lat="43.33327" lon="-0.45235">
        <ele>151.28</ele>
        <time>2022-05-22T09:30:18.000Z</time>
      </trkpt>
      <trkpt lat="43.33331" lon="-0.45204">
        <ele>151.22</ele>
        <time>2022-05-22T09:30:23.000Z</time>
      </trkpt>
      <trkpt lat="43.33335" lon="-0.45177">
        <ele>151.29</ele>
        <time>2022-05-22T09:30:27.000Z</time>
      </trkpt>
      <trkpt lat="43.33337" lon="-0.45149">
        <ele>151.35</ele>
        <time>2022-05-22T09:30:31.000Z</time>
      </trkpt>
      <trkpt lat="43.33339" lon="-0.45121">
        <ele>152.06</ele>
        <time>2022-05-22T09:30:35.000Z</time>
      </trkpt>
      <trkpt lat="43.33339" lon="-0.45093">
        <ele>151.58</ele>
        <time>2022-05-22T09:30:39.000Z</time>
      </trkpt>
      <trkpt lat="43.33339" lon="-0.45066">
        <ele>151.55</ele>
        <time>2022-05-22T09:30:43.000Z</time>
      </trkpt>
      <trkpt lat="43.3334" lon="-0.45037">
        <ele>151.79</ele>
        <time>2022-05-22T09:30:47.000Z</time>
      </trkpt>
      <trkpt lat="43.33342" lon="-0.4501">
        <ele>152.35</ele>
        <time>2022-05-22T09:30:51.000Z</time>
      </trkpt>
      <trkpt lat="43.33342" lon="-0.44981">
        <ele>152.46</ele>
        <time>2022-05-22T09:30:55.000Z</time>
      </trkpt>
      <trkpt lat="43.33342" lon="-0.44952">
        <ele>151.67</ele>
        <time>2022-05-22T09:30:59.000Z</time>
      </trkpt>
      <trkpt lat="43.33341" lon="-0.44923">
        <ele>152</ele>
        <time>2022-05-22T09:31:03.000Z</time>
      </trkpt>
      <trkpt lat="43.3334" lon="-0.44894">
        <ele>151.33</ele>
        <time>2022-05-22T09:31:07.000Z</time>
      </trkpt>
      <trkpt lat="43.3334" lon="-0.44867">
        <ele>151</ele>
        <time>2022-05-22T09:31:11.000Z</time>
      </trkpt>
      <trkpt lat="43.33339" lon="-0.44839">
        <ele>151.54</ele>
        <time>2022-05-22T09:31:15.000Z</time>
      </trkpt>
      <trkpt lat="43.33338" lon="-0.4481">
        <ele>151.34</ele>
        <time>2022-05-22T09:31:19.000Z</time>
      </trkpt>
      <trkpt lat="43.33339" lon="-0.44779">
        <ele>150.97</ele>
        <time>2022-05-22T09:31:23.000Z</time>
      </trkpt>
      <trkpt lat="43.33339" lon="-0.4475">
        <ele>151.19</ele>
        <time>2022-05-22T09:31:27.000Z</time>
      </trkpt>
      <trkpt lat="43.3334" lon="-0.44722">
        <ele>151.64</ele>
        <time>2022-05-22T09:31:31.000Z</time>
      </trkpt>
      <trkpt lat="43.33341" lon="-0.44693">
        <ele>151.48</ele>
        <time>2022-05-22T09:31:35.000Z</time>
      </trkpt>
      <trkpt lat="43.33342" lon="-0.44665">
        <ele>151.95</ele>
        <time>2022-05-22T09:31:39.000Z</time>
      </trkpt>
      <trkpt lat="43.33344" lon="-0.44637">
        <ele>152.18</ele>
        <time>2022-05-22T09:31:43.000Z</time>
      </trkpt>
      <trkpt lat="43.33347" lon="-0.44609">
        <ele>151.61</ele>
        <time>2022-05-22T09:31:47.000Z</time>
      </trkpt>
      <trkpt lat="43.3335" lon="-0.44583">
        <ele>151.66</ele>
        <time>2022-05-22T09:31:51.000Z</time>
      </trkpt>
      <trkpt lat="43.33352" lon="-0.44555">
        <ele>151.59</ele>
        <time>2022-05-22T09:31:55.000Z</time>
      </trkpt>
      <trkpt lat="43.3335" lon="-0.44527">
        <ele>151.2</ele>
        <time>2022-05-22T09:31:59.000Z</time>
      </trkpt>
      <trkpt lat="43.33346" lon="-0.44498">
        <ele>150.53</ele>
        <time>2022-05-22T09:32:03.000Z</time>
      </trkpt>
      <trkpt lat="43.33341" lon="-0.4447">
        <ele>151.07</ele>
        <time>2022-05-22T09:32:07.000Z</time>
      </trkpt>
      <trkpt lat="43.33336" lon="-0.44444">
        <ele>151.05</ele>
        <time>2022-05-22T09:32:11.000Z</time>
      </trkpt>
      <trkpt lat="43.33332" lon="-0.44416">
        <ele>151.11</ele>
        <time>2022-05-22T09:32:15.000Z</time>
      </trkpt>
      <trkpt lat="43.33324" lon="-0.44389">
        <ele>152.09</ele>
        <time>2022-05-22T09:32:19.000Z</time>
      </trkpt>
      <trkpt lat="43.3332" lon="-0.44362">
        <ele>152.82</ele>
        <time>2022-05-22T09:32:23.000Z</time>
      </trkpt>
      <trkpt lat="43.33317" lon="-0.44334">
        <ele>153.44</ele>
        <time>2022-05-22T09:32:27.000Z</time>
      </trkpt>
      <trkpt lat="43.33314" lon="-0.44307">
        <ele>154.46</ele>
        <time>2022-05-22T09:32:31.000Z</time>
      </trkpt>
      <trkpt lat="43.3331" lon="-0.4428">
        <ele>155.05</ele>
        <time>2022-05-22T09:32:35.000Z</time>
      </trkpt>
      <trkpt lat="43.33308" lon="-0.44254">
        <ele>155.03</ele>
        <time>2022-05-22T09:32:39.000Z</time>
      </trkpt>
      <trkpt lat="43.33301" lon="-0.44226">
        <ele>154.95</ele>
        <time>2022-05-22T09:32:44.000Z</time>
      </trkpt>
      <trkpt lat="43.33279" lon="-0.44223">
        <ele>153.49</ele>
        <time>2022-05-22T09:32:49.000Z</time>
      </trkpt>
      <trkpt lat="43.3326" lon="-0.44227">
        <ele>153.3</ele>
        <time>2022-05-22T09:32:53.000Z</time>
      </trkpt>
      <trkpt lat="43.3324" lon="-0.44216">
        <ele>152.63</ele>
        <time>2022-05-22T09:32:57.000Z</time>
      </trkpt>
      <trkpt lat="43.33223" lon="-0.44201">
        <ele>152.74</ele>
        <time>2022-05-22T09:33:01.000Z</time>
      </trkpt>
      <trkpt lat="43.33204" lon="-0.44186">
        <ele>152.37</ele>
        <time>2022-05-22T09:33:05.000Z</time>
      </trkpt>
      <trkpt lat="43.33187" lon="-0.4417">
        <ele>152.1</ele>
        <time>2022-05-22T09:33:09.000Z</time>
      </trkpt>
      <trkpt lat="43.33169" lon="-0.44156">
        <ele>151.9</ele>
        <time>2022-05-22T09:33:13.000Z</time>
      </trkpt>
      <trkpt lat="43.33151" lon="-0.44141">
        <ele>152.19</ele>
        <time>2022-05-22T09:33:17.000Z</time>
      </trkpt>
      <trkpt lat="43.33134" lon="-0.44126">
        <ele>152.3</ele>
        <time>2022-05-22T09:33:21.000Z</time>
      </trkpt>
      <trkpt lat="43.33118" lon="-0.44112">
        <ele>151.8</ele>
        <time>2022-05-22T09:33:25.000Z</time>
      </trkpt>
      <trkpt lat="43.33101" lon="-0.44096">
        <ele>152.24</ele>
        <time>2022-05-22T09:33:29.000Z</time>
      </trkpt>
      <trkpt lat="43.33085" lon="-0.44079">
        <ele>153.42</ele>
        <time>2022-05-22T09:33:33.000Z</time>
      </trkpt>
      <trkpt lat="43.3307" lon="-0.44063">
        <ele>152.2</ele>
        <time>2022-05-22T09:33:37.000Z</time>
      </trkpt>
      <trkpt lat="43.33052" lon="-0.44067">
        <ele>152.67</ele>
        <time>2022-05-22T09:33:41.000Z</time>
      </trkpt>
      <trkpt lat="43.33035" lon="-0.44085">
        <ele>152.58</ele>
        <time>2022-05-22T09:33:45.000Z</time>
      </trkpt>
      <trkpt lat="43.33019" lon="-0.44101">
        <ele>153.19</ele>
        <time>2022-05-22T09:33:49.000Z</time>
      </trkpt>
      <trkpt lat="43.32999" lon="-0.44106">
        <ele>153.17</ele>
        <time>2022-05-22T09:33:53.000Z</time>
      </trkpt>
      <trkpt lat="43.32978" lon="-0.44102">
        <ele>153.06</ele>
        <time>2022-05-22T09:33:57.000Z</time>
      </trkpt>
      <trkpt lat="43.32957" lon="-0.441">
        <ele>153.12</ele>
        <time>2022-05-22T09:34:01.000Z</time>
      </trkpt>
      <trkpt lat="43.32936" lon="-0.44102">
        <ele>154.09</ele>
        <time>2022-05-22T09:34:05.000Z</time>
      </trkpt>
      <trkpt lat="43.32917" lon="-0.44112">
        <ele>153.6</ele>
        <time>2022-05-22T09:34:09.000Z</time>
      </trkpt>
      <trkpt lat="43.32897" lon="-0.44121">
        <ele>153.21</ele>
        <time>2022-05-22T09:34:13.000Z</time>
      </trkpt>
      <trkpt lat="43.3288" lon="-0.44105">
        <ele>153.43</ele>
        <time>2022-05-22T09:34:17.000Z</time>
      </trkpt>
      <trkpt lat="43.32865" lon="-0.44084">
        <ele>152.56</ele>
        <time>2022-05-22T09:34:21.000Z</time>
      </trkpt>
      <trkpt lat="43.3285" lon="-0.44062">
        <ele>153.07</ele>
        <time>2022-05-22T09:34:25.000Z</time>
      </trkpt>
      <trkpt lat="43.32835" lon="-0.44041">
        <ele>153.2</ele>
        <time>2022-05-22T09:34:29.000Z</time>
      </trkpt>
      <trkpt lat="43.3282" lon="-0.4402">
        <ele>153.78</ele>
        <time>2022-05-22T09:34:33.000Z</time>
      </trkpt>
      <trkpt lat="43.32812" lon="-0.43994">
        <ele>154.2</ele>
        <time>2022-05-22T09:34:37.000Z</time>
      </trkpt>
      <trkpt lat="43.32815" lon="-0.43966">
        <ele>154.57</ele>
        <time>2022-05-22T09:34:41.000Z</time>
      </trkpt>
      <trkpt lat="43.32813" lon="-0.43941">
        <ele>154.24</ele>
        <time>2022-05-22T09:34:45.000Z</time>
      </trkpt>
      <trkpt lat="43.32807" lon="-0.43917">
        <ele>154.63</ele>
        <time>2022-05-22T09:34:49.000Z</time>
      </trkpt>
      <trkpt lat="43.32796" lon="-0.43895">
        <ele>155.56</ele>
        <time>2022-05-22T09:34:53.000Z</time>
      </trkpt>
      <trkpt lat="43.32784" lon="-0.43869">
        <ele>156.3</ele>
        <time>2022-05-22T09:34:58.000Z</time>
      </trkpt>
      <trkpt lat="43.32768" lon="-0.43853">
        <ele>154.62</ele>
        <time>2022-05-22T09:35:04.000Z</time>
      </trkpt>
      <trkpt lat="43.32759" lon="-0.43831">
        <ele>154.7</ele>
        <time>2022-05-22T09:35:11.000Z</time>
      </trkpt>
      <trkpt lat="43.3275" lon="-0.43808">
        <ele>155.59</ele>
        <time>2022-05-22T09:35:20.000Z</time>
      </trkpt>
      <trkpt lat="43.3274" lon="-0.43786">
        <ele>155.64</ele>
        <time>2022-05-22T09:35:26.000Z</time>
      </trkpt>
      <trkpt lat="43.32732" lon="-0.43763">
        <ele>155.19</ele>
        <time>2022-05-22T09:35:32.000Z</time>
      </trkpt>
      <trkpt lat="43.32721" lon="-0.43739">
        <ele>155.57</ele>
        <time>2022-05-22T09:35:38.000Z</time>
      </trkpt>
      <trkpt lat="43.32713" lon="-0.43714">
        <ele>155.59</ele>
        <time>2022-05-22T09:35:43.000Z</time>
      </trkpt>
      <trkpt lat="43.32702" lon="-0.4369">
        <ele>155.48</ele>
        <time>2022-05-22T09:35:49.000Z</time>
      </trkpt>
      <trkpt lat="43.32692" lon="-0.43664">
        <ele>154.65</ele>
        <time>2022-05-22T09:35:54.000Z</time>
      </trkpt>
      <trkpt lat="43.32683" lon="-0.43637">
        <ele>154.31</ele>
        <time>2022-05-22T09:35:59.000Z</time>
      </trkpt>
      <trkpt lat="43.32683" lon="-0.4361">
        <ele>154.32</ele>
        <time>2022-05-22T09:36:04.000Z</time>
      </trkpt>
      <trkpt lat="43.32701" lon="-0.43595">
        <ele>153.72</ele>
        <time>2022-05-22T09:36:09.000Z</time>
      </trkpt>
      <trkpt lat="43.3272" lon="-0.43581">
        <ele>154.76</ele>
        <time>2022-05-22T09:36:14.000Z</time>
      </trkpt>
      <trkpt lat="43.32739" lon="-0.43568">
        <ele>155.35</ele>
        <time>2022-05-22T09:36:19.000Z</time>
      </trkpt>
      <trkpt lat="43.32756" lon="-0.43555">
        <ele>154.91</ele>
        <time>2022-05-22T09:36:24.000Z</time>
      </trkpt>
      <trkpt lat="43.32774" lon="-0.43547">
        <ele>155.03</ele>
        <time>2022-05-22T09:36:29.000Z</time>
      </trkpt>
      <trkpt lat="43.32792" lon="-0.43534">
        <ele>155.47</ele>
        <time>2022-05-22T09:36:34.000Z</time>
      </trkpt>
      <trkpt lat="43.32811" lon="-0.4352">
        <ele>154.62</ele>
        <time>2022-05-22T09:36:39.000Z</time>
      </trkpt>
      <trkpt lat="43.3283" lon="-0.43506">
        <ele>155.39</ele>
        <time>2022-05-22T09:36:44.000Z</time>
      </trkpt>
      <trkpt lat="43.32847" lon="-0.43494">
        <ele>155.21</ele>
        <time>2022-05-22T09:36:48.000Z</time>
      </trkpt>
      <trkpt lat="43.32861" lon="-0.43478">
        <ele>154.03</ele>
        <time>2022-05-22T09:36:52.000Z</time>
      </trkpt>
      <trkpt lat="43.32867" lon="-0.4345">
        <ele>153.26</ele>
        <time>2022-05-22T09:36:57.000Z</time>
      </trkpt>
      <trkpt lat="43.32853" lon="-0.43432">
        <ele>153.1</ele>
        <time>2022-05-22T09:37:03.000Z</time>
      </trkpt>
      <trkpt lat="43.32835" lon="-0.43424">
        <ele>153.08</ele>
        <time>2022-05-22T09:37:07.000Z</time>
      </trkpt>
      <trkpt lat="43.32818" lon="-0.43413">
        <ele>153.7</ele>
        <time>2022-05-22T09:37:11.000Z</time>
      </trkpt>
      <trkpt lat="43.328" lon="-0.434">
        <ele>154.3</ele>
        <time>2022-05-22T09:37:15.000Z</time>
      </trkpt>
      <trkpt lat="43.32783" lon="-0.43384">
        <ele>154.34</ele>
        <time>2022-05-22T09:37:19.000Z</time>
      </trkpt>
      <trkpt lat="43.32768" lon="-0.43362">
        <ele>154.38</ele>
        <time>2022-05-22T09:37:23.000Z</time>
      </trkpt>
      <trkpt lat="43.32754" lon="-0.43343">
        <ele>155.82</ele>
        <time>2022-05-22T09:38:09.000Z</time>
      </trkpt>
      <trkpt lat="43.32741" lon="-0.43324">
        <ele>155.42</ele>
        <time>2022-05-22T09:38:15.000Z</time>
      </trkpt>
      <trkpt lat="43.32727" lon="-0.43303">
        <ele>155.29</ele>
        <time>2022-05-22T09:38:20.000Z</time>
      </trkpt>
      <trkpt lat="43.32716" lon="-0.43283">
        <ele>155.55</ele>
        <time>2022-05-22T09:38:24.000Z</time>
      </trkpt>
      <trkpt lat="43.32706" lon="-0.43262">
        <ele>155.4</ele>
        <time>2022-05-22T09:38:28.000Z</time>
      </trkpt>
      <trkpt lat="43.32697" lon="-0.43239">
        <ele>155.19</ele>
        <time>2022-05-22T09:38:32.000Z</time>
      </trkpt>
      <trkpt lat="43.32687" lon="-0.43218">
        <ele>155.6</ele>
        <time>2022-05-22T09:38:36.000Z</time>
      </trkpt>
      <trkpt lat="43.32674" lon="-0.43196">
        <ele>156.18</ele>
        <time>2022-05-22T09:38:40.000Z</time>
      </trkpt>
      <trkpt lat="43.3266" lon="-0.43177">
        <ele>156.42</ele>
        <time>2022-05-22T09:38:44.000Z</time>
      </trkpt>
      <trkpt lat="43.32645" lon="-0.43161">
        <ele>157.38</ele>
        <time>2022-05-22T09:38:48.000Z</time>
      </trkpt>
      <trkpt lat="43.3263" lon="-0.43145">
        <ele>157.6</ele>
        <time>2022-05-22T09:38:52.000Z</time>
      </trkpt>
      <trkpt lat="43.32613" lon="-0.4313">
        <ele>157.31</ele>
        <time>2022-05-22T09:38:56.000Z</time>
      </trkpt>
      <trkpt lat="43.32596" lon="-0.43112">
        <ele>156.53</ele>
        <time>2022-05-22T09:39:01.000Z</time>
      </trkpt>
      <trkpt lat="43.32581" lon="-0.43097">
        <ele>156.89</ele>
        <time>2022-05-22T09:39:05.000Z</time>
      </trkpt>
      <trkpt lat="43.32566" lon="-0.43079">
        <ele>157.32</ele>
        <time>2022-05-22T09:39:09.000Z</time>
      </trkpt>
      <trkpt lat="43.32553" lon="-0.4306">
        <ele>158.2</ele>
        <time>2022-05-22T09:39:13.000Z</time>
      </trkpt>
      <trkpt lat="43.32538" lon="-0.43043">
        <ele>158.05</ele>
        <time>2022-05-22T09:39:17.000Z</time>
      </trkpt>
      <trkpt lat="43.32525" lon="-0.43023">
        <ele>158.51</ele>
        <time>2022-05-22T09:39:21.000Z</time>
      </trkpt>
      <trkpt lat="43.32514" lon="-0.43001">
        <ele>159.42</ele>
        <time>2022-05-22T09:39:25.000Z</time>
      </trkpt>
      <trkpt lat="43.32503" lon="-0.42978">
        <ele>159.59</ele>
        <time>2022-05-22T09:39:29.000Z</time>
      </trkpt>
      <trkpt lat="43.32492" lon="-0.42955">
        <ele>159.01</ele>
        <time>2022-05-22T09:39:33.000Z</time>
      </trkpt>
      <trkpt lat="43.32481" lon="-0.42932">
        <ele>159.47</ele>
        <time>2022-05-22T09:39:37.000Z</time>
      </trkpt>
      <trkpt lat="43.3247" lon="-0.42908">
        <ele>159.08</ele>
        <time>2022-05-22T09:39:41.000Z</time>
      </trkpt>
      <trkpt lat="43.32459" lon="-0.42887">
        <ele>159.57</ele>
        <time>2022-05-22T09:39:45.000Z</time>
      </trkpt>
      <trkpt lat="43.32455" lon="-0.42859">
        <ele>158.26</ele>
        <time>2022-05-22T09:39:51.000Z</time>
      </trkpt>
      <trkpt lat="43.32462" lon="-0.42836">
        <ele>158.23</ele>
        <time>2022-05-22T09:39:56.000Z</time>
      </trkpt>
      <trkpt lat="43.32477" lon="-0.42815">
        <ele>157.69</ele>
        <time>2022-05-22T09:40:01.000Z</time>
      </trkpt>
      <trkpt lat="43.32491" lon="-0.42797">
        <ele>157.36</ele>
        <time>2022-05-22T09:40:05.000Z</time>
      </trkpt>
      <trkpt lat="43.32507" lon="-0.42779">
        <ele>157.97</ele>
        <time>2022-05-22T09:40:09.000Z</time>
      </trkpt>
      <trkpt lat="43.32521" lon="-0.42763">
        <ele>158.31</ele>
        <time>2022-05-22T09:40:13.000Z</time>
      </trkpt>
      <trkpt lat="43.32536" lon="-0.42747">
        <ele>157.28</ele>
        <time>2022-05-22T09:40:17.000Z</time>
      </trkpt>
      <trkpt lat="43.32553" lon="-0.42735">
        <ele>158.24</ele>
        <time>2022-05-22T09:40:23.000Z</time>
      </trkpt>
      <trkpt lat="43.32567" lon="-0.42715">
        <ele>158.82</ele>
        <time>2022-05-22T09:40:29.000Z</time>
      </trkpt>
      <trkpt lat="43.32582" lon="-0.42694">
        <ele>158.32</ele>
        <time>2022-05-22T09:40:34.000Z</time>
      </trkpt>
      <trkpt lat="43.32597" lon="-0.42676">
        <ele>157.97</ele>
        <time>2022-05-22T09:40:38.000Z</time>
      </trkpt>
      <trkpt lat="43.32611" lon="-0.42659">
        <ele>158.04</ele>
        <time>2022-05-22T09:40:42.000Z</time>
      </trkpt>
      <trkpt lat="43.32625" lon="-0.42642">
        <ele>158.09</ele>
        <time>2022-05-22T09:40:46.000Z</time>
      </trkpt>
      <trkpt lat="43.3264" lon="-0.42625">
        <ele>158.07</ele>
        <time>2022-05-22T09:40:50.000Z</time>
      </trkpt>
      <trkpt lat="43.32654" lon="-0.42608">
        <ele>158.24</ele>
        <time>2022-05-22T09:40:54.000Z</time>
      </trkpt>
      <trkpt lat="43.32669" lon="-0.42588">
        <ele>158.46</ele>
        <time>2022-05-22T09:40:59.000Z</time>
      </trkpt>
      <trkpt lat="43.32684" lon="-0.42574">
        <ele>158.91</ele>
        <time>2022-05-22T09:41:06.000Z</time>
      </trkpt>
      <trkpt lat="43.32699" lon="-0.42558">
        <ele>157.56</ele>
        <time>2022-05-22T09:41:11.000Z</time>
      </trkpt>
      <trkpt lat="43.32714" lon="-0.42543">
        <ele>157.37</ele>
        <time>2022-05-22T09:41:16.000Z</time>
      </trkpt>
      <trkpt lat="43.3273" lon="-0.42527">
        <ele>157.81</ele>
        <time>2022-05-22T09:41:21.000Z</time>
      </trkpt>
      <trkpt lat="43.32745" lon="-0.4251">
        <ele>156.92</ele>
        <time>2022-05-22T09:41:26.000Z</time>
      </trkpt>
      <trkpt lat="43.32759" lon="-0.42493">
        <ele>158.74</ele>
        <time>2022-05-22T09:41:32.000Z</time>
      </trkpt>
      <trkpt lat="43.32771" lon="-0.42472">
        <ele>160.36</ele>
        <time>2022-05-22T09:41:39.000Z</time>
      </trkpt>
      <trkpt lat="43.32771" lon="-0.42444">
        <ele>160.4</ele>
        <time>2022-05-22T09:42:05.000Z</time>
      </trkpt>
      <trkpt lat="43.32767" lon="-0.42416">
        <ele>159.6</ele>
        <time>2022-05-22T09:42:12.000Z</time>
      </trkpt>
      <trkpt lat="43.32763" lon="-0.42389">
        <ele>159.74</ele>
        <time>2022-05-22T09:42:18.000Z</time>
      </trkpt>
      <trkpt lat="43.3276" lon="-0.42362">
        <ele>160.08</ele>
        <time>2022-05-22T09:42:24.000Z</time>
      </trkpt>
      <trkpt lat="43.32758" lon="-0.42335">
        <ele>161.04</ele>
        <time>2022-05-22T09:42:30.000Z</time>
      </trkpt>
      <trkpt lat="43.32755" lon="-0.4231">
        <ele>162.74</ele>
        <time>2022-05-22T09:42:35.000Z</time>
      </trkpt>
      <trkpt lat="43.32752" lon="-0.4228">
        <ele>163.99</ele>
        <time>2022-05-22T09:42:41.000Z</time>
      </trkpt>
      <trkpt lat="43.32749" lon="-0.42252">
        <ele>164.1</ele>
        <time>2022-05-22T09:42:47.000Z</time>
      </trkpt>
      <trkpt lat="43.32729" lon="-0.42239">
        <ele>162.42</ele>
        <time>2022-05-22T09:42:53.000Z</time>
      </trkpt>
      <trkpt lat="43.32723" lon="-0.42213">
        <ele>161.54</ele>
        <time>2022-05-22T09:42:59.000Z</time>
      </trkpt>
      <trkpt lat="43.32723" lon="-0.42184">
        <ele>161.61</ele>
        <time>2022-05-22T09:43:04.000Z</time>
      </trkpt>
      <trkpt lat="43.32724" lon="-0.42159">
        <ele>161.33</ele>
        <time>2022-05-22T09:43:08.000Z</time>
      </trkpt>
      <trkpt lat="43.32724" lon="-0.42129">
        <ele>162.1</ele>
        <time>2022-05-22T09:43:13.000Z</time>
      </trkpt>
      <trkpt lat="43.32723" lon="-0.42101">
        <ele>162.36</ele>
        <time>2022-05-22T09:43:18.000Z</time>
      </trkpt>
      <trkpt lat="43.3271" lon="-0.42077">
        <ele>161.29</ele>
        <time>2022-05-22T09:43:23.000Z</time>
      </trkpt>
      <trkpt lat="43.32699" lon="-0.42053">
        <ele>161.69</ele>
        <time>2022-05-22T09:43:28.000Z</time>
      </trkpt>
      <trkpt lat="43.32687" lon="-0.42032">
        <ele>161.8</ele>
        <time>2022-05-22T09:43:33.000Z</time>
      </trkpt>
      <trkpt lat="43.32677" lon="-0.4201">
        <ele>161.88</ele>
        <time>2022-05-22T09:43:39.000Z</time>
      </trkpt>
      <trkpt lat="43.32685" lon="-0.41985">
        <ele>162.95</ele>
        <time>2022-05-22T09:43:49.000Z</time>
      </trkpt>
      <trkpt lat="43.32687" lon="-0.41958">
        <ele>165.06</ele>
        <time>2022-05-22T09:43:57.000Z</time>
      </trkpt>
      <trkpt lat="43.32679" lon="-0.41932">
        <ele>165.03</ele>
        <time>2022-05-22T09:44:03.000Z</time>
      </trkpt>
      <trkpt lat="43.3268" lon="-0.41903">
        <ele>164.31</ele>
        <time>2022-05-22T09:44:09.000Z</time>
      </trkpt>
      <trkpt lat="43.32675" lon="-0.41874">
        <ele>163.54</ele>
        <time>2022-05-22T09:44:14.000Z</time>
      </trkpt>
      <trkpt lat="43.32666" lon="-0.4185">
        <ele>162.08</ele>
        <time>2022-05-22T09:44:18.000Z</time>
      </trkpt>
      <trkpt lat="43.32646" lon="-0.41848">
        <ele>161.31</ele>
        <time>2022-05-22T09:44:22.000Z</time>
      </trkpt>
      <trkpt lat="43.32626" lon="-0.41847">
        <ele>161.76</ele>
        <time>2022-05-22T09:44:27.000Z</time>
      </trkpt>
      <trkpt lat="43.32639" lon="-0.41828">
        <ele>165.48</ele>
        <time>2022-05-22T09:44:36.000Z</time>
      </trkpt>
      <trkpt lat="43.32655" lon="-0.41811">
        <ele>167.83</ele>
        <time>2022-05-22T09:44:44.000Z</time>
      </trkpt>
      <trkpt lat="43.32666" lon="-0.4179">
        <ele>168.09</ele>
        <time>2022-05-22T09:44:52.000Z</time>
      </trkpt>
      <trkpt lat="43.32673" lon="-0.41764">
        <ele>171.79</ele>
        <time>2022-05-22T09:45:00.000Z</time>
      </trkpt>
      <trkpt lat="43.32676" lon="-0.4174">
        <ele>174.61</ele>
        <time>2022-05-22T09:45:08.000Z</time>
      </trkpt>
      <trkpt lat="43.32658" lon="-0.41727">
        <ele>173.38</ele>
        <time>2022-05-22T09:45:17.000Z</time>
      </trkpt>
      <trkpt lat="43.32644" lon="-0.41743">
        <ele>166.71</ele>
        <time>2022-05-22T09:45:45.000Z</time>
      </trkpt>
      <trkpt lat="43.32634" lon="-0.41768">
        <ele>166.05</ele>
        <time>2022-05-22T09:45:51.000Z</time>
      </trkpt>
      <trkpt lat="43.32621" lon="-0.4179">
        <ele>166.74</ele>
        <time>2022-05-22T09:45:56.000Z</time>
      </trkpt>
      <trkpt lat="43.3261" lon="-0.41812">
        <ele>170.78</ele>
        <time>2022-05-22T09:46:02.000Z</time>
      </trkpt>
      <trkpt lat="43.32606" lon="-0.41785">
        <ele>174.48</ele>
        <time>2022-05-22T09:46:17.000Z</time>
      </trkpt>
      <trkpt lat="43.32602" lon="-0.41761">
        <ele>174.85</ele>
        <time>2022-05-22T09:46:27.000Z</time>
      </trkpt>
      <trkpt lat="43.32597" lon="-0.41736">
        <ele>181.36</ele>
        <time>2022-05-22T09:46:39.000Z</time>
      </trkpt>
      <trkpt lat="43.32596" lon="-0.41711">
        <ele>185.68</ele>
        <time>2022-05-22T09:46:50.000Z</time>
      </trkpt>
      <trkpt lat="43.32593" lon="-0.41686">
        <ele>187.24</ele>
        <time>2022-05-22T09:47:02.000Z</time>
      </trkpt>
      <trkpt lat="43.32586" lon="-0.41661">
        <ele>186.29</ele>
        <time>2022-05-22T09:47:13.000Z</time>
      </trkpt>
      <trkpt lat="43.32586" lon="-0.41637">
        <ele>184.94</ele>
        <time>2022-05-22T09:47:24.000Z</time>
      </trkpt>
      <trkpt lat="43.32592" lon="-0.41613">
        <ele>190.32</ele>
        <time>2022-05-22T09:47:39.000Z</time>
      </trkpt>
      <trkpt lat="43.32602" lon="-0.41588">
        <ele>188.28</ele>
        <time>2022-05-22T09:47:46.000Z</time>
      </trkpt>
      <trkpt lat="43.32602" lon="-0.41559">
        <ele>187.02</ele>
        <time>2022-05-22T09:47:51.000Z</time>
      </trkpt>
      <trkpt lat="43.32605" lon="-0.41531">
        <ele>187.42</ele>
        <time>2022-05-22T09:47:56.000Z</time>
      </trkpt>
      <trkpt lat="43.32612" lon="-0.41508">
        <ele>186.82</ele>
        <time>2022-05-22T09:48:00.000Z</time>
      </trkpt>
      <trkpt lat="43.32617" lon="-0.41482">
        <ele>185.49</ele>
        <time>2022-05-22T09:48:04.000Z</time>
      </trkpt>
      <trkpt lat="43.32619" lon="-0.41457">
        <ele>186.08</ele>
        <time>2022-05-22T09:48:08.000Z</time>
      </trkpt>
      <trkpt lat="43.32623" lon="-0.4143">
        <ele>181.73</ele>
        <time>2022-05-22T09:48:14.000Z</time>
      </trkpt>
      <trkpt lat="43.32623" lon="-0.41403">
        <ele>193.8</ele>
        <time>2022-05-22T09:48:21.000Z</time>
      </trkpt>
      <trkpt lat="43.32621" lon="-0.41377">
        <ele>195.17</ele>
        <time>2022-05-22T09:48:28.000Z</time>
      </trkpt>
      <trkpt lat="43.32615" lon="-0.41352">
        <ele>200.39</ele>
        <time>2022-05-22T09:48:35.000Z</time>
      </trkpt>
      <trkpt lat="43.3261" lon="-0.41328">
        <ele>201.94</ele>
        <time>2022-05-22T09:48:42.000Z</time>
      </trkpt>
      <trkpt lat="43.32596" lon="-0.41308">
        <ele>193.81</ele>
        <time>2022-05-22T09:48:49.000Z</time>
      </trkpt>
      <trkpt lat="43.32584" lon="-0.41287">
        <ele>194.69</ele>
        <time>2022-05-22T09:48:57.000Z</time>
      </trkpt>
      <trkpt lat="43.32569" lon="-0.41273">
        <ele>193.78</ele>
        <time>2022-05-22T09:49:07.000Z</time>
      </trkpt>
      <trkpt lat="43.32576" lon="-0.4125">
        <ele>198.31</ele>
        <time>2022-05-22T09:49:33.000Z</time>
      </trkpt>
      <trkpt lat="43.32575" lon="-0.41223">
        <ele>200.51</ele>
        <time>2022-05-22T09:49:41.000Z</time>
      </trkpt>
      <trkpt lat="43.32566" lon="-0.412">
        <ele>199.24</ele>
        <time>2022-05-22T09:49:48.000Z</time>
      </trkpt>
      <trkpt lat="43.32563" lon="-0.41173">
        <ele>198.32</ele>
        <time>2022-05-22T09:49:55.000Z</time>
      </trkpt>
      <trkpt lat="43.32557" lon="-0.41149">
        <ele>201.39</ele>
        <time>2022-05-22T09:50:01.000Z</time>
      </trkpt>
      <trkpt lat="43.32552" lon="-0.41123">
        <ele>202.02</ele>
        <time>2022-05-22T09:50:08.000Z</time>
      </trkpt>
      <trkpt lat="43.32541" lon="-0.41102">
        <ele>199</ele>
        <time>2022-05-22T09:50:15.000Z</time>
      </trkpt>
      <trkpt lat="43.3255" lon="-0.4108">
        <ele>193.93</ele>
        <time>2022-05-22T09:50:21.000Z</time>
      </trkpt>
      <trkpt lat="43.32558" lon="-0.41055">
        <ele>192.64</ele>
        <time>2022-05-22T09:50:28.000Z</time>
      </trkpt>
      <trkpt lat="43.32572" lon="-0.41034">
        <ele>191.54</ele>
        <time>2022-05-22T09:50:34.000Z</time>
      </trkpt>
      <trkpt lat="43.3257" lon="-0.41008">
        <ele>192.3</ele>
        <time>2022-05-22T09:50:38.000Z</time>
      </trkpt>
      <trkpt lat="43.32567" lon="-0.40978">
        <ele>193.88</ele>
        <time>2022-05-22T09:50:42.000Z</time>
      </trkpt>
      <trkpt lat="43.32562" lon="-0.40953">
        <ele>192.67</ele>
        <time>2022-05-22T09:50:46.000Z</time>
      </trkpt>
      <trkpt lat="43.32556" lon="-0.40923">
        <ele>192.23</ele>
        <time>2022-05-22T09:50:51.000Z</time>
      </trkpt>
      <trkpt lat="43.32549" lon="-0.40898">
        <ele>187.59</ele>
        <time>2022-05-22T09:50:56.000Z</time>
      </trkpt>
      <trkpt lat="43.32542" lon="-0.40874">
        <ele>189.77</ele>
        <time>2022-05-22T09:51:00.000Z</time>
      </trkpt>
      <trkpt lat="43.32538" lon="-0.40847">
        <ele>192.99</ele>
        <time>2022-05-22T09:51:05.000Z</time>
      </trkpt>
      <trkpt lat="43.3253" lon="-0.40821">
        <ele>195.93</ele>
        <time>2022-05-22T09:51:10.000Z</time>
      </trkpt>
      <trkpt lat="43.32515" lon="-0.40807">
        <ele>198.47</ele>
        <time>2022-05-22T09:51:49.000Z</time>
      </trkpt>
      <trkpt lat="43.32498" lon="-0.40796">
        <ele>196.26</ele>
        <time>2022-05-22T09:51:57.000Z</time>
      </trkpt>
      <trkpt lat="43.32479" lon="-0.40792">
        <ele>197.12</ele>
        <time>2022-05-22T09:52:05.000Z</time>
      </trkpt>
      <trkpt lat="43.32465" lon="-0.4081">
        <ele>199.87</ele>
        <time>2022-05-22T09:52:16.000Z</time>
      </trkpt>
      <trkpt lat="43.32477" lon="-0.40788">
        <ele>200.22</ele>
        <time>2022-05-22T09:53:05.000Z</time>
      </trkpt>
      <trkpt lat="43.32495" lon="-0.40793">
        <ele>199.49</ele>
        <time>2022-05-22T09:53:13.000Z</time>
      </trkpt>
      <trkpt lat="43.32513" lon="-0.40805">
        <ele>199.29</ele>
        <time>2022-05-22T09:53:21.000Z</time>
      </trkpt>
      <trkpt lat="43.32521" lon="-0.40782">
        <ele>199.89</ele>
        <time>2022-05-22T09:53:28.000Z</time>
      </trkpt>
      <trkpt lat="43.32536" lon="-0.40766">
        <ele>197.88</ele>
        <time>2022-05-22T09:53:35.000Z</time>
      </trkpt>
      <trkpt lat="43.3254" lon="-0.40741">
        <ele>195.06</ele>
        <time>2022-05-22T09:53:42.000Z</time>
      </trkpt>
      <trkpt lat="43.32529" lon="-0.40721">
        <ele>193.74</ele>
        <time>2022-05-22T09:53:48.000Z</time>
      </trkpt>
      <trkpt lat="43.32518" lon="-0.40699">
        <ele>192.38</ele>
        <time>2022-05-22T09:53:55.000Z</time>
      </trkpt>
      <trkpt lat="43.325" lon="-0.40687">
        <ele>192.8</ele>
        <time>2022-05-22T09:54:01.000Z</time>
      </trkpt>
      <trkpt lat="43.32481" lon="-0.40673">
        <ele>190.43</ele>
        <time>2022-05-22T09:54:07.000Z</time>
      </trkpt>
      <trkpt lat="43.32463" lon="-0.4066">
        <ele>189.33</ele>
        <time>2022-05-22T09:54:13.000Z</time>
      </trkpt>
      <trkpt lat="43.32446" lon="-0.40651">
        <ele>190.24</ele>
        <time>2022-05-22T09:54:19.000Z</time>
      </trkpt>
      <trkpt lat="43.32427" lon="-0.4064">
        <ele>188.43</ele>
        <time>2022-05-22T09:54:25.000Z</time>
      </trkpt>
      <trkpt lat="43.32409" lon="-0.40648">
        <ele>189.73</ele>
        <time>2022-05-22T09:54:32.000Z</time>
      </trkpt>
      <trkpt lat="43.32421" lon="-0.40629">
        <ele>190.21</ele>
        <time>2022-05-22T09:54:47.000Z</time>
      </trkpt>
      <trkpt lat="43.32426" lon="-0.40602">
        <ele>186.87</ele>
        <time>2022-05-22T09:54:53.000Z</time>
      </trkpt>
      <trkpt lat="43.32426" lon="-0.40571">
        <ele>187.54</ele>
        <time>2022-05-22T09:54:59.000Z</time>
      </trkpt>
      <trkpt lat="43.32423" lon="-0.40543">
        <ele>187.98</ele>
        <time>2022-05-22T09:55:04.000Z</time>
      </trkpt>
      <trkpt lat="43.32418" lon="-0.40519">
        <ele>188.64</ele>
        <time>2022-05-22T09:55:08.000Z</time>
      </trkpt>
      <trkpt lat="43.32412" lon="-0.40495">
        <ele>192.85</ele>
        <time>2022-05-22T09:55:13.000Z</time>
      </trkpt>
      <trkpt lat="43.32417" lon="-0.40466">
        <ele>191.96</ele>
        <time>2022-05-22T09:55:18.000Z</time>
      </trkpt>
      <trkpt lat="43.32408" lon="-0.40439">
        <ele>189.33</ele>
        <time>2022-05-22T09:55:23.000Z</time>
      </trkpt>
      <trkpt lat="43.32398" lon="-0.40412">
        <ele>188.98</ele>
        <time>2022-05-22T09:55:28.000Z</time>
      </trkpt>
      <trkpt lat="43.32386" lon="-0.40391">
        <ele>189.06</ele>
        <time>2022-05-22T09:55:33.000Z</time>
      </trkpt>
      <trkpt lat="43.32377" lon="-0.40363">
        <ele>190.17</ele>
        <time>2022-05-22T09:55:39.000Z</time>
      </trkpt>
      <trkpt lat="43.32369" lon="-0.4034">
        <ele>190.55</ele>
        <time>2022-05-22T09:55:44.000Z</time>
      </trkpt>
      <trkpt lat="43.32363" lon="-0.40316">
        <ele>191.05</ele>
        <time>2022-05-22T09:55:49.000Z</time>
      </trkpt>
      <trkpt lat="43.32356" lon="-0.40292">
        <ele>190.48</ele>
        <time>2022-05-22T09:55:54.000Z</time>
      </trkpt>
      <trkpt lat="43.32349" lon="-0.40268">
        <ele>189.87</ele>
        <time>2022-05-22T09:55:59.000Z</time>
      </trkpt>
      <trkpt lat="43.32343" lon="-0.40242">
        <ele>191.51</ele>
        <time>2022-05-22T09:56:04.000Z</time>
      </trkpt>
      <trkpt lat="43.32338" lon="-0.40216">
        <ele>192.23</ele>
        <time>2022-05-22T09:56:09.000Z</time>
      </trkpt>
      <trkpt lat="43.32332" lon="-0.40191">
        <ele>190.48</ele>
        <time>2022-05-22T09:56:14.000Z</time>
      </trkpt>
      <trkpt lat="43.32324" lon="-0.40164">
        <ele>190.23</ele>
        <time>2022-05-22T09:56:19.000Z</time>
      </trkpt>
      <trkpt lat="43.32317" lon="-0.40136">
        <ele>190.95</ele>
        <time>2022-05-22T09:56:24.000Z</time>
      </trkpt>
      <trkpt lat="43.3231" lon="-0.40107">
        <ele>192.55</ele>
        <time>2022-05-22T09:56:29.000Z</time>
      </trkpt>
      <trkpt lat="43.32305" lon="-0.4008">
        <ele>193.39</ele>
        <time>2022-05-22T09:56:34.000Z</time>
      </trkpt>
      <trkpt lat="43.323" lon="-0.40051">
        <ele>193.75</ele>
        <time>2022-05-22T09:56:39.000Z</time>
      </trkpt>
      <trkpt lat="43.32295" lon="-0.40024">
        <ele>193.29</ele>
        <time>2022-05-22T09:56:44.000Z</time>
      </trkpt>
      <trkpt lat="43.32288" lon="-0.39999">
        <ele>194.25</ele>
        <time>2022-05-22T09:56:49.000Z</time>
      </trkpt>
      <trkpt lat="43.32273" lon="-0.39982">
        <ele>197.67</ele>
        <time>2022-05-22T09:56:55.000Z</time>
      </trkpt>
      <trkpt lat="43.32256" lon="-0.39972">
        <ele>194.89</ele>
        <time>2022-05-22T09:57:04.000Z</time>
      </trkpt>
      <trkpt lat="43.32238" lon="-0.3998">
        <ele>193.26</ele>
        <time>2022-05-22T09:57:16.000Z</time>
      </trkpt>
      <trkpt lat="43.32222" lon="-0.39992">
        <ele>193.61</ele>
        <time>2022-05-22T09:57:23.000Z</time>
      </trkpt>
      <trkpt lat="43.3221" lon="-0.39969">
        <ele>193.94</ele>
        <time>2022-05-22T09:57:28.000Z</time>
      </trkpt>
      <trkpt lat="43.32198" lon="-0.39945">
        <ele>194.55</ele>
        <time>2022-05-22T09:57:33.000Z</time>
      </trkpt>
      <trkpt lat="43.32184" lon="-0.39922">
        <ele>194.2</ele>
        <time>2022-05-22T09:57:38.000Z</time>
      </trkpt>
      <trkpt lat="43.32171" lon="-0.39899">
        <ele>193.77</ele>
        <time>2022-05-22T09:57:43.000Z</time>
      </trkpt>
      <trkpt lat="43.32162" lon="-0.39874">
        <ele>196.42</ele>
        <time>2022-05-22T09:57:48.000Z</time>
      </trkpt>
      <trkpt lat="43.32151" lon="-0.39852">
        <ele>196.66</ele>
        <time>2022-05-22T09:57:52.000Z</time>
      </trkpt>
      <trkpt lat="43.32149" lon="-0.39826">
        <ele>196.4</ele>
        <time>2022-05-22T09:57:56.000Z</time>
      </trkpt>
      <trkpt lat="43.32146" lon="-0.39796">
        <ele>196.8</ele>
        <time>2022-05-22T09:58:01.000Z</time>
      </trkpt>
      <trkpt lat="43.32143" lon="-0.39769">
        <ele>196.88</ele>
        <time>2022-05-22T09:58:05.000Z</time>
      </trkpt>
      <trkpt lat="43.32138" lon="-0.39743">
        <ele>196.23</ele>
        <time>2022-05-22T09:58:09.000Z</time>
      </trkpt>
      <trkpt lat="43.32134" lon="-0.39718">
        <ele>196.22</ele>
        <time>2022-05-22T09:58:13.000Z</time>
      </trkpt>
      <trkpt lat="43.32131" lon="-0.39692">
        <ele>195.54</ele>
        <time>2022-05-22T09:58:17.000Z</time>
      </trkpt>
      <trkpt lat="43.32126" lon="-0.39666">
        <ele>195.08</ele>
        <time>2022-05-22T09:58:21.000Z</time>
      </trkpt>
      <trkpt lat="43.32118" lon="-0.39643">
        <ele>195.22</ele>
        <time>2022-05-22T09:58:25.000Z</time>
      </trkpt>
      <trkpt lat="43.32108" lon="-0.39617">
        <ele>196.32</ele>
        <time>2022-05-22T09:58:30.000Z</time>
      </trkpt>
      <trkpt lat="43.32094" lon="-0.39597">
        <ele>197.14</ele>
        <time>2022-05-22T09:58:35.000Z</time>
      </trkpt>
      <trkpt lat="43.32078" lon="-0.39577">
        <ele>198.06</ele>
        <time>2022-05-22T09:58:40.000Z</time>
      </trkpt>
      <trkpt lat="43.32062" lon="-0.39558">
        <ele>197.93</ele>
        <time>2022-05-22T09:58:45.000Z</time>
      </trkpt>
      <trkpt lat="43.32047" lon="-0.39538">
        <ele>198.36</ele>
        <time>2022-05-22T09:58:50.000Z</time>
      </trkpt>
      <trkpt lat="43.3204" lon="-0.39514">
        <ele>199.3</ele>
        <time>2022-05-22T09:58:54.000Z</time>
      </trkpt>
      <trkpt lat="43.32034" lon="-0.39488">
        <ele>198.76</ele>
        <time>2022-05-22T09:58:58.000Z</time>
      </trkpt>
      <trkpt lat="43.32028" lon="-0.39459">
        <ele>198.1</ele>
        <time>2022-05-22T09:59:03.000Z</time>
      </trkpt>
      <trkpt lat="43.32023" lon="-0.39433">
        <ele>196.92</ele>
        <time>2022-05-22T09:59:08.000Z</time>
      </trkpt>
      <trkpt lat="43.32003" lon="-0.39435">
        <ele>196.38</ele>
        <time>2022-05-22T09:59:14.000Z</time>
      </trkpt>
      <trkpt lat="43.31983" lon="-0.39442">
        <ele>197.13</ele>
        <time>2022-05-22T09:59:19.000Z</time>
      </trkpt>
      <trkpt lat="43.31965" lon="-0.39448">
        <ele>197.82</ele>
        <time>2022-05-22T09:59:24.000Z</time>
      </trkpt>
      <trkpt lat="43.31947" lon="-0.39454">
        <ele>197.6</ele>
        <time>2022-05-22T09:59:30.000Z</time>
      </trkpt>
      <trkpt lat="43.31929" lon="-0.39442">
        <ele>196.39</ele>
        <time>2022-05-22T09:59:36.000Z</time>
      </trkpt>
      <trkpt lat="43.31926" lon="-0.39411">
        <ele>196.43</ele>
        <time>2022-05-22T09:59:41.000Z</time>
      </trkpt>
      <trkpt lat="43.31921" lon="-0.39387">
        <ele>196.62</ele>
        <time>2022-05-22T09:59:45.000Z</time>
      </trkpt>
      <trkpt lat="43.31914" lon="-0.39359">
        <ele>196.1</ele>
        <time>2022-05-22T09:59:52.000Z</time>
      </trkpt>
      <trkpt lat="43.31911" lon="-0.39328">
        <ele>198.92</ele>
        <time>2022-05-22T09:59:57.000Z</time>
      </trkpt>
      <trkpt lat="43.31904" lon="-0.39301">
        <ele>199.38</ele>
        <time>2022-05-22T10:00:02.000Z</time>
      </trkpt>
      <trkpt lat="43.31897" lon="-0.39277">
        <ele>199.78</ele>
        <time>2022-05-22T10:00:07.000Z</time>
      </trkpt>
      <trkpt lat="43.31893" lon="-0.39251">
        <ele>199.36</ele>
        <time>2022-05-22T10:00:12.000Z</time>
      </trkpt>
      <trkpt lat="43.31886" lon="-0.39222">
        <ele>199.41</ele>
        <time>2022-05-22T10:00:17.000Z</time>
      </trkpt>
      <trkpt lat="43.31878" lon="-0.39193">
        <ele>199.36</ele>
        <time>2022-05-22T10:00:22.000Z</time>
      </trkpt>
      <trkpt lat="43.31873" lon="-0.39163">
        <ele>199.41</ele>
        <time>2022-05-22T10:00:27.000Z</time>
      </trkpt>
      <trkpt lat="43.31868" lon="-0.39139">
        <ele>199.54</ele>
        <time>2022-05-22T10:00:31.000Z</time>
      </trkpt>
      <trkpt lat="43.31863" lon="-0.39112">
        <ele>199.26</ele>
        <time>2022-05-22T10:00:35.000Z</time>
      </trkpt>
      <trkpt lat="43.31859" lon="-0.39087">
        <ele>200.08</ele>
        <time>2022-05-22T10:00:39.000Z</time>
      </trkpt>
      <trkpt lat="43.31854" lon="-0.39061">
        <ele>199.78</ele>
        <time>2022-05-22T10:00:43.000Z</time>
      </trkpt>
      <trkpt lat="43.31848" lon="-0.39036">
        <ele>199.24</ele>
        <time>2022-05-22T10:00:47.000Z</time>
      </trkpt>
      <trkpt lat="43.31841" lon="-0.39012">
        <ele>201.48</ele>
        <time>2022-05-22T10:00:51.000Z</time>
      </trkpt>
      <trkpt lat="43.31836" lon="-0.38987">
        <ele>201.13</ele>
        <time>2022-05-22T10:00:55.000Z</time>
      </trkpt>
      <trkpt lat="43.31832" lon="-0.38959">
        <ele>202.41</ele>
        <time>2022-05-22T10:01:00.000Z</time>
      </trkpt>
      <trkpt lat="43.31824" lon="-0.38936">
        <ele>201.21</ele>
        <time>2022-05-22T10:01:05.000Z</time>
      </trkpt>
      <trkpt lat="43.31818" lon="-0.38909">
        <ele>200.61</ele>
        <time>2022-05-22T10:01:11.000Z</time>
      </trkpt>
      <trkpt lat="43.31797" lon="-0.38904">
        <ele>201.18</ele>
        <time>2022-05-22T10:01:17.000Z</time>
      </trkpt>
      <trkpt lat="43.31779" lon="-0.38892">
        <ele>199.28</ele>
        <time>2022-05-22T10:01:22.000Z</time>
      </trkpt>
      <trkpt lat="43.31774" lon="-0.38867">
        <ele>199.55</ele>
        <time>2022-05-22T10:01:26.000Z</time>
      </trkpt>
      <trkpt lat="43.31771" lon="-0.3884">
        <ele>198.99</ele>
        <time>2022-05-22T10:01:30.000Z</time>
      </trkpt>
      <trkpt lat="43.31767" lon="-0.38812">
        <ele>198.39</ele>
        <time>2022-05-22T10:01:34.000Z</time>
      </trkpt>
      <trkpt lat="43.31763" lon="-0.38784">
        <ele>198.37</ele>
        <time>2022-05-22T10:01:38.000Z</time>
      </trkpt>
      <trkpt lat="43.31758" lon="-0.38757">
        <ele>198.39</ele>
        <time>2022-05-22T10:01:42.000Z</time>
      </trkpt>
      <trkpt lat="43.31757" lon="-0.3873">
        <ele>198.05</ele>
        <time>2022-05-22T10:01:46.000Z</time>
      </trkpt>
      <trkpt lat="43.31767" lon="-0.38708">
        <ele>198.44</ele>
        <time>2022-05-22T10:01:50.000Z</time>
      </trkpt>
      <trkpt lat="43.31786" lon="-0.38698">
        <ele>199.01</ele>
        <time>2022-05-22T10:01:54.000Z</time>
      </trkpt>
      <trkpt lat="43.31804" lon="-0.38693">
        <ele>200.09</ele>
        <time>2022-05-22T10:01:58.000Z</time>
      </trkpt>
      <trkpt lat="43.31823" lon="-0.38687">
        <ele>201.07</ele>
        <time>2022-05-22T10:02:02.000Z</time>
      </trkpt>
      <trkpt lat="43.31842" lon="-0.38682">
        <ele>201.88</ele>
        <time>2022-05-22T10:02:06.000Z</time>
      </trkpt>
      <trkpt lat="43.31861" lon="-0.38676">
        <ele>201.86</ele>
        <time>2022-05-22T10:02:10.000Z</time>
      </trkpt>
      <trkpt lat="43.3188" lon="-0.38671">
        <ele>201.89</ele>
        <time>2022-05-22T10:02:14.000Z</time>
      </trkpt>
      <trkpt lat="43.31897" lon="-0.38667">
        <ele>201.32</ele>
        <time>2022-05-22T10:02:18.000Z</time>
      </trkpt>
      <trkpt lat="43.31918" lon="-0.38661">
        <ele>201.84</ele>
        <time>2022-05-22T10:02:23.000Z</time>
      </trkpt>
      <trkpt lat="43.31933" lon="-0.38647">
        <ele>201.86</ele>
        <time>2022-05-22T10:02:29.000Z</time>
      </trkpt>
      <trkpt lat="43.31929" lon="-0.3862">
        <ele>201.52</ele>
        <time>2022-05-22T10:02:34.000Z</time>
      </trkpt>
      <trkpt lat="43.31921" lon="-0.38593">
        <ele>200.76</ele>
        <time>2022-05-22T10:02:39.000Z</time>
      </trkpt>
      <trkpt lat="43.31931" lon="-0.38571">
        <ele>199.87</ele>
        <time>2022-05-22T10:02:44.000Z</time>
      </trkpt>
      <trkpt lat="43.3195" lon="-0.38566">
        <ele>200.21</ele>
        <time>2022-05-22T10:02:48.000Z</time>
      </trkpt>
      <trkpt lat="43.31969" lon="-0.38553">
        <ele>199.74</ele>
        <time>2022-05-22T10:02:53.000Z</time>
      </trkpt>
      <trkpt lat="43.31966" lon="-0.38527">
        <ele>200.72</ele>
        <time>2022-05-22T10:02:57.000Z</time>
      </trkpt>
      <trkpt lat="43.31963" lon="-0.38499">
        <ele>200.67</ele>
        <time>2022-05-22T10:03:01.000Z</time>
      </trkpt>
      <trkpt lat="43.31962" lon="-0.38472">
        <ele>202.13</ele>
        <time>2022-05-22T10:03:05.000Z</time>
      </trkpt>
      <trkpt lat="43.31959" lon="-0.38442">
        <ele>201.99</ele>
        <time>2022-05-22T10:03:09.000Z</time>
      </trkpt>
      <trkpt lat="43.31954" lon="-0.38411">
        <ele>202.44</ele>
        <time>2022-05-22T10:03:13.000Z</time>
      </trkpt>
      <trkpt lat="43.31947" lon="-0.38383">
        <ele>202.31</ele>
        <time>2022-05-22T10:03:17.000Z</time>
      </trkpt>
      <trkpt lat="43.3194" lon="-0.38353">
        <ele>202.47</ele>
        <time>2022-05-22T10:03:21.000Z</time>
      </trkpt>
      <trkpt lat="43.31931" lon="-0.38325">
        <ele>202.36</ele>
        <time>2022-05-22T10:03:25.000Z</time>
      </trkpt>
      <trkpt lat="43.31922" lon="-0.38297">
        <ele>202.58</ele>
        <time>2022-05-22T10:03:29.000Z</time>
      </trkpt>
      <trkpt lat="43.31914" lon="-0.38268">
        <ele>202.61</ele>
        <time>2022-05-22T10:03:33.000Z</time>
      </trkpt>
      <trkpt lat="43.31907" lon="-0.38239">
        <ele>202.99</ele>
        <time>2022-05-22T10:03:37.000Z</time>
      </trkpt>
      <trkpt lat="43.319" lon="-0.38211">
        <ele>203.66</ele>
        <time>2022-05-22T10:03:41.000Z</time>
      </trkpt>
      <trkpt lat="43.31892" lon="-0.38184">
        <ele>203.24</ele>
        <time>2022-05-22T10:03:45.000Z</time>
      </trkpt>
      <trkpt lat="43.31883" lon="-0.38158">
        <ele>202.93</ele>
        <time>2022-05-22T10:03:49.000Z</time>
      </trkpt>
      <trkpt lat="43.31874" lon="-0.38132">
        <ele>203.24</ele>
        <time>2022-05-22T10:03:53.000Z</time>
      </trkpt>
      <trkpt lat="43.31864" lon="-0.38107">
        <ele>204.29</ele>
        <time>2022-05-22T10:03:57.000Z</time>
      </trkpt>
      <trkpt lat="43.31854" lon="-0.3808">
        <ele>204.59</ele>
        <time>2022-05-22T10:04:01.000Z</time>
      </trkpt>
      <trkpt lat="43.31846" lon="-0.38051">
        <ele>204.14</ele>
        <time>2022-05-22T10:04:05.000Z</time>
      </trkpt>
      <trkpt lat="43.31835" lon="-0.38023">
        <ele>202.7</ele>
        <time>2022-05-22T10:04:09.000Z</time>
      </trkpt>
      <trkpt lat="43.31828" lon="-0.38">
        <ele>202.9</ele>
        <time>2022-05-22T10:04:12.000Z</time>
      </trkpt>
      <trkpt lat="43.31819" lon="-0.37976">
        <ele>202.58</ele>
        <time>2022-05-22T10:04:15.000Z</time>
      </trkpt>
      <trkpt lat="43.31811" lon="-0.37953">
        <ele>202.69</ele>
        <time>2022-05-22T10:04:18.000Z</time>
      </trkpt>
      <trkpt lat="43.31803" lon="-0.37931">
        <ele>202.87</ele>
        <time>2022-05-22T10:04:21.000Z</time>
      </trkpt>
      <trkpt lat="43.31799" lon="-0.37906">
        <ele>202.46</ele>
        <time>2022-05-22T10:04:24.000Z</time>
      </trkpt>
      <trkpt lat="43.31796" lon="-0.37877">
        <ele>203</ele>
        <time>2022-05-22T10:04:28.000Z</time>
      </trkpt>
      <trkpt lat="43.31791" lon="-0.37846">
        <ele>203.08</ele>
        <time>2022-05-22T10:04:32.000Z</time>
      </trkpt>
      <trkpt lat="43.31807" lon="-0.37825">
        <ele>203.44</ele>
        <time>2022-05-22T10:04:36.000Z</time>
      </trkpt>
      <trkpt lat="43.31821" lon="-0.37805">
        <ele>204.52</ele>
        <time>2022-05-22T10:04:40.000Z</time>
      </trkpt>
      <trkpt lat="43.31825" lon="-0.37775">
        <ele>204.86</ele>
        <time>2022-05-22T10:04:44.000Z</time>
      </trkpt>
      <trkpt lat="43.31828" lon="-0.37747">
        <ele>204.95</ele>
        <time>2022-05-22T10:04:48.000Z</time>
      </trkpt>
      <trkpt lat="43.31832" lon="-0.3772">
        <ele>204.62</ele>
        <time>2022-05-22T10:04:52.000Z</time>
      </trkpt>
      <trkpt lat="43.31838" lon="-0.37691">
        <ele>205.5</ele>
        <time>2022-05-22T10:04:56.000Z</time>
      </trkpt>
      <trkpt lat="43.31842" lon="-0.37662">
        <ele>205.35</ele>
        <time>2022-05-22T10:05:00.000Z</time>
      </trkpt>
      <trkpt lat="43.31847" lon="-0.37633">
        <ele>204.5</ele>
        <time>2022-05-22T10:05:04.000Z</time>
      </trkpt>
      <trkpt lat="43.31852" lon="-0.37606">
        <ele>205.29</ele>
        <time>2022-05-22T10:05:08.000Z</time>
      </trkpt>
      <trkpt lat="43.31857" lon="-0.37578">
        <ele>204.39</ele>
        <time>2022-05-22T10:05:12.000Z</time>
      </trkpt>
      <trkpt lat="43.31861" lon="-0.37548">
        <ele>204.37</ele>
        <time>2022-05-22T10:05:16.000Z</time>
      </trkpt>
      <trkpt lat="43.31866" lon="-0.37518">
        <ele>203.72</ele>
        <time>2022-05-22T10:05:20.000Z</time>
      </trkpt>
      <trkpt lat="43.31869" lon="-0.37494">
        <ele>203.4</ele>
        <time>2022-05-22T10:05:23.000Z</time>
      </trkpt>
      <trkpt lat="43.31873" lon="-0.37469">
        <ele>203.73</ele>
        <time>2022-05-22T10:05:26.000Z</time>
      </trkpt>
      <trkpt lat="43.31877" lon="-0.37437">
        <ele>203.83</ele>
        <time>2022-05-22T10:05:30.000Z</time>
      </trkpt>
      <trkpt lat="43.3188" lon="-0.37413">
        <ele>203.85</ele>
        <time>2022-05-22T10:05:33.000Z</time>
      </trkpt>
      <trkpt lat="43.31882" lon="-0.37381">
        <ele>204.02</ele>
        <time>2022-05-22T10:05:37.000Z</time>
      </trkpt>
      <trkpt lat="43.31884" lon="-0.37352">
        <ele>203.92</ele>
        <time>2022-05-22T10:05:41.000Z</time>
      </trkpt>
      <trkpt lat="43.31887" lon="-0.37323">
        <ele>204.5</ele>
        <time>2022-05-22T10:05:45.000Z</time>
      </trkpt>
      <trkpt lat="43.31891" lon="-0.37297">
        <ele>204.82</ele>
        <time>2022-05-22T10:05:53.000Z</time>
      </trkpt>
      <trkpt lat="43.31893" lon="-0.37267">
        <ele>204.91</ele>
        <time>2022-05-22T10:05:59.000Z</time>
      </trkpt>
      <trkpt lat="43.31895" lon="-0.37239">
        <ele>205.11</ele>
        <time>2022-05-22T10:06:03.000Z</time>
      </trkpt>
      <trkpt lat="43.31898" lon="-0.3721">
        <ele>205.27</ele>
        <time>2022-05-22T10:06:07.000Z</time>
      </trkpt>
      <trkpt lat="43.31897" lon="-0.37181">
        <ele>204.44</ele>
        <time>2022-05-22T10:06:11.000Z</time>
      </trkpt>
      <trkpt lat="43.319" lon="-0.37152">
        <ele>204.29</ele>
        <time>2022-05-22T10:06:15.000Z</time>
      </trkpt>
      <trkpt lat="43.31896" lon="-0.37122">
        <ele>204.7</ele>
        <time>2022-05-22T10:06:20.000Z</time>
      </trkpt>
      <trkpt lat="43.31904" lon="-0.37098">
        <ele>205.8</ele>
        <time>2022-05-22T10:06:24.000Z</time>
      </trkpt>
      <trkpt lat="43.31905" lon="-0.3707">
        <ele>204.87</ele>
        <time>2022-05-22T10:06:28.000Z</time>
      </trkpt>
      <trkpt lat="43.31906" lon="-0.37041">
        <ele>205.68</ele>
        <time>2022-05-22T10:06:32.000Z</time>
      </trkpt>
      <trkpt lat="43.31908" lon="-0.37013">
        <ele>206.41</ele>
        <time>2022-05-22T10:06:36.000Z</time>
      </trkpt>
      <trkpt lat="43.31909" lon="-0.36986">
        <ele>207.55</ele>
        <time>2022-05-22T10:06:40.000Z</time>
      </trkpt>
      <trkpt lat="43.31911" lon="-0.36957">
        <ele>208.04</ele>
        <time>2022-05-22T10:06:44.000Z</time>
      </trkpt>
      <trkpt lat="43.31913" lon="-0.36929">
        <ele>208.3</ele>
        <time>2022-05-22T10:06:48.000Z</time>
      </trkpt>
      <trkpt lat="43.31912" lon="-0.36899">
        <ele>208.3</ele>
        <time>2022-05-22T10:06:52.000Z</time>
      </trkpt>
      <trkpt lat="43.31911" lon="-0.3687">
        <ele>207.9</ele>
        <time>2022-05-22T10:06:56.000Z</time>
      </trkpt>
      <trkpt lat="43.31912" lon="-0.36839">
        <ele>207.56</ele>
        <time>2022-05-22T10:07:00.000Z</time>
      </trkpt>
      <trkpt lat="43.31912" lon="-0.36813">
        <ele>208.05</ele>
        <time>2022-05-22T10:07:04.000Z</time>
      </trkpt>
      <trkpt lat="43.31912" lon="-0.36784">
        <ele>207.85</ele>
        <time>2022-05-22T10:07:08.000Z</time>
      </trkpt>
      <trkpt lat="43.31915" lon="-0.36752">
        <ele>208.44</ele>
        <time>2022-05-22T10:07:12.000Z</time>
      </trkpt>
      <trkpt lat="43.31914" lon="-0.36727">
        <ele>209.49</ele>
        <time>2022-05-22T10:07:15.000Z</time>
      </trkpt>
      <trkpt lat="43.31913" lon="-0.36694">
        <ele>210.14</ele>
        <time>2022-05-22T10:07:19.000Z</time>
      </trkpt>
      <trkpt lat="43.31913" lon="-0.36662">
        <ele>209.73</ele>
        <time>2022-05-22T10:07:23.000Z</time>
      </trkpt>
      <trkpt lat="43.31911" lon="-0.36631">
        <ele>209.52</ele>
        <time>2022-05-22T10:07:27.000Z</time>
      </trkpt>
      <trkpt lat="43.31909" lon="-0.36601">
        <ele>209.57</ele>
        <time>2022-05-22T10:07:31.000Z</time>
      </trkpt>
      <trkpt lat="43.31908" lon="-0.36571">
        <ele>209.07</ele>
        <time>2022-05-22T10:07:35.000Z</time>
      </trkpt>
      <trkpt lat="43.31906" lon="-0.36541">
        <ele>209.98</ele>
        <time>2022-05-22T10:07:39.000Z</time>
      </trkpt>
      <trkpt lat="43.31904" lon="-0.3651">
        <ele>209.9</ele>
        <time>2022-05-22T10:07:43.000Z</time>
      </trkpt>
      <trkpt lat="43.31902" lon="-0.36479">
        <ele>209.83</ele>
        <time>2022-05-22T10:07:47.000Z</time>
      </trkpt>
      <trkpt lat="43.319" lon="-0.36447">
        <ele>210.57</ele>
        <time>2022-05-22T10:07:51.000Z</time>
      </trkpt>
      <trkpt lat="43.31897" lon="-0.36415">
        <ele>210.1</ele>
        <time>2022-05-22T10:07:55.000Z</time>
      </trkpt>
      <trkpt lat="43.31896" lon="-0.36384">
        <ele>210.46</ele>
        <time>2022-05-22T10:07:59.000Z</time>
      </trkpt>
      <trkpt lat="43.31894" lon="-0.36352">
        <ele>210.38</ele>
        <time>2022-05-22T10:08:03.000Z</time>
      </trkpt>
      <trkpt lat="43.31892" lon="-0.36323">
        <ele>211.13</ele>
        <time>2022-05-22T10:08:07.000Z</time>
      </trkpt>
      <trkpt lat="43.3189" lon="-0.36295">
        <ele>212.41</ele>
        <time>2022-05-22T10:08:11.000Z</time>
      </trkpt>
      <trkpt lat="43.31889" lon="-0.36263">
        <ele>213.02</ele>
        <time>2022-05-22T10:08:15.000Z</time>
      </trkpt>
      <trkpt lat="43.31889" lon="-0.36231">
        <ele>212.7</ele>
        <time>2022-05-22T10:08:19.000Z</time>
      </trkpt>
      <trkpt lat="43.31888" lon="-0.362">
        <ele>213.32</ele>
        <time>2022-05-22T10:08:23.000Z</time>
      </trkpt>
      <trkpt lat="43.31887" lon="-0.36168">
        <ele>212.8</ele>
        <time>2022-05-22T10:08:27.000Z</time>
      </trkpt>
      <trkpt lat="43.31885" lon="-0.36139">
        <ele>213.28</ele>
        <time>2022-05-22T10:08:31.000Z</time>
      </trkpt>
      <trkpt lat="43.31882" lon="-0.3611">
        <ele>213.15</ele>
        <time>2022-05-22T10:08:35.000Z</time>
      </trkpt>
      <trkpt lat="43.31877" lon="-0.36082">
        <ele>212.68</ele>
        <time>2022-05-22T10:08:39.000Z</time>
      </trkpt>
      <trkpt lat="43.31869" lon="-0.36059">
        <ele>211.96</ele>
        <time>2022-05-22T10:08:43.000Z</time>
      </trkpt>
      <trkpt lat="43.31853" lon="-0.36046">
        <ele>211.35</ele>
        <time>2022-05-22T10:08:47.000Z</time>
      </trkpt>
      <trkpt lat="43.31846" lon="-0.36022">
        <ele>210.99</ele>
        <time>2022-05-22T10:08:52.000Z</time>
      </trkpt>
      <trkpt lat="43.31835" lon="-0.35997">
        <ele>210.74</ele>
        <time>2022-05-22T10:08:57.000Z</time>
      </trkpt>
      <trkpt lat="43.31813" lon="-0.35995">
        <ele>209.79</ele>
        <time>2022-05-22T10:09:02.000Z</time>
      </trkpt>
      <trkpt lat="43.31795" lon="-0.36004">
        <ele>209.25</ele>
        <time>2022-05-22T10:09:06.000Z</time>
      </trkpt>
      <trkpt lat="43.31773" lon="-0.36011">
        <ele>208.78</ele>
        <time>2022-05-22T10:09:10.000Z</time>
      </trkpt>
      <trkpt lat="43.31753" lon="-0.3602">
        <ele>207.65</ele>
        <time>2022-05-22T10:09:14.000Z</time>
      </trkpt>
      <trkpt lat="43.31733" lon="-0.36027">
        <ele>208.22</ele>
        <time>2022-05-22T10:09:18.000Z</time>
      </trkpt>
      <trkpt lat="43.31715" lon="-0.36031">
        <ele>208.3</ele>
        <time>2022-05-22T10:09:22.000Z</time>
      </trkpt>
      <trkpt lat="43.31695" lon="-0.36041">
        <ele>209.43</ele>
        <time>2022-05-22T10:09:27.000Z</time>
      </trkpt>
      <trkpt lat="43.31674" lon="-0.36048">
        <ele>210.22</ele>
        <time>2022-05-22T10:09:32.000Z</time>
      </trkpt>
      <trkpt lat="43.31655" lon="-0.36057">
        <ele>209.82</ele>
        <time>2022-05-22T10:09:37.000Z</time>
      </trkpt>
      <trkpt lat="43.31635" lon="-0.36065">
        <ele>210.63</ele>
        <time>2022-05-22T10:09:42.000Z</time>
      </trkpt>
      <trkpt lat="43.31614" lon="-0.36072">
        <ele>211.02</ele>
        <time>2022-05-22T10:09:47.000Z</time>
      </trkpt>
      <trkpt lat="43.31596" lon="-0.36058">
        <ele>210.72</ele>
        <time>2022-05-22T10:09:53.000Z</time>
      </trkpt>
    </trkseg>
  </trk>
</gpx>